<?xml version="1.0" encoding="UTF-8" standalone="no" ?>
<gpx xmlns="http://www.topografix.com/GPX/1/1" xmlns:xsi="http://www.w3.org/2001/XMLSchema-instance" xsi:schemaLocation="http://www.topografix.com/GPX/1/1 http://www.topografix.com/GPX/1/1/gpx.xsd" version="1.1" creator="VisuGPX - https://www.visugpx.com">
  <metadata>
    <name>Randovol Arbin - Col du Mont</name>
    <desc><![CDATA[Belle randonnée avec une superbe vue sur le Grésivaudan depuis le décollage.]]></desc>
  </metadata>
  <trk>
    <name><![CDATA[Track 001]]></name>
    <trkseg>
      <trkpt lat="45.5086" lon="6.06486">
        <ele>301.5</ele>
        <time>2012-10-30T09:23:36Z</time>
      </trkpt>
      <trkpt lat="45.5086" lon="6.06486">
        <ele>301.5</ele>
        <time>2012-10-30T09:23:40Z</time>
      </trkpt>
      <trkpt lat="45.5086" lon="6.06486">
        <ele>302</ele>
        <time>2012-10-30T09:23:44Z</time>
      </trkpt>
      <trkpt lat="45.50859" lon="6.06486">
        <ele>301.5</ele>
        <time>2012-10-30T09:23:48Z</time>
      </trkpt>
      <trkpt lat="45.50858" lon="6.06485">
        <ele>301.5</ele>
        <time>2012-10-30T09:23:52Z</time>
      </trkpt>
      <trkpt lat="45.50858" lon="6.06484">
        <ele>301</ele>
        <time>2012-10-30T09:23:56Z</time>
      </trkpt>
      <trkpt lat="45.50858" lon="6.06484">
        <ele>301</ele>
        <time>2012-10-30T09:24:00Z</time>
      </trkpt>
      <trkpt lat="45.50859" lon="6.06485">
        <ele>301.5</ele>
        <time>2012-10-30T09:24:04Z</time>
      </trkpt>
      <trkpt lat="45.50859" lon="6.06485">
        <ele>301.5</ele>
        <time>2012-10-30T09:24:08Z</time>
      </trkpt>
      <trkpt lat="45.50859" lon="6.06485">
        <ele>301.5</ele>
        <time>2012-10-30T09:24:12Z</time>
      </trkpt>
      <trkpt lat="45.50859" lon="6.06485">
        <ele>301.5</ele>
        <time>2012-10-30T09:24:16Z</time>
      </trkpt>
      <trkpt lat="45.5086" lon="6.06485">
        <ele>302</ele>
        <time>2012-10-30T09:24:20Z</time>
      </trkpt>
      <trkpt lat="45.50864" lon="6.06486">
        <ele>301.5</ele>
        <time>2012-10-30T09:24:24Z</time>
      </trkpt>
      <trkpt lat="45.50867" lon="6.0649">
        <ele>301.5</ele>
        <time>2012-10-30T09:24:28Z</time>
      </trkpt>
      <trkpt lat="45.5087" lon="6.06495">
        <ele>302</ele>
        <time>2012-10-30T09:24:32Z</time>
      </trkpt>
      <trkpt lat="45.50874" lon="6.065">
        <ele>302</ele>
        <time>2012-10-30T09:24:36Z</time>
      </trkpt>
      <trkpt lat="45.50878" lon="6.06504">
        <ele>301.5</ele>
        <time>2012-10-30T09:24:40Z</time>
      </trkpt>
      <trkpt lat="45.50882" lon="6.0651">
        <ele>302</ele>
        <time>2012-10-30T09:24:44Z</time>
      </trkpt>
      <trkpt lat="45.50886" lon="6.06515">
        <ele>302.5</ele>
        <time>2012-10-30T09:24:48Z</time>
      </trkpt>
      <trkpt lat="45.50889" lon="6.0652">
        <ele>303</ele>
        <time>2012-10-30T09:24:52Z</time>
      </trkpt>
      <trkpt lat="45.50893" lon="6.06525">
        <ele>303.4</ele>
        <time>2012-10-30T09:24:56Z</time>
      </trkpt>
      <trkpt lat="45.50897" lon="6.0653">
        <ele>303.9</ele>
        <time>2012-10-30T09:25:00Z</time>
      </trkpt>
      <trkpt lat="45.50901" lon="6.06534">
        <ele>304.4</ele>
        <time>2012-10-30T09:25:04Z</time>
      </trkpt>
      <trkpt lat="45.50904" lon="6.0654">
        <ele>305.4</ele>
        <time>2012-10-30T09:25:08Z</time>
      </trkpt>
      <trkpt lat="45.50908" lon="6.06543">
        <ele>305.4</ele>
        <time>2012-10-30T09:25:12Z</time>
      </trkpt>
      <trkpt lat="45.50913" lon="6.06548">
        <ele>305.4</ele>
        <time>2012-10-30T09:25:16Z</time>
      </trkpt>
      <trkpt lat="45.50916" lon="6.06552">
        <ele>305.4</ele>
        <time>2012-10-30T09:25:20Z</time>
      </trkpt>
      <trkpt lat="45.5092" lon="6.06556">
        <ele>305.4</ele>
        <time>2012-10-30T09:25:24Z</time>
      </trkpt>
      <trkpt lat="45.50924" lon="6.06561">
        <ele>304.9</ele>
        <time>2012-10-30T09:25:28Z</time>
      </trkpt>
      <trkpt lat="45.50928" lon="6.06567">
        <ele>304.9</ele>
        <time>2012-10-30T09:25:32Z</time>
      </trkpt>
      <trkpt lat="45.50931" lon="6.06572">
        <ele>304.9</ele>
        <time>2012-10-30T09:25:36Z</time>
      </trkpt>
      <trkpt lat="45.50935" lon="6.06577">
        <ele>304.9</ele>
        <time>2012-10-30T09:25:40Z</time>
      </trkpt>
      <trkpt lat="45.50939" lon="6.06582">
        <ele>305.4</ele>
        <time>2012-10-30T09:25:44Z</time>
      </trkpt>
      <trkpt lat="45.50943" lon="6.06587">
        <ele>305.8</ele>
        <time>2012-10-30T09:25:48Z</time>
      </trkpt>
      <trkpt lat="45.50946" lon="6.06593">
        <ele>306.3</ele>
        <time>2012-10-30T09:25:52Z</time>
      </trkpt>
      <trkpt lat="45.5095" lon="6.06597">
        <ele>306.3</ele>
        <time>2012-10-30T09:25:56Z</time>
      </trkpt>
      <trkpt lat="45.50954" lon="6.066">
        <ele>306.8</ele>
        <time>2012-10-30T09:26:00Z</time>
      </trkpt>
      <trkpt lat="45.50959" lon="6.06603">
        <ele>307.3</ele>
        <time>2012-10-30T09:26:04Z</time>
      </trkpt>
      <trkpt lat="45.50963" lon="6.06604">
        <ele>307.8</ele>
        <time>2012-10-30T09:26:08Z</time>
      </trkpt>
      <trkpt lat="45.50969" lon="6.06605">
        <ele>308.2</ele>
        <time>2012-10-30T09:26:12Z</time>
      </trkpt>
      <trkpt lat="45.50974" lon="6.06606">
        <ele>309.2</ele>
        <time>2012-10-30T09:26:16Z</time>
      </trkpt>
      <trkpt lat="45.50979" lon="6.06608">
        <ele>310.2</ele>
        <time>2012-10-30T09:26:20Z</time>
      </trkpt>
      <trkpt lat="45.50984" lon="6.0661">
        <ele>311.1</ele>
        <time>2012-10-30T09:26:24Z</time>
      </trkpt>
      <trkpt lat="45.50988" lon="6.06612">
        <ele>312.6</ele>
        <time>2012-10-30T09:26:28Z</time>
      </trkpt>
      <trkpt lat="45.50993" lon="6.06615">
        <ele>314</ele>
        <time>2012-10-30T09:26:32Z</time>
      </trkpt>
      <trkpt lat="45.50997" lon="6.06614">
        <ele>315.9</ele>
        <time>2012-10-30T09:26:36Z</time>
      </trkpt>
      <trkpt lat="45.51001" lon="6.06613">
        <ele>317.4</ele>
        <time>2012-10-30T09:26:40Z</time>
      </trkpt>
      <trkpt lat="45.51001" lon="6.06613">
        <ele>317.9</ele>
        <time>2012-10-30T09:26:44Z</time>
      </trkpt>
      <trkpt lat="45.51001" lon="6.06613">
        <ele>317.9</ele>
        <time>2012-10-30T09:26:48Z</time>
      </trkpt>
      <trkpt lat="45.51001" lon="6.06613">
        <ele>317.9</ele>
        <time>2012-10-30T09:26:52Z</time>
      </trkpt>
      <trkpt lat="45.51001" lon="6.06613">
        <ele>317.9</ele>
        <time>2012-10-30T09:26:56Z</time>
      </trkpt>
      <trkpt lat="45.51001" lon="6.06613">
        <ele>317.9</ele>
        <time>2012-10-30T09:27:00Z</time>
      </trkpt>
      <trkpt lat="45.51004" lon="6.06613">
        <ele>318.3</ele>
        <time>2012-10-30T09:27:04Z</time>
      </trkpt>
      <trkpt lat="45.51008" lon="6.06612">
        <ele>318.8</ele>
        <time>2012-10-30T09:27:08Z</time>
      </trkpt>
      <trkpt lat="45.51013" lon="6.06613">
        <ele>317.9</ele>
        <time>2012-10-30T09:27:12Z</time>
      </trkpt>
      <trkpt lat="45.51016" lon="6.06612">
        <ele>317.9</ele>
        <time>2012-10-30T09:27:16Z</time>
      </trkpt>
      <trkpt lat="45.51017" lon="6.06611">
        <ele>317.9</ele>
        <time>2012-10-30T09:27:20Z</time>
      </trkpt>
      <trkpt lat="45.51017" lon="6.06611">
        <ele>317.9</ele>
        <time>2012-10-30T09:27:24Z</time>
      </trkpt>
      <trkpt lat="45.51017" lon="6.06611">
        <ele>317.9</ele>
        <time>2012-10-30T09:27:28Z</time>
      </trkpt>
      <trkpt lat="45.51017" lon="6.06611">
        <ele>317.9</ele>
        <time>2012-10-30T09:27:32Z</time>
      </trkpt>
      <trkpt lat="45.51017" lon="6.06611">
        <ele>317.9</ele>
        <time>2012-10-30T09:27:36Z</time>
      </trkpt>
      <trkpt lat="45.51017" lon="6.06611">
        <ele>317.9</ele>
        <time>2012-10-30T09:27:40Z</time>
      </trkpt>
      <trkpt lat="45.51017" lon="6.06611">
        <ele>317.9</ele>
        <time>2012-10-30T09:27:44Z</time>
      </trkpt>
      <trkpt lat="45.51017" lon="6.06611">
        <ele>317.9</ele>
        <time>2012-10-30T09:27:48Z</time>
      </trkpt>
      <trkpt lat="45.51017" lon="6.06611">
        <ele>317.9</ele>
        <time>2012-10-30T09:27:52Z</time>
      </trkpt>
      <trkpt lat="45.51017" lon="6.06611">
        <ele>317.9</ele>
        <time>2012-10-30T09:27:56Z</time>
      </trkpt>
      <trkpt lat="45.51017" lon="6.06611">
        <ele>317.9</ele>
        <time>2012-10-30T09:28:00Z</time>
      </trkpt>
      <trkpt lat="45.51017" lon="6.06611">
        <ele>317.4</ele>
        <time>2012-10-30T09:28:04Z</time>
      </trkpt>
      <trkpt lat="45.51017" lon="6.06611">
        <ele>317.9</ele>
        <time>2012-10-30T09:28:08Z</time>
      </trkpt>
      <trkpt lat="45.51017" lon="6.06611">
        <ele>317.9</ele>
        <time>2012-10-30T09:28:12Z</time>
      </trkpt>
      <trkpt lat="45.51017" lon="6.06609">
        <ele>318.3</ele>
        <time>2012-10-30T09:28:16Z</time>
      </trkpt>
      <trkpt lat="45.51017" lon="6.0661">
        <ele>318.3</ele>
        <time>2012-10-30T09:28:20Z</time>
      </trkpt>
      <trkpt lat="45.51017" lon="6.0661">
        <ele>318.3</ele>
        <time>2012-10-30T09:28:24Z</time>
      </trkpt>
      <trkpt lat="45.51017" lon="6.0661">
        <ele>318.3</ele>
        <time>2012-10-30T09:28:28Z</time>
      </trkpt>
      <trkpt lat="45.51017" lon="6.0661">
        <ele>318.3</ele>
        <time>2012-10-30T09:28:32Z</time>
      </trkpt>
      <trkpt lat="45.51017" lon="6.0661">
        <ele>318.3</ele>
        <time>2012-10-30T09:28:36Z</time>
      </trkpt>
      <trkpt lat="45.51017" lon="6.0661">
        <ele>318.3</ele>
        <time>2012-10-30T09:28:40Z</time>
      </trkpt>
      <trkpt lat="45.51017" lon="6.0661">
        <ele>318.3</ele>
        <time>2012-10-30T09:28:44Z</time>
      </trkpt>
      <trkpt lat="45.51017" lon="6.0661">
        <ele>318.3</ele>
        <time>2012-10-30T09:28:48Z</time>
      </trkpt>
      <trkpt lat="45.51017" lon="6.0661">
        <ele>318.3</ele>
        <time>2012-10-30T09:28:52Z</time>
      </trkpt>
      <trkpt lat="45.51017" lon="6.0661">
        <ele>318.3</ele>
        <time>2012-10-30T09:28:56Z</time>
      </trkpt>
      <trkpt lat="45.51017" lon="6.0661">
        <ele>318.3</ele>
        <time>2012-10-30T09:29:00Z</time>
      </trkpt>
      <trkpt lat="45.51019" lon="6.0661">
        <ele>318.8</ele>
        <time>2012-10-30T09:29:04Z</time>
      </trkpt>
      <trkpt lat="45.51024" lon="6.06608">
        <ele>318.8</ele>
        <time>2012-10-30T09:29:08Z</time>
      </trkpt>
      <trkpt lat="45.5103" lon="6.06609">
        <ele>320.3</ele>
        <time>2012-10-30T09:29:12Z</time>
      </trkpt>
      <trkpt lat="45.51036" lon="6.06609">
        <ele>321.2</ele>
        <time>2012-10-30T09:29:16Z</time>
      </trkpt>
      <trkpt lat="45.51042" lon="6.06609">
        <ele>322.2</ele>
        <time>2012-10-30T09:29:20Z</time>
      </trkpt>
      <trkpt lat="45.51047" lon="6.06609">
        <ele>322.7</ele>
        <time>2012-10-30T09:29:24Z</time>
      </trkpt>
      <trkpt lat="45.51053" lon="6.0661">
        <ele>323.6</ele>
        <time>2012-10-30T09:29:28Z</time>
      </trkpt>
      <trkpt lat="45.51058" lon="6.06611">
        <ele>324.6</ele>
        <time>2012-10-30T09:29:32Z</time>
      </trkpt>
      <trkpt lat="45.51064" lon="6.06613">
        <ele>325.1</ele>
        <time>2012-10-30T09:29:36Z</time>
      </trkpt>
      <trkpt lat="45.51069" lon="6.06614">
        <ele>326.5</ele>
        <time>2012-10-30T09:29:40Z</time>
      </trkpt>
      <trkpt lat="45.51074" lon="6.06615">
        <ele>327.5</ele>
        <time>2012-10-30T09:29:44Z</time>
      </trkpt>
      <trkpt lat="45.51079" lon="6.06616">
        <ele>328.4</ele>
        <time>2012-10-30T09:29:48Z</time>
      </trkpt>
      <trkpt lat="45.51084" lon="6.06618">
        <ele>329.4</ele>
        <time>2012-10-30T09:29:52Z</time>
      </trkpt>
      <trkpt lat="45.5109" lon="6.0662">
        <ele>329.9</ele>
        <time>2012-10-30T09:29:56Z</time>
      </trkpt>
      <trkpt lat="45.51095" lon="6.06622">
        <ele>330.8</ele>
        <time>2012-10-30T09:30:00Z</time>
      </trkpt>
      <trkpt lat="45.51099" lon="6.06624">
        <ele>331.8</ele>
        <time>2012-10-30T09:30:04Z</time>
      </trkpt>
      <trkpt lat="45.51104" lon="6.06627">
        <ele>332.8</ele>
        <time>2012-10-30T09:30:08Z</time>
      </trkpt>
      <trkpt lat="45.51109" lon="6.06628">
        <ele>333.7</ele>
        <time>2012-10-30T09:30:12Z</time>
      </trkpt>
      <trkpt lat="45.51114" lon="6.0663">
        <ele>333.7</ele>
        <time>2012-10-30T09:30:16Z</time>
      </trkpt>
      <trkpt lat="45.51119" lon="6.06631">
        <ele>334.2</ele>
        <time>2012-10-30T09:30:20Z</time>
      </trkpt>
      <trkpt lat="45.51124" lon="6.06633">
        <ele>334.7</ele>
        <time>2012-10-30T09:30:24Z</time>
      </trkpt>
      <trkpt lat="45.51128" lon="6.06637">
        <ele>335.6</ele>
        <time>2012-10-30T09:30:28Z</time>
      </trkpt>
      <trkpt lat="45.51133" lon="6.06642">
        <ele>336.1</ele>
        <time>2012-10-30T09:30:32Z</time>
      </trkpt>
      <trkpt lat="45.51138" lon="6.06646">
        <ele>337.1</ele>
        <time>2012-10-30T09:30:36Z</time>
      </trkpt>
      <trkpt lat="45.51141" lon="6.06651">
        <ele>338.5</ele>
        <time>2012-10-30T09:30:40Z</time>
      </trkpt>
      <trkpt lat="45.51141" lon="6.06651">
        <ele>338.5</ele>
        <time>2012-10-30T09:30:44Z</time>
      </trkpt>
      <trkpt lat="45.51141" lon="6.06651">
        <ele>338.5</ele>
        <time>2012-10-30T09:30:48Z</time>
      </trkpt>
      <trkpt lat="45.51141" lon="6.06651">
        <ele>338.5</ele>
        <time>2012-10-30T09:30:52Z</time>
      </trkpt>
      <trkpt lat="45.51141" lon="6.06651">
        <ele>338.5</ele>
        <time>2012-10-30T09:30:56Z</time>
      </trkpt>
      <trkpt lat="45.51141" lon="6.06651">
        <ele>338.5</ele>
        <time>2012-10-30T09:31:00Z</time>
      </trkpt>
      <trkpt lat="45.51141" lon="6.06651">
        <ele>338.5</ele>
        <time>2012-10-30T09:31:04Z</time>
      </trkpt>
      <trkpt lat="45.51141" lon="6.06651">
        <ele>338.5</ele>
        <time>2012-10-30T09:31:08Z</time>
      </trkpt>
      <trkpt lat="45.51141" lon="6.06651">
        <ele>338.5</ele>
        <time>2012-10-30T09:31:12Z</time>
      </trkpt>
      <trkpt lat="45.51141" lon="6.06651">
        <ele>338.5</ele>
        <time>2012-10-30T09:31:16Z</time>
      </trkpt>
      <trkpt lat="45.51142" lon="6.06652">
        <ele>338.5</ele>
        <time>2012-10-30T09:31:20Z</time>
      </trkpt>
      <trkpt lat="45.51144" lon="6.06655">
        <ele>339</ele>
        <time>2012-10-30T09:31:24Z</time>
      </trkpt>
      <trkpt lat="45.51146" lon="6.06658">
        <ele>339</ele>
        <time>2012-10-30T09:31:28Z</time>
      </trkpt>
      <trkpt lat="45.51147" lon="6.0666">
        <ele>339.5</ele>
        <time>2012-10-30T09:31:32Z</time>
      </trkpt>
      <trkpt lat="45.5115" lon="6.06664">
        <ele>340</ele>
        <time>2012-10-30T09:31:36Z</time>
      </trkpt>
      <trkpt lat="45.51155" lon="6.06668">
        <ele>340.4</ele>
        <time>2012-10-30T09:31:40Z</time>
      </trkpt>
      <trkpt lat="45.51159" lon="6.06672">
        <ele>341.4</ele>
        <time>2012-10-30T09:31:44Z</time>
      </trkpt>
      <trkpt lat="45.51165" lon="6.06675">
        <ele>342.4</ele>
        <time>2012-10-30T09:31:48Z</time>
      </trkpt>
      <trkpt lat="45.5117" lon="6.06677">
        <ele>341.9</ele>
        <time>2012-10-30T09:31:52Z</time>
      </trkpt>
      <trkpt lat="45.51176" lon="6.06677">
        <ele>342.4</ele>
        <time>2012-10-30T09:31:56Z</time>
      </trkpt>
      <trkpt lat="45.51182" lon="6.06677">
        <ele>342.4</ele>
        <time>2012-10-30T09:32:00Z</time>
      </trkpt>
      <trkpt lat="45.51187" lon="6.06676">
        <ele>342.4</ele>
        <time>2012-10-30T09:32:04Z</time>
      </trkpt>
      <trkpt lat="45.51193" lon="6.06675">
        <ele>342.8</ele>
        <time>2012-10-30T09:32:08Z</time>
      </trkpt>
      <trkpt lat="45.51199" lon="6.06673">
        <ele>342.4</ele>
        <time>2012-10-30T09:32:12Z</time>
      </trkpt>
      <trkpt lat="45.51205" lon="6.06672">
        <ele>342.8</ele>
        <time>2012-10-30T09:32:16Z</time>
      </trkpt>
      <trkpt lat="45.51211" lon="6.06671">
        <ele>342.4</ele>
        <time>2012-10-30T09:32:20Z</time>
      </trkpt>
      <trkpt lat="45.51216" lon="6.06672">
        <ele>342.8</ele>
        <time>2012-10-30T09:32:24Z</time>
      </trkpt>
      <trkpt lat="45.51222" lon="6.06676">
        <ele>343.3</ele>
        <time>2012-10-30T09:32:28Z</time>
      </trkpt>
      <trkpt lat="45.51227" lon="6.06682">
        <ele>342.8</ele>
        <time>2012-10-30T09:32:32Z</time>
      </trkpt>
      <trkpt lat="45.5123" lon="6.06687">
        <ele>342.8</ele>
        <time>2012-10-30T09:32:36Z</time>
      </trkpt>
      <trkpt lat="45.51233" lon="6.06695">
        <ele>342.8</ele>
        <time>2012-10-30T09:32:40Z</time>
      </trkpt>
      <trkpt lat="45.51233" lon="6.06703">
        <ele>342.4</ele>
        <time>2012-10-30T09:32:44Z</time>
      </trkpt>
      <trkpt lat="45.51234" lon="6.0671">
        <ele>342.8</ele>
        <time>2012-10-30T09:32:48Z</time>
      </trkpt>
      <trkpt lat="45.51236" lon="6.06717">
        <ele>343.3</ele>
        <time>2012-10-30T09:32:52Z</time>
      </trkpt>
      <trkpt lat="45.51238" lon="6.06723">
        <ele>343.8</ele>
        <time>2012-10-30T09:32:56Z</time>
      </trkpt>
      <trkpt lat="45.5124" lon="6.06731">
        <ele>344.3</ele>
        <time>2012-10-30T09:33:00Z</time>
      </trkpt>
      <trkpt lat="45.51242" lon="6.06737">
        <ele>345.3</ele>
        <time>2012-10-30T09:33:04Z</time>
      </trkpt>
      <trkpt lat="45.51245" lon="6.06744">
        <ele>345.7</ele>
        <time>2012-10-30T09:33:08Z</time>
      </trkpt>
      <trkpt lat="45.51248" lon="6.06752">
        <ele>346.2</ele>
        <time>2012-10-30T09:33:12Z</time>
      </trkpt>
      <trkpt lat="45.5125" lon="6.06759">
        <ele>347.7</ele>
        <time>2012-10-30T09:33:16Z</time>
      </trkpt>
      <trkpt lat="45.51253" lon="6.06765">
        <ele>348.1</ele>
        <time>2012-10-30T09:33:20Z</time>
      </trkpt>
      <trkpt lat="45.51256" lon="6.06771">
        <ele>348.6</ele>
        <time>2012-10-30T09:33:24Z</time>
      </trkpt>
      <trkpt lat="45.51259" lon="6.06778">
        <ele>349.1</ele>
        <time>2012-10-30T09:33:28Z</time>
      </trkpt>
      <trkpt lat="45.51261" lon="6.06784">
        <ele>349.6</ele>
        <time>2012-10-30T09:33:32Z</time>
      </trkpt>
      <trkpt lat="45.51264" lon="6.0679">
        <ele>351</ele>
        <time>2012-10-30T09:33:36Z</time>
      </trkpt>
      <trkpt lat="45.51266" lon="6.06796">
        <ele>352.5</ele>
        <time>2012-10-30T09:33:40Z</time>
      </trkpt>
      <trkpt lat="45.51269" lon="6.06802">
        <ele>353.4</ele>
        <time>2012-10-30T09:33:44Z</time>
      </trkpt>
      <trkpt lat="45.51272" lon="6.06807">
        <ele>354.9</ele>
        <time>2012-10-30T09:33:48Z</time>
      </trkpt>
      <trkpt lat="45.51276" lon="6.06812">
        <ele>356.3</ele>
        <time>2012-10-30T09:33:52Z</time>
      </trkpt>
      <trkpt lat="45.51279" lon="6.06817">
        <ele>357.3</ele>
        <time>2012-10-30T09:33:56Z</time>
      </trkpt>
      <trkpt lat="45.51283" lon="6.06823">
        <ele>358.7</ele>
        <time>2012-10-30T09:34:00Z</time>
      </trkpt>
      <trkpt lat="45.51286" lon="6.06828">
        <ele>360.2</ele>
        <time>2012-10-30T09:34:04Z</time>
      </trkpt>
      <trkpt lat="45.5129" lon="6.06832">
        <ele>361.1</ele>
        <time>2012-10-30T09:34:08Z</time>
      </trkpt>
      <trkpt lat="45.51294" lon="6.06837">
        <ele>362.1</ele>
        <time>2012-10-30T09:34:12Z</time>
      </trkpt>
      <trkpt lat="45.51296" lon="6.06839">
        <ele>362.6</ele>
        <time>2012-10-30T09:34:16Z</time>
      </trkpt>
      <trkpt lat="45.513" lon="6.06843">
        <ele>363</ele>
        <time>2012-10-30T09:34:20Z</time>
      </trkpt>
      <trkpt lat="45.51303" lon="6.06848">
        <ele>364</ele>
        <time>2012-10-30T09:34:24Z</time>
      </trkpt>
      <trkpt lat="45.51306" lon="6.06852">
        <ele>364</ele>
        <time>2012-10-30T09:34:28Z</time>
      </trkpt>
      <trkpt lat="45.5131" lon="6.06857">
        <ele>365</ele>
        <time>2012-10-30T09:34:32Z</time>
      </trkpt>
      <trkpt lat="45.51313" lon="6.06862">
        <ele>365.4</ele>
        <time>2012-10-30T09:34:36Z</time>
      </trkpt>
      <trkpt lat="45.51316" lon="6.06867">
        <ele>366.4</ele>
        <time>2012-10-30T09:34:40Z</time>
      </trkpt>
      <trkpt lat="45.51319" lon="6.06872">
        <ele>367.8</ele>
        <time>2012-10-30T09:34:44Z</time>
      </trkpt>
      <trkpt lat="45.51322" lon="6.06876">
        <ele>368.3</ele>
        <time>2012-10-30T09:34:48Z</time>
      </trkpt>
      <trkpt lat="45.51325" lon="6.06879">
        <ele>369.3</ele>
        <time>2012-10-30T09:34:52Z</time>
      </trkpt>
      <trkpt lat="45.51326" lon="6.0688">
        <ele>369.3</ele>
        <time>2012-10-30T09:34:56Z</time>
      </trkpt>
      <trkpt lat="45.51326" lon="6.0688">
        <ele>369.3</ele>
        <time>2012-10-30T09:35:00Z</time>
      </trkpt>
      <trkpt lat="45.51326" lon="6.0688">
        <ele>369.3</ele>
        <time>2012-10-30T09:35:04Z</time>
      </trkpt>
      <trkpt lat="45.51326" lon="6.06881">
        <ele>369.8</ele>
        <time>2012-10-30T09:35:08Z</time>
      </trkpt>
      <trkpt lat="45.51326" lon="6.06881">
        <ele>369.8</ele>
        <time>2012-10-30T09:35:12Z</time>
      </trkpt>
      <trkpt lat="45.51326" lon="6.06881">
        <ele>369.8</ele>
        <time>2012-10-30T09:35:16Z</time>
      </trkpt>
      <trkpt lat="45.51326" lon="6.06881">
        <ele>369.8</ele>
        <time>2012-10-30T09:35:20Z</time>
      </trkpt>
      <trkpt lat="45.5133" lon="6.06879">
        <ele>370.2</ele>
        <time>2012-10-30T09:35:24Z</time>
      </trkpt>
      <trkpt lat="45.51332" lon="6.06875">
        <ele>371.2</ele>
        <time>2012-10-30T09:35:28Z</time>
      </trkpt>
      <trkpt lat="45.51334" lon="6.06869">
        <ele>371.7</ele>
        <time>2012-10-30T09:35:32Z</time>
      </trkpt>
      <trkpt lat="45.51333" lon="6.06862">
        <ele>372.2</ele>
        <time>2012-10-30T09:35:36Z</time>
      </trkpt>
      <trkpt lat="45.51333" lon="6.06854">
        <ele>372.6</ele>
        <time>2012-10-30T09:35:40Z</time>
      </trkpt>
      <trkpt lat="45.51333" lon="6.06847">
        <ele>373.1</ele>
        <time>2012-10-30T09:35:44Z</time>
      </trkpt>
      <trkpt lat="45.51334" lon="6.06839">
        <ele>373.6</ele>
        <time>2012-10-30T09:35:48Z</time>
      </trkpt>
      <trkpt lat="45.51335" lon="6.06832">
        <ele>374.1</ele>
        <time>2012-10-30T09:35:52Z</time>
      </trkpt>
      <trkpt lat="45.51339" lon="6.06827">
        <ele>376</ele>
        <time>2012-10-30T09:35:56Z</time>
      </trkpt>
      <trkpt lat="45.51343" lon="6.06826">
        <ele>377.5</ele>
        <time>2012-10-30T09:36:00Z</time>
      </trkpt>
      <trkpt lat="45.51348" lon="6.0683">
        <ele>378.4</ele>
        <time>2012-10-30T09:36:04Z</time>
      </trkpt>
      <trkpt lat="45.51352" lon="6.06834">
        <ele>379.4</ele>
        <time>2012-10-30T09:36:08Z</time>
      </trkpt>
      <trkpt lat="45.51356" lon="6.06839">
        <ele>379.9</ele>
        <time>2012-10-30T09:36:12Z</time>
      </trkpt>
      <trkpt lat="45.51361" lon="6.06843">
        <ele>380.8</ele>
        <time>2012-10-30T09:36:16Z</time>
      </trkpt>
      <trkpt lat="45.51365" lon="6.06847">
        <ele>381.3</ele>
        <time>2012-10-30T09:36:20Z</time>
      </trkpt>
      <trkpt lat="45.51369" lon="6.06852">
        <ele>382.3</ele>
        <time>2012-10-30T09:36:24Z</time>
      </trkpt>
      <trkpt lat="45.51374" lon="6.06857">
        <ele>382.7</ele>
        <time>2012-10-30T09:36:28Z</time>
      </trkpt>
      <trkpt lat="45.51378" lon="6.06861">
        <ele>383.2</ele>
        <time>2012-10-30T09:36:32Z</time>
      </trkpt>
      <trkpt lat="45.51384" lon="6.06865">
        <ele>383.7</ele>
        <time>2012-10-30T09:36:36Z</time>
      </trkpt>
      <trkpt lat="45.51388" lon="6.06869">
        <ele>384.7</ele>
        <time>2012-10-30T09:36:40Z</time>
      </trkpt>
      <trkpt lat="45.51393" lon="6.06874">
        <ele>385.6</ele>
        <time>2012-10-30T09:36:44Z</time>
      </trkpt>
      <trkpt lat="45.51397" lon="6.06877">
        <ele>386.6</ele>
        <time>2012-10-30T09:36:48Z</time>
      </trkpt>
      <trkpt lat="45.51402" lon="6.06882">
        <ele>388</ele>
        <time>2012-10-30T09:36:52Z</time>
      </trkpt>
      <trkpt lat="45.51405" lon="6.06889">
        <ele>389</ele>
        <time>2012-10-30T09:36:56Z</time>
      </trkpt>
      <trkpt lat="45.5141" lon="6.06893">
        <ele>390</ele>
        <time>2012-10-30T09:37:00Z</time>
      </trkpt>
      <trkpt lat="45.51414" lon="6.06898">
        <ele>391.4</ele>
        <time>2012-10-30T09:37:04Z</time>
      </trkpt>
      <trkpt lat="45.51417" lon="6.06903">
        <ele>392.4</ele>
        <time>2012-10-30T09:37:08Z</time>
      </trkpt>
      <trkpt lat="45.5142" lon="6.06908">
        <ele>393.3</ele>
        <time>2012-10-30T09:37:12Z</time>
      </trkpt>
      <trkpt lat="45.5142" lon="6.06908">
        <ele>393.3</ele>
        <time>2012-10-30T09:37:16Z</time>
      </trkpt>
      <trkpt lat="45.5142" lon="6.06908">
        <ele>393.3</ele>
        <time>2012-10-30T09:37:20Z</time>
      </trkpt>
      <trkpt lat="45.5142" lon="6.06908">
        <ele>393.3</ele>
        <time>2012-10-30T09:37:24Z</time>
      </trkpt>
      <trkpt lat="45.5142" lon="6.06908">
        <ele>393.3</ele>
        <time>2012-10-30T09:37:28Z</time>
      </trkpt>
      <trkpt lat="45.51423" lon="6.06912">
        <ele>393.3</ele>
        <time>2012-10-30T09:37:32Z</time>
      </trkpt>
      <trkpt lat="45.51426" lon="6.06917">
        <ele>393.8</ele>
        <time>2012-10-30T09:37:36Z</time>
      </trkpt>
      <trkpt lat="45.51427" lon="6.06922">
        <ele>393.8</ele>
        <time>2012-10-30T09:37:40Z</time>
      </trkpt>
      <trkpt lat="45.51428" lon="6.06923">
        <ele>394.3</ele>
        <time>2012-10-30T09:37:44Z</time>
      </trkpt>
      <trkpt lat="45.51432" lon="6.06927">
        <ele>394.8</ele>
        <time>2012-10-30T09:37:48Z</time>
      </trkpt>
      <trkpt lat="45.51435" lon="6.06931">
        <ele>395.2</ele>
        <time>2012-10-30T09:37:52Z</time>
      </trkpt>
      <trkpt lat="45.51438" lon="6.06937">
        <ele>396.2</ele>
        <time>2012-10-30T09:37:56Z</time>
      </trkpt>
      <trkpt lat="45.51441" lon="6.06941">
        <ele>396.7</ele>
        <time>2012-10-30T09:38:00Z</time>
      </trkpt>
      <trkpt lat="45.51444" lon="6.06946">
        <ele>397.6</ele>
        <time>2012-10-30T09:38:04Z</time>
      </trkpt>
      <trkpt lat="45.51447" lon="6.0695">
        <ele>398.1</ele>
        <time>2012-10-30T09:38:08Z</time>
      </trkpt>
      <trkpt lat="45.5145" lon="6.06955">
        <ele>398.6</ele>
        <time>2012-10-30T09:38:12Z</time>
      </trkpt>
      <trkpt lat="45.51454" lon="6.06959">
        <ele>399.6</ele>
        <time>2012-10-30T09:38:16Z</time>
      </trkpt>
      <trkpt lat="45.51458" lon="6.06962">
        <ele>400.5</ele>
        <time>2012-10-30T09:38:20Z</time>
      </trkpt>
      <trkpt lat="45.51462" lon="6.06965">
        <ele>401.5</ele>
        <time>2012-10-30T09:38:24Z</time>
      </trkpt>
      <trkpt lat="45.51465" lon="6.06968">
        <ele>402.9</ele>
        <time>2012-10-30T09:38:28Z</time>
      </trkpt>
      <trkpt lat="45.51469" lon="6.06972">
        <ele>403.9</ele>
        <time>2012-10-30T09:38:32Z</time>
      </trkpt>
      <trkpt lat="45.51472" lon="6.06975">
        <ele>404.9</ele>
        <time>2012-10-30T09:38:36Z</time>
      </trkpt>
      <trkpt lat="45.51476" lon="6.06978">
        <ele>406.3</ele>
        <time>2012-10-30T09:38:40Z</time>
      </trkpt>
      <trkpt lat="45.5148" lon="6.06981">
        <ele>408.2</ele>
        <time>2012-10-30T09:38:44Z</time>
      </trkpt>
      <trkpt lat="45.51483" lon="6.06984">
        <ele>409.2</ele>
        <time>2012-10-30T09:38:48Z</time>
      </trkpt>
      <trkpt lat="45.51486" lon="6.06987">
        <ele>410.1</ele>
        <time>2012-10-30T09:38:52Z</time>
      </trkpt>
      <trkpt lat="45.5149" lon="6.06989">
        <ele>411.1</ele>
        <time>2012-10-30T09:38:56Z</time>
      </trkpt>
      <trkpt lat="45.51493" lon="6.06992">
        <ele>412.1</ele>
        <time>2012-10-30T09:39:00Z</time>
      </trkpt>
      <trkpt lat="45.51496" lon="6.06995">
        <ele>413</ele>
        <time>2012-10-30T09:39:04Z</time>
      </trkpt>
      <trkpt lat="45.51499" lon="6.06997">
        <ele>413.5</ele>
        <time>2012-10-30T09:39:08Z</time>
      </trkpt>
      <trkpt lat="45.51503" lon="6.06999">
        <ele>414.5</ele>
        <time>2012-10-30T09:39:12Z</time>
      </trkpt>
      <trkpt lat="45.51506" lon="6.07">
        <ele>415.4</ele>
        <time>2012-10-30T09:39:16Z</time>
      </trkpt>
      <trkpt lat="45.51509" lon="6.07">
        <ele>415.9</ele>
        <time>2012-10-30T09:39:20Z</time>
      </trkpt>
      <trkpt lat="45.51513" lon="6.07001">
        <ele>416.9</ele>
        <time>2012-10-30T09:39:24Z</time>
      </trkpt>
      <trkpt lat="45.51516" lon="6.07001">
        <ele>417.8</ele>
        <time>2012-10-30T09:39:28Z</time>
      </trkpt>
      <trkpt lat="45.5152" lon="6.07001">
        <ele>418.3</ele>
        <time>2012-10-30T09:39:32Z</time>
      </trkpt>
      <trkpt lat="45.51522" lon="6.07002">
        <ele>419.3</ele>
        <time>2012-10-30T09:39:36Z</time>
      </trkpt>
      <trkpt lat="45.51526" lon="6.07005">
        <ele>420.2</ele>
        <time>2012-10-30T09:39:40Z</time>
      </trkpt>
      <trkpt lat="45.51529" lon="6.07008">
        <ele>420.7</ele>
        <time>2012-10-30T09:39:44Z</time>
      </trkpt>
      <trkpt lat="45.51531" lon="6.07012">
        <ele>421.7</ele>
        <time>2012-10-30T09:39:48Z</time>
      </trkpt>
      <trkpt lat="45.51534" lon="6.07016">
        <ele>422.6</ele>
        <time>2012-10-30T09:39:52Z</time>
      </trkpt>
      <trkpt lat="45.51537" lon="6.07021">
        <ele>423.6</ele>
        <time>2012-10-30T09:39:56Z</time>
      </trkpt>
      <trkpt lat="45.5154" lon="6.07025">
        <ele>424.1</ele>
        <time>2012-10-30T09:40:00Z</time>
      </trkpt>
      <trkpt lat="45.51543" lon="6.0703">
        <ele>425</ele>
        <time>2012-10-30T09:40:04Z</time>
      </trkpt>
      <trkpt lat="45.51546" lon="6.07034">
        <ele>426</ele>
        <time>2012-10-30T09:40:08Z</time>
      </trkpt>
      <trkpt lat="45.51549" lon="6.07038">
        <ele>427</ele>
        <time>2012-10-30T09:40:12Z</time>
      </trkpt>
      <trkpt lat="45.51552" lon="6.07041">
        <ele>427.9</ele>
        <time>2012-10-30T09:40:16Z</time>
      </trkpt>
      <trkpt lat="45.51556" lon="6.07046">
        <ele>428.4</ele>
        <time>2012-10-30T09:40:20Z</time>
      </trkpt>
      <trkpt lat="45.5156" lon="6.0705">
        <ele>428.9</ele>
        <time>2012-10-30T09:40:24Z</time>
      </trkpt>
      <trkpt lat="45.51563" lon="6.07053">
        <ele>429.8</ele>
        <time>2012-10-30T09:40:28Z</time>
      </trkpt>
      <trkpt lat="45.51566" lon="6.07055">
        <ele>430.3</ele>
        <time>2012-10-30T09:40:32Z</time>
      </trkpt>
      <trkpt lat="45.51569" lon="6.07058">
        <ele>431.8</ele>
        <time>2012-10-30T09:40:36Z</time>
      </trkpt>
      <trkpt lat="45.51571" lon="6.07061">
        <ele>432.7</ele>
        <time>2012-10-30T09:40:40Z</time>
      </trkpt>
      <trkpt lat="45.51575" lon="6.07064">
        <ele>433.7</ele>
        <time>2012-10-30T09:40:44Z</time>
      </trkpt>
      <trkpt lat="45.51575" lon="6.07064">
        <ele>433.7</ele>
        <time>2012-10-30T09:40:48Z</time>
      </trkpt>
      <trkpt lat="45.51575" lon="6.07064">
        <ele>433.7</ele>
        <time>2012-10-30T09:40:52Z</time>
      </trkpt>
      <trkpt lat="45.51578" lon="6.07066">
        <ele>433.7</ele>
        <time>2012-10-30T09:40:56Z</time>
      </trkpt>
      <trkpt lat="45.51581" lon="6.07068">
        <ele>433.7</ele>
        <time>2012-10-30T09:41:00Z</time>
      </trkpt>
      <trkpt lat="45.51584" lon="6.0707">
        <ele>434.2</ele>
        <time>2012-10-30T09:41:04Z</time>
      </trkpt>
      <trkpt lat="45.51588" lon="6.07071">
        <ele>435.1</ele>
        <time>2012-10-30T09:41:08Z</time>
      </trkpt>
      <trkpt lat="45.51592" lon="6.07072">
        <ele>436.1</ele>
        <time>2012-10-30T09:41:12Z</time>
      </trkpt>
      <trkpt lat="45.51596" lon="6.07073">
        <ele>437.1</ele>
        <time>2012-10-30T09:41:16Z</time>
      </trkpt>
      <trkpt lat="45.516" lon="6.07075">
        <ele>438</ele>
        <time>2012-10-30T09:41:20Z</time>
      </trkpt>
      <trkpt lat="45.51603" lon="6.07077">
        <ele>439</ele>
        <time>2012-10-30T09:41:24Z</time>
      </trkpt>
      <trkpt lat="45.51606" lon="6.07079">
        <ele>440.4</ele>
        <time>2012-10-30T09:41:28Z</time>
      </trkpt>
      <trkpt lat="45.51609" lon="6.07081">
        <ele>441.9</ele>
        <time>2012-10-30T09:41:32Z</time>
      </trkpt>
      <trkpt lat="45.51613" lon="6.07081">
        <ele>443.3</ele>
        <time>2012-10-30T09:41:36Z</time>
      </trkpt>
      <trkpt lat="45.51617" lon="6.07082">
        <ele>444.3</ele>
        <time>2012-10-30T09:41:40Z</time>
      </trkpt>
      <trkpt lat="45.5162" lon="6.07083">
        <ele>445.7</ele>
        <time>2012-10-30T09:41:44Z</time>
      </trkpt>
      <trkpt lat="45.51624" lon="6.07084">
        <ele>446.7</ele>
        <time>2012-10-30T09:41:48Z</time>
      </trkpt>
      <trkpt lat="45.51628" lon="6.07085">
        <ele>448.1</ele>
        <time>2012-10-30T09:41:52Z</time>
      </trkpt>
      <trkpt lat="45.51631" lon="6.07086">
        <ele>448.6</ele>
        <time>2012-10-30T09:41:56Z</time>
      </trkpt>
      <trkpt lat="45.51634" lon="6.07086">
        <ele>450</ele>
        <time>2012-10-30T09:42:00Z</time>
      </trkpt>
      <trkpt lat="45.51637" lon="6.07087">
        <ele>451.5</ele>
        <time>2012-10-30T09:42:04Z</time>
      </trkpt>
      <trkpt lat="45.5164" lon="6.07088">
        <ele>452.4</ele>
        <time>2012-10-30T09:42:08Z</time>
      </trkpt>
      <trkpt lat="45.51643" lon="6.0709">
        <ele>453.4</ele>
        <time>2012-10-30T09:42:12Z</time>
      </trkpt>
      <trkpt lat="45.51646" lon="6.07092">
        <ele>454.8</ele>
        <time>2012-10-30T09:42:16Z</time>
      </trkpt>
      <trkpt lat="45.51649" lon="6.07094">
        <ele>455.8</ele>
        <time>2012-10-30T09:42:20Z</time>
      </trkpt>
      <trkpt lat="45.51651" lon="6.07096">
        <ele>456.8</ele>
        <time>2012-10-30T09:42:24Z</time>
      </trkpt>
      <trkpt lat="45.51654" lon="6.07097">
        <ele>457.7</ele>
        <time>2012-10-30T09:42:28Z</time>
      </trkpt>
      <trkpt lat="45.51657" lon="6.07099">
        <ele>458.7</ele>
        <time>2012-10-30T09:42:32Z</time>
      </trkpt>
      <trkpt lat="45.5166" lon="6.07102">
        <ele>459.6</ele>
        <time>2012-10-30T09:42:36Z</time>
      </trkpt>
      <trkpt lat="45.51661" lon="6.07102">
        <ele>460.6</ele>
        <time>2012-10-30T09:42:40Z</time>
      </trkpt>
      <trkpt lat="45.51661" lon="6.07102">
        <ele>460.6</ele>
        <time>2012-10-30T09:42:44Z</time>
      </trkpt>
      <trkpt lat="45.51661" lon="6.07102">
        <ele>460.6</ele>
        <time>2012-10-30T09:42:48Z</time>
      </trkpt>
      <trkpt lat="45.51661" lon="6.07102">
        <ele>460.6</ele>
        <time>2012-10-30T09:42:52Z</time>
      </trkpt>
      <trkpt lat="45.51661" lon="6.07102">
        <ele>460.6</ele>
        <time>2012-10-30T09:42:56Z</time>
      </trkpt>
      <trkpt lat="45.51661" lon="6.07102">
        <ele>460.6</ele>
        <time>2012-10-30T09:43:00Z</time>
      </trkpt>
      <trkpt lat="45.51662" lon="6.07103">
        <ele>461.1</ele>
        <time>2012-10-30T09:43:04Z</time>
      </trkpt>
      <trkpt lat="45.51664" lon="6.07105">
        <ele>461.6</ele>
        <time>2012-10-30T09:43:08Z</time>
      </trkpt>
      <trkpt lat="45.51668" lon="6.07107">
        <ele>462.5</ele>
        <time>2012-10-30T09:43:12Z</time>
      </trkpt>
      <trkpt lat="45.51672" lon="6.07111">
        <ele>462.5</ele>
        <time>2012-10-30T09:43:16Z</time>
      </trkpt>
      <trkpt lat="45.51676" lon="6.07114">
        <ele>462.1</ele>
        <time>2012-10-30T09:43:20Z</time>
      </trkpt>
      <trkpt lat="45.5168" lon="6.07119">
        <ele>462.1</ele>
        <time>2012-10-30T09:43:24Z</time>
      </trkpt>
      <trkpt lat="45.51684" lon="6.07121">
        <ele>461.6</ele>
        <time>2012-10-30T09:43:28Z</time>
      </trkpt>
      <trkpt lat="45.51688" lon="6.07125">
        <ele>461.6</ele>
        <time>2012-10-30T09:43:32Z</time>
      </trkpt>
      <trkpt lat="45.51693" lon="6.07127">
        <ele>461.6</ele>
        <time>2012-10-30T09:43:36Z</time>
      </trkpt>
      <trkpt lat="45.51697" lon="6.07132">
        <ele>462.1</ele>
        <time>2012-10-30T09:43:40Z</time>
      </trkpt>
      <trkpt lat="45.51701" lon="6.07135">
        <ele>462.1</ele>
        <time>2012-10-30T09:43:44Z</time>
      </trkpt>
      <trkpt lat="45.51705" lon="6.07139">
        <ele>462.1</ele>
        <time>2012-10-30T09:43:48Z</time>
      </trkpt>
      <trkpt lat="45.51708" lon="6.07143">
        <ele>462.1</ele>
        <time>2012-10-30T09:43:52Z</time>
      </trkpt>
      <trkpt lat="45.5171" lon="6.07147">
        <ele>462.1</ele>
        <time>2012-10-30T09:43:56Z</time>
      </trkpt>
      <trkpt lat="45.51713" lon="6.07153">
        <ele>462.1</ele>
        <time>2012-10-30T09:44:00Z</time>
      </trkpt>
      <trkpt lat="45.51713" lon="6.07159">
        <ele>463</ele>
        <time>2012-10-30T09:44:04Z</time>
      </trkpt>
      <trkpt lat="45.51714" lon="6.07166">
        <ele>464</ele>
        <time>2012-10-30T09:44:08Z</time>
      </trkpt>
      <trkpt lat="45.51717" lon="6.07172">
        <ele>464.9</ele>
        <time>2012-10-30T09:44:12Z</time>
      </trkpt>
      <trkpt lat="45.51719" lon="6.07177">
        <ele>465.9</ele>
        <time>2012-10-30T09:44:16Z</time>
      </trkpt>
      <trkpt lat="45.51721" lon="6.07182">
        <ele>466.4</ele>
        <time>2012-10-30T09:44:20Z</time>
      </trkpt>
      <trkpt lat="45.51724" lon="6.07187">
        <ele>467.3</ele>
        <time>2012-10-30T09:44:24Z</time>
      </trkpt>
      <trkpt lat="45.51727" lon="6.07192">
        <ele>468.3</ele>
        <time>2012-10-30T09:44:28Z</time>
      </trkpt>
      <trkpt lat="45.51731" lon="6.07194">
        <ele>469.7</ele>
        <time>2012-10-30T09:44:32Z</time>
      </trkpt>
      <trkpt lat="45.51735" lon="6.07197">
        <ele>470.2</ele>
        <time>2012-10-30T09:44:36Z</time>
      </trkpt>
      <trkpt lat="45.51739" lon="6.072">
        <ele>471.2</ele>
        <time>2012-10-30T09:44:40Z</time>
      </trkpt>
      <trkpt lat="45.51743" lon="6.07205">
        <ele>472.1</ele>
        <time>2012-10-30T09:44:44Z</time>
      </trkpt>
      <trkpt lat="45.51746" lon="6.07209">
        <ele>471.7</ele>
        <time>2012-10-30T09:44:48Z</time>
      </trkpt>
      <trkpt lat="45.5175" lon="6.07214">
        <ele>470.7</ele>
        <time>2012-10-30T09:44:52Z</time>
      </trkpt>
      <trkpt lat="45.51753" lon="6.07219">
        <ele>469.7</ele>
        <time>2012-10-30T09:44:56Z</time>
      </trkpt>
      <trkpt lat="45.51758" lon="6.07224">
        <ele>469.7</ele>
        <time>2012-10-30T09:45:00Z</time>
      </trkpt>
      <trkpt lat="45.51762" lon="6.07229">
        <ele>470.2</ele>
        <time>2012-10-30T09:45:04Z</time>
      </trkpt>
      <trkpt lat="45.51766" lon="6.07233">
        <ele>471.2</ele>
        <time>2012-10-30T09:45:08Z</time>
      </trkpt>
      <trkpt lat="45.5177" lon="6.07237">
        <ele>472.6</ele>
        <time>2012-10-30T09:45:12Z</time>
      </trkpt>
      <trkpt lat="45.51774" lon="6.07242">
        <ele>473.1</ele>
        <time>2012-10-30T09:45:16Z</time>
      </trkpt>
      <trkpt lat="45.5178" lon="6.07246">
        <ele>473.6</ele>
        <time>2012-10-30T09:45:20Z</time>
      </trkpt>
      <trkpt lat="45.51783" lon="6.07251">
        <ele>474.5</ele>
        <time>2012-10-30T09:45:24Z</time>
      </trkpt>
      <trkpt lat="45.51787" lon="6.07254">
        <ele>475</ele>
        <time>2012-10-30T09:45:28Z</time>
      </trkpt>
      <trkpt lat="45.51791" lon="6.07256">
        <ele>474.5</ele>
        <time>2012-10-30T09:45:32Z</time>
      </trkpt>
      <trkpt lat="45.51794" lon="6.0726">
        <ele>474.1</ele>
        <time>2012-10-30T09:45:36Z</time>
      </trkpt>
      <trkpt lat="45.51798" lon="6.07264">
        <ele>473.1</ele>
        <time>2012-10-30T09:45:40Z</time>
      </trkpt>
      <trkpt lat="45.51802" lon="6.07268">
        <ele>472.1</ele>
        <time>2012-10-30T09:45:44Z</time>
      </trkpt>
      <trkpt lat="45.51806" lon="6.07273">
        <ele>471.7</ele>
        <time>2012-10-30T09:45:48Z</time>
      </trkpt>
      <trkpt lat="45.51811" lon="6.07279">
        <ele>470.7</ele>
        <time>2012-10-30T09:45:52Z</time>
      </trkpt>
      <trkpt lat="45.51814" lon="6.07286">
        <ele>469.3</ele>
        <time>2012-10-30T09:45:56Z</time>
      </trkpt>
      <trkpt lat="45.51819" lon="6.07293">
        <ele>468.8</ele>
        <time>2012-10-30T09:46:00Z</time>
      </trkpt>
      <trkpt lat="45.51822" lon="6.07299">
        <ele>467.8</ele>
        <time>2012-10-30T09:46:04Z</time>
      </trkpt>
      <trkpt lat="45.51826" lon="6.07306">
        <ele>467.8</ele>
        <time>2012-10-30T09:46:08Z</time>
      </trkpt>
      <trkpt lat="45.51829" lon="6.07312">
        <ele>466.9</ele>
        <time>2012-10-30T09:46:12Z</time>
      </trkpt>
      <trkpt lat="45.51833" lon="6.07318">
        <ele>465.9</ele>
        <time>2012-10-30T09:46:16Z</time>
      </trkpt>
      <trkpt lat="45.51838" lon="6.07322">
        <ele>465.4</ele>
        <time>2012-10-30T09:46:20Z</time>
      </trkpt>
      <trkpt lat="45.51843" lon="6.07325">
        <ele>465.4</ele>
        <time>2012-10-30T09:46:24Z</time>
      </trkpt>
      <trkpt lat="45.51848" lon="6.07329">
        <ele>464.9</ele>
        <time>2012-10-30T09:46:28Z</time>
      </trkpt>
      <trkpt lat="45.51853" lon="6.07333">
        <ele>465.4</ele>
        <time>2012-10-30T09:46:32Z</time>
      </trkpt>
      <trkpt lat="45.51858" lon="6.07337">
        <ele>466.4</ele>
        <time>2012-10-30T09:46:36Z</time>
      </trkpt>
      <trkpt lat="45.51863" lon="6.07342">
        <ele>466.9</ele>
        <time>2012-10-30T09:46:40Z</time>
      </trkpt>
      <trkpt lat="45.51866" lon="6.07344">
        <ele>467.8</ele>
        <time>2012-10-30T09:46:44Z</time>
      </trkpt>
      <trkpt lat="45.5187" lon="6.07348">
        <ele>468.3</ele>
        <time>2012-10-30T09:46:48Z</time>
      </trkpt>
      <trkpt lat="45.51874" lon="6.07352">
        <ele>468.8</ele>
        <time>2012-10-30T09:46:52Z</time>
      </trkpt>
      <trkpt lat="45.51878" lon="6.07356">
        <ele>469.3</ele>
        <time>2012-10-30T09:46:56Z</time>
      </trkpt>
      <trkpt lat="45.51882" lon="6.0736">
        <ele>468.3</ele>
        <time>2012-10-30T09:47:00Z</time>
      </trkpt>
      <trkpt lat="45.51886" lon="6.07363">
        <ele>467.8</ele>
        <time>2012-10-30T09:47:04Z</time>
      </trkpt>
      <trkpt lat="45.51892" lon="6.07366">
        <ele>467.8</ele>
        <time>2012-10-30T09:47:08Z</time>
      </trkpt>
      <trkpt lat="45.51897" lon="6.07372">
        <ele>467.3</ele>
        <time>2012-10-30T09:47:12Z</time>
      </trkpt>
      <trkpt lat="45.51903" lon="6.07377">
        <ele>467.8</ele>
        <time>2012-10-30T09:47:16Z</time>
      </trkpt>
      <trkpt lat="45.51908" lon="6.0738">
        <ele>468.8</ele>
        <time>2012-10-30T09:47:20Z</time>
      </trkpt>
      <trkpt lat="45.51911" lon="6.07384">
        <ele>469.7</ele>
        <time>2012-10-30T09:47:24Z</time>
      </trkpt>
      <trkpt lat="45.51915" lon="6.07389">
        <ele>470.7</ele>
        <time>2012-10-30T09:47:28Z</time>
      </trkpt>
      <trkpt lat="45.51919" lon="6.07393">
        <ele>471.7</ele>
        <time>2012-10-30T09:47:32Z</time>
      </trkpt>
      <trkpt lat="45.51923" lon="6.07396">
        <ele>472.1</ele>
        <time>2012-10-30T09:47:36Z</time>
      </trkpt>
      <trkpt lat="45.51927" lon="6.07398">
        <ele>473.1</ele>
        <time>2012-10-30T09:47:40Z</time>
      </trkpt>
      <trkpt lat="45.51931" lon="6.07402">
        <ele>473.6</ele>
        <time>2012-10-30T09:47:44Z</time>
      </trkpt>
      <trkpt lat="45.51934" lon="6.07405">
        <ele>474.5</ele>
        <time>2012-10-30T09:47:48Z</time>
      </trkpt>
      <trkpt lat="45.51938" lon="6.07409">
        <ele>476.5</ele>
        <time>2012-10-30T09:47:52Z</time>
      </trkpt>
      <trkpt lat="45.51941" lon="6.07412">
        <ele>478.9</ele>
        <time>2012-10-30T09:47:56Z</time>
      </trkpt>
      <trkpt lat="45.51945" lon="6.07415">
        <ele>480.8</ele>
        <time>2012-10-30T09:48:00Z</time>
      </trkpt>
      <trkpt lat="45.51948" lon="6.07417">
        <ele>483.7</ele>
        <time>2012-10-30T09:48:04Z</time>
      </trkpt>
      <trkpt lat="45.51949" lon="6.07418">
        <ele>486.1</ele>
        <time>2012-10-30T09:48:08Z</time>
      </trkpt>
      <trkpt lat="45.51951" lon="6.07419">
        <ele>487.5</ele>
        <time>2012-10-30T09:48:12Z</time>
      </trkpt>
      <trkpt lat="45.51952" lon="6.0742">
        <ele>488.5</ele>
        <time>2012-10-30T09:48:16Z</time>
      </trkpt>
      <trkpt lat="45.51952" lon="6.0742">
        <ele>488.5</ele>
        <time>2012-10-30T09:48:20Z</time>
      </trkpt>
      <trkpt lat="45.51955" lon="6.07422">
        <ele>489.4</ele>
        <time>2012-10-30T09:48:24Z</time>
      </trkpt>
      <trkpt lat="45.51958" lon="6.07423">
        <ele>489.9</ele>
        <time>2012-10-30T09:48:28Z</time>
      </trkpt>
      <trkpt lat="45.51961" lon="6.07424">
        <ele>490.9</ele>
        <time>2012-10-30T09:48:32Z</time>
      </trkpt>
      <trkpt lat="45.51964" lon="6.07426">
        <ele>492.8</ele>
        <time>2012-10-30T09:48:36Z</time>
      </trkpt>
      <trkpt lat="45.51966" lon="6.07429">
        <ele>494.3</ele>
        <time>2012-10-30T09:48:40Z</time>
      </trkpt>
      <trkpt lat="45.51969" lon="6.0743">
        <ele>495.7</ele>
        <time>2012-10-30T09:48:44Z</time>
      </trkpt>
      <trkpt lat="45.51973" lon="6.07433">
        <ele>497.1</ele>
        <time>2012-10-30T09:48:48Z</time>
      </trkpt>
      <trkpt lat="45.51976" lon="6.07434">
        <ele>498.6</ele>
        <time>2012-10-30T09:48:52Z</time>
      </trkpt>
      <trkpt lat="45.51978" lon="6.07435">
        <ele>499.5</ele>
        <time>2012-10-30T09:48:56Z</time>
      </trkpt>
      <trkpt lat="45.51979" lon="6.07435">
        <ele>500</ele>
        <time>2012-10-30T09:49:00Z</time>
      </trkpt>
      <trkpt lat="45.51979" lon="6.07435">
        <ele>500</ele>
        <time>2012-10-30T09:49:04Z</time>
      </trkpt>
      <trkpt lat="45.51979" lon="6.07435">
        <ele>500</ele>
        <time>2012-10-30T09:49:08Z</time>
      </trkpt>
      <trkpt lat="45.51979" lon="6.07435">
        <ele>500</ele>
        <time>2012-10-30T09:49:12Z</time>
      </trkpt>
      <trkpt lat="45.51979" lon="6.07435">
        <ele>500</ele>
        <time>2012-10-30T09:49:16Z</time>
      </trkpt>
      <trkpt lat="45.51979" lon="6.07435">
        <ele>500</ele>
        <time>2012-10-30T09:49:20Z</time>
      </trkpt>
      <trkpt lat="45.51979" lon="6.07435">
        <ele>500</ele>
        <time>2012-10-30T09:49:24Z</time>
      </trkpt>
      <trkpt lat="45.51979" lon="6.07435">
        <ele>500</ele>
        <time>2012-10-30T09:49:28Z</time>
      </trkpt>
      <trkpt lat="45.51979" lon="6.07435">
        <ele>500</ele>
        <time>2012-10-30T09:49:32Z</time>
      </trkpt>
      <trkpt lat="45.51979" lon="6.07435">
        <ele>500</ele>
        <time>2012-10-30T09:49:36Z</time>
      </trkpt>
      <trkpt lat="45.51979" lon="6.07435">
        <ele>500</ele>
        <time>2012-10-30T09:49:40Z</time>
      </trkpt>
      <trkpt lat="45.51979" lon="6.07435">
        <ele>500</ele>
        <time>2012-10-30T09:49:44Z</time>
      </trkpt>
      <trkpt lat="45.51979" lon="6.07435">
        <ele>500</ele>
        <time>2012-10-30T09:49:48Z</time>
      </trkpt>
      <trkpt lat="45.51979" lon="6.07435">
        <ele>500</ele>
        <time>2012-10-30T09:49:52Z</time>
      </trkpt>
      <trkpt lat="45.51979" lon="6.07435">
        <ele>500</ele>
        <time>2012-10-30T09:49:56Z</time>
      </trkpt>
      <trkpt lat="45.51979" lon="6.07435">
        <ele>500</ele>
        <time>2012-10-30T09:50:00Z</time>
      </trkpt>
      <trkpt lat="45.51979" lon="6.07435">
        <ele>500</ele>
        <time>2012-10-30T09:50:04Z</time>
      </trkpt>
      <trkpt lat="45.51979" lon="6.07435">
        <ele>500</ele>
        <time>2012-10-30T09:50:08Z</time>
      </trkpt>
      <trkpt lat="45.51979" lon="6.07435">
        <ele>500</ele>
        <time>2012-10-30T09:50:12Z</time>
      </trkpt>
      <trkpt lat="45.51979" lon="6.07435">
        <ele>500</ele>
        <time>2012-10-30T09:50:16Z</time>
      </trkpt>
      <trkpt lat="45.51979" lon="6.07435">
        <ele>500</ele>
        <time>2012-10-30T09:50:20Z</time>
      </trkpt>
      <trkpt lat="45.51979" lon="6.07435">
        <ele>500</ele>
        <time>2012-10-30T09:50:24Z</time>
      </trkpt>
      <trkpt lat="45.51979" lon="6.07435">
        <ele>500</ele>
        <time>2012-10-30T09:50:28Z</time>
      </trkpt>
      <trkpt lat="45.51979" lon="6.07435">
        <ele>500</ele>
        <time>2012-10-30T09:50:32Z</time>
      </trkpt>
      <trkpt lat="45.51979" lon="6.07435">
        <ele>500</ele>
        <time>2012-10-30T09:50:36Z</time>
      </trkpt>
      <trkpt lat="45.5198" lon="6.07435">
        <ele>500.5</ele>
        <time>2012-10-30T09:50:40Z</time>
      </trkpt>
      <trkpt lat="45.51982" lon="6.07437">
        <ele>501</ele>
        <time>2012-10-30T09:50:44Z</time>
      </trkpt>
      <trkpt lat="45.51984" lon="6.07438">
        <ele>501.5</ele>
        <time>2012-10-30T09:50:48Z</time>
      </trkpt>
      <trkpt lat="45.51987" lon="6.0744">
        <ele>501.9</ele>
        <time>2012-10-30T09:50:52Z</time>
      </trkpt>
      <trkpt lat="45.51989" lon="6.07443">
        <ele>502.4</ele>
        <time>2012-10-30T09:50:56Z</time>
      </trkpt>
      <trkpt lat="45.51992" lon="6.07446">
        <ele>502.9</ele>
        <time>2012-10-30T09:51:00Z</time>
      </trkpt>
      <trkpt lat="45.51995" lon="6.07448">
        <ele>503.4</ele>
        <time>2012-10-30T09:51:04Z</time>
      </trkpt>
      <trkpt lat="45.51998" lon="6.07451">
        <ele>503.9</ele>
        <time>2012-10-30T09:51:08Z</time>
      </trkpt>
      <trkpt lat="45.52" lon="6.07452">
        <ele>504.8</ele>
        <time>2012-10-30T09:51:12Z</time>
      </trkpt>
      <trkpt lat="45.52003" lon="6.07453">
        <ele>506.3</ele>
        <time>2012-10-30T09:51:16Z</time>
      </trkpt>
      <trkpt lat="45.52005" lon="6.07455">
        <ele>507.2</ele>
        <time>2012-10-30T09:51:20Z</time>
      </trkpt>
      <trkpt lat="45.52008" lon="6.07457">
        <ele>508.2</ele>
        <time>2012-10-30T09:51:24Z</time>
      </trkpt>
      <trkpt lat="45.5201" lon="6.07459">
        <ele>508.7</ele>
        <time>2012-10-30T09:51:28Z</time>
      </trkpt>
      <trkpt lat="45.52013" lon="6.07461">
        <ele>509.6</ele>
        <time>2012-10-30T09:51:32Z</time>
      </trkpt>
      <trkpt lat="45.52015" lon="6.07465">
        <ele>510.6</ele>
        <time>2012-10-30T09:51:36Z</time>
      </trkpt>
      <trkpt lat="45.52018" lon="6.07468">
        <ele>511.1</ele>
        <time>2012-10-30T09:51:40Z</time>
      </trkpt>
      <trkpt lat="45.52021" lon="6.07471">
        <ele>511.6</ele>
        <time>2012-10-30T09:51:44Z</time>
      </trkpt>
      <trkpt lat="45.52024" lon="6.07474">
        <ele>512</ele>
        <time>2012-10-30T09:51:48Z</time>
      </trkpt>
      <trkpt lat="45.52026" lon="6.07477">
        <ele>513</ele>
        <time>2012-10-30T09:51:52Z</time>
      </trkpt>
      <trkpt lat="45.52029" lon="6.0748">
        <ele>514.4</ele>
        <time>2012-10-30T09:51:56Z</time>
      </trkpt>
      <trkpt lat="45.52032" lon="6.07481">
        <ele>515.4</ele>
        <time>2012-10-30T09:52:00Z</time>
      </trkpt>
      <trkpt lat="45.52035" lon="6.07484">
        <ele>516.8</ele>
        <time>2012-10-30T09:52:04Z</time>
      </trkpt>
      <trkpt lat="45.52037" lon="6.07486">
        <ele>518.8</ele>
        <time>2012-10-30T09:52:08Z</time>
      </trkpt>
      <trkpt lat="45.52039" lon="6.07487">
        <ele>520.2</ele>
        <time>2012-10-30T09:52:12Z</time>
      </trkpt>
      <trkpt lat="45.5204" lon="6.07488">
        <ele>521.7</ele>
        <time>2012-10-30T09:52:16Z</time>
      </trkpt>
      <trkpt lat="45.52043" lon="6.0749">
        <ele>523.1</ele>
        <time>2012-10-30T09:52:20Z</time>
      </trkpt>
      <trkpt lat="45.52045" lon="6.07491">
        <ele>524.1</ele>
        <time>2012-10-30T09:52:24Z</time>
      </trkpt>
      <trkpt lat="45.52047" lon="6.07493">
        <ele>525</ele>
        <time>2012-10-30T09:52:28Z</time>
      </trkpt>
      <trkpt lat="45.52051" lon="6.07495">
        <ele>526</ele>
        <time>2012-10-30T09:52:32Z</time>
      </trkpt>
      <trkpt lat="45.52054" lon="6.07499">
        <ele>526.9</ele>
        <time>2012-10-30T09:52:36Z</time>
      </trkpt>
      <trkpt lat="45.52056" lon="6.07504">
        <ele>527.9</ele>
        <time>2012-10-30T09:52:40Z</time>
      </trkpt>
      <trkpt lat="45.5206" lon="6.07509">
        <ele>528.4</ele>
        <time>2012-10-30T09:52:44Z</time>
      </trkpt>
      <trkpt lat="45.52064" lon="6.07515">
        <ele>528.4</ele>
        <time>2012-10-30T09:52:48Z</time>
      </trkpt>
      <trkpt lat="45.52068" lon="6.0752">
        <ele>528.4</ele>
        <time>2012-10-30T09:52:52Z</time>
      </trkpt>
      <trkpt lat="45.52071" lon="6.07526">
        <ele>528.9</ele>
        <time>2012-10-30T09:52:56Z</time>
      </trkpt>
      <trkpt lat="45.52073" lon="6.0753">
        <ele>529.3</ele>
        <time>2012-10-30T09:53:00Z</time>
      </trkpt>
      <trkpt lat="45.52078" lon="6.07535">
        <ele>529.3</ele>
        <time>2012-10-30T09:53:04Z</time>
      </trkpt>
      <trkpt lat="45.52082" lon="6.0754">
        <ele>528.9</ele>
        <time>2012-10-30T09:53:08Z</time>
      </trkpt>
      <trkpt lat="45.52086" lon="6.07546">
        <ele>527.9</ele>
        <time>2012-10-30T09:53:12Z</time>
      </trkpt>
      <trkpt lat="45.5209" lon="6.07552">
        <ele>527.4</ele>
        <time>2012-10-30T09:53:16Z</time>
      </trkpt>
      <trkpt lat="45.52094" lon="6.07557">
        <ele>526.5</ele>
        <time>2012-10-30T09:53:20Z</time>
      </trkpt>
      <trkpt lat="45.52099" lon="6.07562">
        <ele>525.5</ele>
        <time>2012-10-30T09:53:24Z</time>
      </trkpt>
      <trkpt lat="45.52102" lon="6.07567">
        <ele>524.5</ele>
        <time>2012-10-30T09:53:28Z</time>
      </trkpt>
      <trkpt lat="45.52103" lon="6.07575">
        <ele>523.6</ele>
        <time>2012-10-30T09:53:32Z</time>
      </trkpt>
      <trkpt lat="45.52107" lon="6.07581">
        <ele>522.6</ele>
        <time>2012-10-30T09:53:36Z</time>
      </trkpt>
      <trkpt lat="45.52111" lon="6.07585">
        <ele>521.7</ele>
        <time>2012-10-30T09:53:40Z</time>
      </trkpt>
      <trkpt lat="45.52116" lon="6.07588">
        <ele>520.7</ele>
        <time>2012-10-30T09:53:44Z</time>
      </trkpt>
      <trkpt lat="45.5212" lon="6.07591">
        <ele>520.2</ele>
        <time>2012-10-30T09:53:48Z</time>
      </trkpt>
      <trkpt lat="45.52124" lon="6.07593">
        <ele>519.2</ele>
        <time>2012-10-30T09:53:52Z</time>
      </trkpt>
      <trkpt lat="45.52128" lon="6.07595">
        <ele>518.8</ele>
        <time>2012-10-30T09:53:56Z</time>
      </trkpt>
      <trkpt lat="45.52131" lon="6.07599">
        <ele>518.8</ele>
        <time>2012-10-30T09:54:00Z</time>
      </trkpt>
      <trkpt lat="45.52134" lon="6.07602">
        <ele>519.7</ele>
        <time>2012-10-30T09:54:04Z</time>
      </trkpt>
      <trkpt lat="45.52137" lon="6.07605">
        <ele>521.7</ele>
        <time>2012-10-30T09:54:08Z</time>
      </trkpt>
      <trkpt lat="45.5214" lon="6.07606">
        <ele>523.6</ele>
        <time>2012-10-30T09:54:12Z</time>
      </trkpt>
      <trkpt lat="45.52143" lon="6.07609">
        <ele>524.5</ele>
        <time>2012-10-30T09:54:16Z</time>
      </trkpt>
      <trkpt lat="45.52146" lon="6.07609">
        <ele>525.5</ele>
        <time>2012-10-30T09:54:20Z</time>
      </trkpt>
      <trkpt lat="45.52148" lon="6.07611">
        <ele>526.9</ele>
        <time>2012-10-30T09:54:24Z</time>
      </trkpt>
      <trkpt lat="45.5215" lon="6.07612">
        <ele>528.4</ele>
        <time>2012-10-30T09:54:28Z</time>
      </trkpt>
      <trkpt lat="45.52153" lon="6.07615">
        <ele>529.8</ele>
        <time>2012-10-30T09:54:32Z</time>
      </trkpt>
      <trkpt lat="45.52156" lon="6.07618">
        <ele>530.8</ele>
        <time>2012-10-30T09:54:36Z</time>
      </trkpt>
      <trkpt lat="45.5216" lon="6.07621">
        <ele>531.7</ele>
        <time>2012-10-30T09:54:40Z</time>
      </trkpt>
      <trkpt lat="45.52163" lon="6.07624">
        <ele>532.2</ele>
        <time>2012-10-30T09:54:44Z</time>
      </trkpt>
      <trkpt lat="45.52168" lon="6.07628">
        <ele>533.2</ele>
        <time>2012-10-30T09:54:48Z</time>
      </trkpt>
      <trkpt lat="45.52171" lon="6.07632">
        <ele>534.6</ele>
        <time>2012-10-30T09:54:52Z</time>
      </trkpt>
      <trkpt lat="45.52175" lon="6.07636">
        <ele>536.1</ele>
        <time>2012-10-30T09:54:56Z</time>
      </trkpt>
      <trkpt lat="45.52177" lon="6.07639">
        <ele>537.5</ele>
        <time>2012-10-30T09:55:00Z</time>
      </trkpt>
      <trkpt lat="45.5218" lon="6.07643">
        <ele>539.4</ele>
        <time>2012-10-30T09:55:04Z</time>
      </trkpt>
      <trkpt lat="45.52182" lon="6.07648">
        <ele>542.3</ele>
        <time>2012-10-30T09:55:08Z</time>
      </trkpt>
      <trkpt lat="45.52183" lon="6.07653">
        <ele>544.7</ele>
        <time>2012-10-30T09:55:12Z</time>
      </trkpt>
      <trkpt lat="45.52185" lon="6.07657">
        <ele>546.6</ele>
        <time>2012-10-30T09:55:16Z</time>
      </trkpt>
      <trkpt lat="45.52188" lon="6.07662">
        <ele>548.1</ele>
        <time>2012-10-30T09:55:20Z</time>
      </trkpt>
      <trkpt lat="45.52191" lon="6.07666">
        <ele>548.6</ele>
        <time>2012-10-30T09:55:24Z</time>
      </trkpt>
      <trkpt lat="45.52194" lon="6.07669">
        <ele>550</ele>
        <time>2012-10-30T09:55:28Z</time>
      </trkpt>
      <trkpt lat="45.52197" lon="6.07672">
        <ele>551</ele>
        <time>2012-10-30T09:55:32Z</time>
      </trkpt>
      <trkpt lat="45.52201" lon="6.07675">
        <ele>552.4</ele>
        <time>2012-10-30T09:55:36Z</time>
      </trkpt>
      <trkpt lat="45.52204" lon="6.07677">
        <ele>553.4</ele>
        <time>2012-10-30T09:55:40Z</time>
      </trkpt>
      <trkpt lat="45.52208" lon="6.07677">
        <ele>554.3</ele>
        <time>2012-10-30T09:55:44Z</time>
      </trkpt>
      <trkpt lat="45.52211" lon="6.07678">
        <ele>554.8</ele>
        <time>2012-10-30T09:55:48Z</time>
      </trkpt>
      <trkpt lat="45.52214" lon="6.07677">
        <ele>555.3</ele>
        <time>2012-10-30T09:55:52Z</time>
      </trkpt>
      <trkpt lat="45.52216" lon="6.07677">
        <ele>555.8</ele>
        <time>2012-10-30T09:55:56Z</time>
      </trkpt>
      <trkpt lat="45.5222" lon="6.07677">
        <ele>556.7</ele>
        <time>2012-10-30T09:56:00Z</time>
      </trkpt>
      <trkpt lat="45.52224" lon="6.07677">
        <ele>557.7</ele>
        <time>2012-10-30T09:56:04Z</time>
      </trkpt>
      <trkpt lat="45.52225" lon="6.07677">
        <ele>558.2</ele>
        <time>2012-10-30T09:56:08Z</time>
      </trkpt>
      <trkpt lat="45.52225" lon="6.07677">
        <ele>558.2</ele>
        <time>2012-10-30T09:56:12Z</time>
      </trkpt>
      <trkpt lat="45.52225" lon="6.07677">
        <ele>558.2</ele>
        <time>2012-10-30T09:56:16Z</time>
      </trkpt>
      <trkpt lat="45.52225" lon="6.07677">
        <ele>558.2</ele>
        <time>2012-10-30T09:56:20Z</time>
      </trkpt>
      <trkpt lat="45.52225" lon="6.07677">
        <ele>558.2</ele>
        <time>2012-10-30T09:56:24Z</time>
      </trkpt>
      <trkpt lat="45.52227" lon="6.07678">
        <ele>559.1</ele>
        <time>2012-10-30T09:56:28Z</time>
      </trkpt>
      <trkpt lat="45.52231" lon="6.07679">
        <ele>560.6</ele>
        <time>2012-10-30T09:56:32Z</time>
      </trkpt>
      <trkpt lat="45.52235" lon="6.0768">
        <ele>562.5</ele>
        <time>2012-10-30T09:56:36Z</time>
      </trkpt>
      <trkpt lat="45.52239" lon="6.07683">
        <ele>564.9</ele>
        <time>2012-10-30T09:56:40Z</time>
      </trkpt>
      <trkpt lat="45.52242" lon="6.07685">
        <ele>566.8</ele>
        <time>2012-10-30T09:56:44Z</time>
      </trkpt>
      <trkpt lat="45.52245" lon="6.07687">
        <ele>569.2</ele>
        <time>2012-10-30T09:56:48Z</time>
      </trkpt>
      <trkpt lat="45.52248" lon="6.07687">
        <ele>571.2</ele>
        <time>2012-10-30T09:56:52Z</time>
      </trkpt>
      <trkpt lat="45.52251" lon="6.07688">
        <ele>573.6</ele>
        <time>2012-10-30T09:56:56Z</time>
      </trkpt>
      <trkpt lat="45.52255" lon="6.07688">
        <ele>576.4</ele>
        <time>2012-10-30T09:57:00Z</time>
      </trkpt>
      <trkpt lat="45.52259" lon="6.07687">
        <ele>578.4</ele>
        <time>2012-10-30T09:57:04Z</time>
      </trkpt>
      <trkpt lat="45.52263" lon="6.07685">
        <ele>580.8</ele>
        <time>2012-10-30T09:57:08Z</time>
      </trkpt>
      <trkpt lat="45.52266" lon="6.07684">
        <ele>582.2</ele>
        <time>2012-10-30T09:57:12Z</time>
      </trkpt>
      <trkpt lat="45.5227" lon="6.07682">
        <ele>583.2</ele>
        <time>2012-10-30T09:57:16Z</time>
      </trkpt>
      <trkpt lat="45.52272" lon="6.07682">
        <ele>584.6</ele>
        <time>2012-10-30T09:57:20Z</time>
      </trkpt>
      <trkpt lat="45.52274" lon="6.07681">
        <ele>585.6</ele>
        <time>2012-10-30T09:57:24Z</time>
      </trkpt>
      <trkpt lat="45.52277" lon="6.07681">
        <ele>587</ele>
        <time>2012-10-30T09:57:28Z</time>
      </trkpt>
      <trkpt lat="45.52279" lon="6.07679">
        <ele>588.5</ele>
        <time>2012-10-30T09:57:32Z</time>
      </trkpt>
      <trkpt lat="45.52281" lon="6.07678">
        <ele>589.4</ele>
        <time>2012-10-30T09:57:36Z</time>
      </trkpt>
      <trkpt lat="45.52284" lon="6.07677">
        <ele>590.4</ele>
        <time>2012-10-30T09:57:40Z</time>
      </trkpt>
      <trkpt lat="45.52286" lon="6.07675">
        <ele>591.8</ele>
        <time>2012-10-30T09:57:44Z</time>
      </trkpt>
      <trkpt lat="45.52289" lon="6.07674">
        <ele>593.3</ele>
        <time>2012-10-30T09:57:48Z</time>
      </trkpt>
      <trkpt lat="45.52289" lon="6.07674">
        <ele>593.8</ele>
        <time>2012-10-30T09:57:52Z</time>
      </trkpt>
      <trkpt lat="45.52289" lon="6.07674">
        <ele>593.8</ele>
        <time>2012-10-30T09:57:56Z</time>
      </trkpt>
      <trkpt lat="45.52289" lon="6.07674">
        <ele>593.8</ele>
        <time>2012-10-30T09:58:00Z</time>
      </trkpt>
      <trkpt lat="45.52289" lon="6.07674">
        <ele>593.8</ele>
        <time>2012-10-30T09:58:04Z</time>
      </trkpt>
      <trkpt lat="45.52289" lon="6.07674">
        <ele>593.8</ele>
        <time>2012-10-30T09:58:08Z</time>
      </trkpt>
      <trkpt lat="45.52289" lon="6.07674">
        <ele>593.8</ele>
        <time>2012-10-30T09:58:12Z</time>
      </trkpt>
      <trkpt lat="45.52289" lon="6.07674">
        <ele>593.8</ele>
        <time>2012-10-30T09:58:16Z</time>
      </trkpt>
      <trkpt lat="45.52289" lon="6.07674">
        <ele>593.8</ele>
        <time>2012-10-30T09:58:20Z</time>
      </trkpt>
      <trkpt lat="45.52289" lon="6.07674">
        <ele>593.8</ele>
        <time>2012-10-30T09:58:24Z</time>
      </trkpt>
      <trkpt lat="45.52289" lon="6.07674">
        <ele>593.8</ele>
        <time>2012-10-30T09:58:28Z</time>
      </trkpt>
      <trkpt lat="45.52289" lon="6.07673">
        <ele>593.8</ele>
        <time>2012-10-30T09:58:32Z</time>
      </trkpt>
      <trkpt lat="45.52289" lon="6.07673">
        <ele>593.8</ele>
        <time>2012-10-30T09:58:36Z</time>
      </trkpt>
      <trkpt lat="45.52289" lon="6.07673">
        <ele>593.8</ele>
        <time>2012-10-30T09:58:40Z</time>
      </trkpt>
      <trkpt lat="45.52289" lon="6.07672">
        <ele>593.8</ele>
        <time>2012-10-30T09:58:44Z</time>
      </trkpt>
      <trkpt lat="45.52288" lon="6.07668">
        <ele>594.2</ele>
        <time>2012-10-30T09:58:48Z</time>
      </trkpt>
      <trkpt lat="45.52286" lon="6.07664">
        <ele>594.7</ele>
        <time>2012-10-30T09:58:52Z</time>
      </trkpt>
      <trkpt lat="45.52285" lon="6.0766">
        <ele>595.2</ele>
        <time>2012-10-30T09:58:56Z</time>
      </trkpt>
      <trkpt lat="45.52284" lon="6.07657">
        <ele>596.2</ele>
        <time>2012-10-30T09:59:00Z</time>
      </trkpt>
      <trkpt lat="45.52284" lon="6.07656">
        <ele>596.2</ele>
        <time>2012-10-30T09:59:04Z</time>
      </trkpt>
      <trkpt lat="45.52284" lon="6.07654">
        <ele>596.6</ele>
        <time>2012-10-30T09:59:08Z</time>
      </trkpt>
      <trkpt lat="45.52283" lon="6.07651">
        <ele>596.6</ele>
        <time>2012-10-30T09:59:12Z</time>
      </trkpt>
      <trkpt lat="45.52283" lon="6.0765">
        <ele>596.6</ele>
        <time>2012-10-30T09:59:16Z</time>
      </trkpt>
      <trkpt lat="45.52282" lon="6.07648">
        <ele>597.1</ele>
        <time>2012-10-30T09:59:20Z</time>
      </trkpt>
      <trkpt lat="45.52281" lon="6.07644">
        <ele>597.6</ele>
        <time>2012-10-30T09:59:24Z</time>
      </trkpt>
      <trkpt lat="45.52279" lon="6.07642">
        <ele>598.1</ele>
        <time>2012-10-30T09:59:28Z</time>
      </trkpt>
      <trkpt lat="45.52278" lon="6.07639">
        <ele>598.1</ele>
        <time>2012-10-30T09:59:32Z</time>
      </trkpt>
      <trkpt lat="45.52277" lon="6.07637">
        <ele>598.1</ele>
        <time>2012-10-30T09:59:36Z</time>
      </trkpt>
      <trkpt lat="45.52275" lon="6.07633">
        <ele>598.6</ele>
        <time>2012-10-30T09:59:40Z</time>
      </trkpt>
      <trkpt lat="45.52273" lon="6.0763">
        <ele>598.6</ele>
        <time>2012-10-30T09:59:44Z</time>
      </trkpt>
      <trkpt lat="45.52272" lon="6.07627">
        <ele>598.6</ele>
        <time>2012-10-30T09:59:48Z</time>
      </trkpt>
      <trkpt lat="45.52272" lon="6.07626">
        <ele>598.6</ele>
        <time>2012-10-30T09:59:52Z</time>
      </trkpt>
      <trkpt lat="45.5227" lon="6.07623">
        <ele>598.1</ele>
        <time>2012-10-30T09:59:56Z</time>
      </trkpt>
      <trkpt lat="45.52267" lon="6.07618">
        <ele>598.6</ele>
        <time>2012-10-30T10:00:00Z</time>
      </trkpt>
      <trkpt lat="45.52266" lon="6.07614">
        <ele>600</ele>
        <time>2012-10-30T10:00:04Z</time>
      </trkpt>
      <trkpt lat="45.52263" lon="6.07613">
        <ele>601</ele>
        <time>2012-10-30T10:00:08Z</time>
      </trkpt>
      <trkpt lat="45.5226" lon="6.07611">
        <ele>601.9</ele>
        <time>2012-10-30T10:00:12Z</time>
      </trkpt>
      <trkpt lat="45.52257" lon="6.07608">
        <ele>602.4</ele>
        <time>2012-10-30T10:00:16Z</time>
      </trkpt>
      <trkpt lat="45.52254" lon="6.07605">
        <ele>603.4</ele>
        <time>2012-10-30T10:00:20Z</time>
      </trkpt>
      <trkpt lat="45.5225" lon="6.07602">
        <ele>604.3</ele>
        <time>2012-10-30T10:00:24Z</time>
      </trkpt>
      <trkpt lat="45.52249" lon="6.07599">
        <ele>604.8</ele>
        <time>2012-10-30T10:00:28Z</time>
      </trkpt>
      <trkpt lat="45.52246" lon="6.07596">
        <ele>605.8</ele>
        <time>2012-10-30T10:00:32Z</time>
      </trkpt>
      <trkpt lat="45.52243" lon="6.07593">
        <ele>607.2</ele>
        <time>2012-10-30T10:00:36Z</time>
      </trkpt>
      <trkpt lat="45.5224" lon="6.07591">
        <ele>608.2</ele>
        <time>2012-10-30T10:00:40Z</time>
      </trkpt>
      <trkpt lat="45.52236" lon="6.07588">
        <ele>609.1</ele>
        <time>2012-10-30T10:00:44Z</time>
      </trkpt>
      <trkpt lat="45.52234" lon="6.07585">
        <ele>609.6</ele>
        <time>2012-10-30T10:00:48Z</time>
      </trkpt>
      <trkpt lat="45.52231" lon="6.07581">
        <ele>611.1</ele>
        <time>2012-10-30T10:00:52Z</time>
      </trkpt>
      <trkpt lat="45.5223" lon="6.07579">
        <ele>612</ele>
        <time>2012-10-30T10:00:56Z</time>
      </trkpt>
      <trkpt lat="45.5223" lon="6.07579">
        <ele>612</ele>
        <time>2012-10-30T10:01:00Z</time>
      </trkpt>
      <trkpt lat="45.5223" lon="6.07579">
        <ele>612</ele>
        <time>2012-10-30T10:01:04Z</time>
      </trkpt>
      <trkpt lat="45.5223" lon="6.07579">
        <ele>612</ele>
        <time>2012-10-30T10:01:08Z</time>
      </trkpt>
      <trkpt lat="45.5223" lon="6.07579">
        <ele>612</ele>
        <time>2012-10-30T10:01:12Z</time>
      </trkpt>
      <trkpt lat="45.5223" lon="6.07579">
        <ele>612</ele>
        <time>2012-10-30T10:01:16Z</time>
      </trkpt>
      <trkpt lat="45.52228" lon="6.07575">
        <ele>613.5</ele>
        <time>2012-10-30T10:01:20Z</time>
      </trkpt>
      <trkpt lat="45.52227" lon="6.0757">
        <ele>614.4</ele>
        <time>2012-10-30T10:01:24Z</time>
      </trkpt>
      <trkpt lat="45.52225" lon="6.07566">
        <ele>615.9</ele>
        <time>2012-10-30T10:01:28Z</time>
      </trkpt>
      <trkpt lat="45.52224" lon="6.07563">
        <ele>616.8</ele>
        <time>2012-10-30T10:01:32Z</time>
      </trkpt>
      <trkpt lat="45.52223" lon="6.07559">
        <ele>617.8</ele>
        <time>2012-10-30T10:01:36Z</time>
      </trkpt>
      <trkpt lat="45.52222" lon="6.07554">
        <ele>619.2</ele>
        <time>2012-10-30T10:01:40Z</time>
      </trkpt>
      <trkpt lat="45.5222" lon="6.07551">
        <ele>620.2</ele>
        <time>2012-10-30T10:01:44Z</time>
      </trkpt>
      <trkpt lat="45.5222" lon="6.07548">
        <ele>621.6</ele>
        <time>2012-10-30T10:01:48Z</time>
      </trkpt>
      <trkpt lat="45.52219" lon="6.07544">
        <ele>623.6</ele>
        <time>2012-10-30T10:01:52Z</time>
      </trkpt>
      <trkpt lat="45.52219" lon="6.07544">
        <ele>623.6</ele>
        <time>2012-10-30T10:01:56Z</time>
      </trkpt>
      <trkpt lat="45.52219" lon="6.07544">
        <ele>623.6</ele>
        <time>2012-10-30T10:02:00Z</time>
      </trkpt>
      <trkpt lat="45.52219" lon="6.07544">
        <ele>623.6</ele>
        <time>2012-10-30T10:02:04Z</time>
      </trkpt>
      <trkpt lat="45.52219" lon="6.07544">
        <ele>623.6</ele>
        <time>2012-10-30T10:02:08Z</time>
      </trkpt>
      <trkpt lat="45.52219" lon="6.07544">
        <ele>623.6</ele>
        <time>2012-10-30T10:02:12Z</time>
      </trkpt>
      <trkpt lat="45.52219" lon="6.07544">
        <ele>623.6</ele>
        <time>2012-10-30T10:02:16Z</time>
      </trkpt>
      <trkpt lat="45.52219" lon="6.07544">
        <ele>623.6</ele>
        <time>2012-10-30T10:02:20Z</time>
      </trkpt>
      <trkpt lat="45.52219" lon="6.07544">
        <ele>623.6</ele>
        <time>2012-10-30T10:02:24Z</time>
      </trkpt>
      <trkpt lat="45.52219" lon="6.07544">
        <ele>623.6</ele>
        <time>2012-10-30T10:02:28Z</time>
      </trkpt>
      <trkpt lat="45.52219" lon="6.07544">
        <ele>623.6</ele>
        <time>2012-10-30T10:02:32Z</time>
      </trkpt>
      <trkpt lat="45.52219" lon="6.07544">
        <ele>624</ele>
        <time>2012-10-30T10:02:36Z</time>
      </trkpt>
      <trkpt lat="45.52219" lon="6.07541">
        <ele>624.5</ele>
        <time>2012-10-30T10:02:40Z</time>
      </trkpt>
      <trkpt lat="45.52219" lon="6.07535">
        <ele>625.5</ele>
        <time>2012-10-30T10:02:44Z</time>
      </trkpt>
      <trkpt lat="45.52218" lon="6.07531">
        <ele>626.4</ele>
        <time>2012-10-30T10:02:48Z</time>
      </trkpt>
      <trkpt lat="45.52216" lon="6.07527">
        <ele>627.4</ele>
        <time>2012-10-30T10:02:52Z</time>
      </trkpt>
      <trkpt lat="45.52215" lon="6.07522">
        <ele>628.8</ele>
        <time>2012-10-30T10:02:56Z</time>
      </trkpt>
      <trkpt lat="45.52214" lon="6.07519">
        <ele>630.3</ele>
        <time>2012-10-30T10:03:00Z</time>
      </trkpt>
      <trkpt lat="45.52211" lon="6.07517">
        <ele>630.8</ele>
        <time>2012-10-30T10:03:04Z</time>
      </trkpt>
      <trkpt lat="45.5221" lon="6.07513">
        <ele>631.2</ele>
        <time>2012-10-30T10:03:08Z</time>
      </trkpt>
      <trkpt lat="45.52209" lon="6.07509">
        <ele>632.2</ele>
        <time>2012-10-30T10:03:12Z</time>
      </trkpt>
      <trkpt lat="45.5221" lon="6.07506">
        <ele>632.7</ele>
        <time>2012-10-30T10:03:16Z</time>
      </trkpt>
      <trkpt lat="45.52212" lon="6.07505">
        <ele>633.2</ele>
        <time>2012-10-30T10:03:20Z</time>
      </trkpt>
      <trkpt lat="45.52214" lon="6.07505">
        <ele>633.6</ele>
        <time>2012-10-30T10:03:24Z</time>
      </trkpt>
      <trkpt lat="45.52217" lon="6.07505">
        <ele>634.6</ele>
        <time>2012-10-30T10:03:28Z</time>
      </trkpt>
      <trkpt lat="45.52219" lon="6.07506">
        <ele>635.6</ele>
        <time>2012-10-30T10:03:32Z</time>
      </trkpt>
      <trkpt lat="45.52222" lon="6.07508">
        <ele>637</ele>
        <time>2012-10-30T10:03:36Z</time>
      </trkpt>
      <trkpt lat="45.52224" lon="6.0751">
        <ele>638</ele>
        <time>2012-10-30T10:03:40Z</time>
      </trkpt>
      <trkpt lat="45.52226" lon="6.07512">
        <ele>638.5</ele>
        <time>2012-10-30T10:03:44Z</time>
      </trkpt>
      <trkpt lat="45.52226" lon="6.07512">
        <ele>638.5</ele>
        <time>2012-10-30T10:03:48Z</time>
      </trkpt>
      <trkpt lat="45.52228" lon="6.07512">
        <ele>639.4</ele>
        <time>2012-10-30T10:03:52Z</time>
      </trkpt>
      <trkpt lat="45.5223" lon="6.07513">
        <ele>640.4</ele>
        <time>2012-10-30T10:03:56Z</time>
      </trkpt>
      <trkpt lat="45.52232" lon="6.07511">
        <ele>640.9</ele>
        <time>2012-10-30T10:04:00Z</time>
      </trkpt>
      <trkpt lat="45.52234" lon="6.07511">
        <ele>641.3</ele>
        <time>2012-10-30T10:04:04Z</time>
      </trkpt>
      <trkpt lat="45.52236" lon="6.07515">
        <ele>642.3</ele>
        <time>2012-10-30T10:04:08Z</time>
      </trkpt>
      <trkpt lat="45.52236" lon="6.07517">
        <ele>642.8</ele>
        <time>2012-10-30T10:04:12Z</time>
      </trkpt>
      <trkpt lat="45.52238" lon="6.0752">
        <ele>643.7</ele>
        <time>2012-10-30T10:04:16Z</time>
      </trkpt>
      <trkpt lat="45.52238" lon="6.07524">
        <ele>645.2</ele>
        <time>2012-10-30T10:04:20Z</time>
      </trkpt>
      <trkpt lat="45.52239" lon="6.07525">
        <ele>645.7</ele>
        <time>2012-10-30T10:04:24Z</time>
      </trkpt>
      <trkpt lat="45.52241" lon="6.07526">
        <ele>647.1</ele>
        <time>2012-10-30T10:04:28Z</time>
      </trkpt>
      <trkpt lat="45.52243" lon="6.07529">
        <ele>648.5</ele>
        <time>2012-10-30T10:04:32Z</time>
      </trkpt>
      <trkpt lat="45.52246" lon="6.07532">
        <ele>650</ele>
        <time>2012-10-30T10:04:36Z</time>
      </trkpt>
      <trkpt lat="45.5225" lon="6.07534">
        <ele>651.9</ele>
        <time>2012-10-30T10:04:40Z</time>
      </trkpt>
      <trkpt lat="45.52252" lon="6.07536">
        <ele>653.4</ele>
        <time>2012-10-30T10:04:44Z</time>
      </trkpt>
      <trkpt lat="45.52255" lon="6.07537">
        <ele>654.3</ele>
        <time>2012-10-30T10:04:48Z</time>
      </trkpt>
      <trkpt lat="45.52258" lon="6.07539">
        <ele>654.8</ele>
        <time>2012-10-30T10:04:52Z</time>
      </trkpt>
      <trkpt lat="45.52261" lon="6.07537">
        <ele>655.8</ele>
        <time>2012-10-30T10:04:56Z</time>
      </trkpt>
      <trkpt lat="45.52265" lon="6.07535">
        <ele>656.2</ele>
        <time>2012-10-30T10:05:00Z</time>
      </trkpt>
      <trkpt lat="45.52267" lon="6.07533">
        <ele>657.7</ele>
        <time>2012-10-30T10:05:04Z</time>
      </trkpt>
      <trkpt lat="45.5227" lon="6.07531">
        <ele>658.6</ele>
        <time>2012-10-30T10:05:08Z</time>
      </trkpt>
      <trkpt lat="45.52273" lon="6.07529">
        <ele>659.6</ele>
        <time>2012-10-30T10:05:12Z</time>
      </trkpt>
      <trkpt lat="45.52274" lon="6.07528">
        <ele>660.1</ele>
        <time>2012-10-30T10:05:16Z</time>
      </trkpt>
      <trkpt lat="45.52276" lon="6.07527">
        <ele>660.6</ele>
        <time>2012-10-30T10:05:20Z</time>
      </trkpt>
      <trkpt lat="45.52278" lon="6.07525">
        <ele>661</ele>
        <time>2012-10-30T10:05:24Z</time>
      </trkpt>
      <trkpt lat="45.5228" lon="6.07524">
        <ele>661.5</ele>
        <time>2012-10-30T10:05:28Z</time>
      </trkpt>
      <trkpt lat="45.52281" lon="6.07523">
        <ele>662</ele>
        <time>2012-10-30T10:05:32Z</time>
      </trkpt>
      <trkpt lat="45.52284" lon="6.07522">
        <ele>662</ele>
        <time>2012-10-30T10:05:36Z</time>
      </trkpt>
      <trkpt lat="45.52288" lon="6.07522">
        <ele>662.5</ele>
        <time>2012-10-30T10:05:40Z</time>
      </trkpt>
      <trkpt lat="45.52292" lon="6.07521">
        <ele>663.4</ele>
        <time>2012-10-30T10:05:44Z</time>
      </trkpt>
      <trkpt lat="45.52294" lon="6.07522">
        <ele>664.9</ele>
        <time>2012-10-30T10:05:48Z</time>
      </trkpt>
      <trkpt lat="45.52297" lon="6.07521">
        <ele>666.3</ele>
        <time>2012-10-30T10:05:52Z</time>
      </trkpt>
      <trkpt lat="45.523" lon="6.0752">
        <ele>667.8</ele>
        <time>2012-10-30T10:05:56Z</time>
      </trkpt>
      <trkpt lat="45.52304" lon="6.0752">
        <ele>668.7</ele>
        <time>2012-10-30T10:06:00Z</time>
      </trkpt>
      <trkpt lat="45.52305" lon="6.0752">
        <ele>669.2</ele>
        <time>2012-10-30T10:06:04Z</time>
      </trkpt>
      <trkpt lat="45.52308" lon="6.07519">
        <ele>669.2</ele>
        <time>2012-10-30T10:06:08Z</time>
      </trkpt>
      <trkpt lat="45.52311" lon="6.07517">
        <ele>670.7</ele>
        <time>2012-10-30T10:06:12Z</time>
      </trkpt>
      <trkpt lat="45.52311" lon="6.07517">
        <ele>670.7</ele>
        <time>2012-10-30T10:06:16Z</time>
      </trkpt>
      <trkpt lat="45.52311" lon="6.07517">
        <ele>670.7</ele>
        <time>2012-10-30T10:06:20Z</time>
      </trkpt>
      <trkpt lat="45.52311" lon="6.07517">
        <ele>670.7</ele>
        <time>2012-10-30T10:06:24Z</time>
      </trkpt>
      <trkpt lat="45.52311" lon="6.07517">
        <ele>670.7</ele>
        <time>2012-10-30T10:06:28Z</time>
      </trkpt>
      <trkpt lat="45.52311" lon="6.07517">
        <ele>670.7</ele>
        <time>2012-10-30T10:06:32Z</time>
      </trkpt>
      <trkpt lat="45.52311" lon="6.07517">
        <ele>670.7</ele>
        <time>2012-10-30T10:06:36Z</time>
      </trkpt>
      <trkpt lat="45.52311" lon="6.07517">
        <ele>670.7</ele>
        <time>2012-10-30T10:06:40Z</time>
      </trkpt>
      <trkpt lat="45.52311" lon="6.07517">
        <ele>670.7</ele>
        <time>2012-10-30T10:06:44Z</time>
      </trkpt>
      <trkpt lat="45.52315" lon="6.07516">
        <ele>671.1</ele>
        <time>2012-10-30T10:06:48Z</time>
      </trkpt>
      <trkpt lat="45.5232" lon="6.07516">
        <ele>672.1</ele>
        <time>2012-10-30T10:06:52Z</time>
      </trkpt>
      <trkpt lat="45.52324" lon="6.07515">
        <ele>673.1</ele>
        <time>2012-10-30T10:06:56Z</time>
      </trkpt>
      <trkpt lat="45.52327" lon="6.07514">
        <ele>674</ele>
        <time>2012-10-30T10:07:00Z</time>
      </trkpt>
      <trkpt lat="45.5233" lon="6.07517">
        <ele>675.5</ele>
        <time>2012-10-30T10:07:04Z</time>
      </trkpt>
      <trkpt lat="45.52334" lon="6.07519">
        <ele>675.9</ele>
        <time>2012-10-30T10:07:08Z</time>
      </trkpt>
      <trkpt lat="45.52339" lon="6.0752">
        <ele>676.4</ele>
        <time>2012-10-30T10:07:12Z</time>
      </trkpt>
      <trkpt lat="45.52344" lon="6.07521">
        <ele>676.9</ele>
        <time>2012-10-30T10:07:16Z</time>
      </trkpt>
      <trkpt lat="45.52349" lon="6.07523">
        <ele>677.9</ele>
        <time>2012-10-30T10:07:20Z</time>
      </trkpt>
      <trkpt lat="45.52354" lon="6.07526">
        <ele>679.3</ele>
        <time>2012-10-30T10:07:24Z</time>
      </trkpt>
      <trkpt lat="45.52358" lon="6.07529">
        <ele>681.2</ele>
        <time>2012-10-30T10:07:28Z</time>
      </trkpt>
      <trkpt lat="45.5236" lon="6.0753">
        <ele>682.7</ele>
        <time>2012-10-30T10:07:32Z</time>
      </trkpt>
      <trkpt lat="45.52364" lon="6.07533">
        <ele>684.1</ele>
        <time>2012-10-30T10:07:36Z</time>
      </trkpt>
      <trkpt lat="45.52368" lon="6.07535">
        <ele>685.6</ele>
        <time>2012-10-30T10:07:40Z</time>
      </trkpt>
      <trkpt lat="45.52371" lon="6.07538">
        <ele>687</ele>
        <time>2012-10-30T10:07:44Z</time>
      </trkpt>
      <trkpt lat="45.52375" lon="6.07541">
        <ele>688.4</ele>
        <time>2012-10-30T10:07:48Z</time>
      </trkpt>
      <trkpt lat="45.52379" lon="6.07542">
        <ele>689.9</ele>
        <time>2012-10-30T10:07:52Z</time>
      </trkpt>
      <trkpt lat="45.52383" lon="6.07542">
        <ele>690.8</ele>
        <time>2012-10-30T10:07:56Z</time>
      </trkpt>
      <trkpt lat="45.52387" lon="6.07542">
        <ele>691.8</ele>
        <time>2012-10-30T10:08:00Z</time>
      </trkpt>
      <trkpt lat="45.52391" lon="6.07541">
        <ele>693.2</ele>
        <time>2012-10-30T10:08:04Z</time>
      </trkpt>
      <trkpt lat="45.52395" lon="6.0754">
        <ele>694.2</ele>
        <time>2012-10-30T10:08:08Z</time>
      </trkpt>
      <trkpt lat="45.52398" lon="6.07537">
        <ele>695.2</ele>
        <time>2012-10-30T10:08:12Z</time>
      </trkpt>
      <trkpt lat="45.52401" lon="6.07535">
        <ele>696.1</ele>
        <time>2012-10-30T10:08:16Z</time>
      </trkpt>
      <trkpt lat="45.52402" lon="6.0753">
        <ele>697.1</ele>
        <time>2012-10-30T10:08:20Z</time>
      </trkpt>
      <trkpt lat="45.52401" lon="6.07525">
        <ele>698.5</ele>
        <time>2012-10-30T10:08:24Z</time>
      </trkpt>
      <trkpt lat="45.524" lon="6.07521">
        <ele>699.5</ele>
        <time>2012-10-30T10:08:28Z</time>
      </trkpt>
      <trkpt lat="45.524" lon="6.07519">
        <ele>700.5</ele>
        <time>2012-10-30T10:08:32Z</time>
      </trkpt>
      <trkpt lat="45.52399" lon="6.07515">
        <ele>701.4</ele>
        <time>2012-10-30T10:08:36Z</time>
      </trkpt>
      <trkpt lat="45.52398" lon="6.07514">
        <ele>702.4</ele>
        <time>2012-10-30T10:08:40Z</time>
      </trkpt>
      <trkpt lat="45.52397" lon="6.07513">
        <ele>702.9</ele>
        <time>2012-10-30T10:08:44Z</time>
      </trkpt>
      <trkpt lat="45.52396" lon="6.07514">
        <ele>703.3</ele>
        <time>2012-10-30T10:08:48Z</time>
      </trkpt>
      <trkpt lat="45.52394" lon="6.07512">
        <ele>703.8</ele>
        <time>2012-10-30T10:08:52Z</time>
      </trkpt>
      <trkpt lat="45.52393" lon="6.0751">
        <ele>704.8</ele>
        <time>2012-10-30T10:08:56Z</time>
      </trkpt>
      <trkpt lat="45.52391" lon="6.07507">
        <ele>705.7</ele>
        <time>2012-10-30T10:09:00Z</time>
      </trkpt>
      <trkpt lat="45.52389" lon="6.07504">
        <ele>706.7</ele>
        <time>2012-10-30T10:09:04Z</time>
      </trkpt>
      <trkpt lat="45.52388" lon="6.07499">
        <ele>707.7</ele>
        <time>2012-10-30T10:09:08Z</time>
      </trkpt>
      <trkpt lat="45.52387" lon="6.07495">
        <ele>708.1</ele>
        <time>2012-10-30T10:09:12Z</time>
      </trkpt>
      <trkpt lat="45.52386" lon="6.07492">
        <ele>709.1</ele>
        <time>2012-10-30T10:09:16Z</time>
      </trkpt>
      <trkpt lat="45.52383" lon="6.07491">
        <ele>709.6</ele>
        <time>2012-10-30T10:09:20Z</time>
      </trkpt>
      <trkpt lat="45.52381" lon="6.07488">
        <ele>709.6</ele>
        <time>2012-10-30T10:09:24Z</time>
      </trkpt>
      <trkpt lat="45.52379" lon="6.07485">
        <ele>710.1</ele>
        <time>2012-10-30T10:09:28Z</time>
      </trkpt>
      <trkpt lat="45.52376" lon="6.0748">
        <ele>711</ele>
        <time>2012-10-30T10:09:32Z</time>
      </trkpt>
      <trkpt lat="45.52375" lon="6.07476">
        <ele>712</ele>
        <time>2012-10-30T10:09:36Z</time>
      </trkpt>
      <trkpt lat="45.52373" lon="6.07472">
        <ele>713.4</ele>
        <time>2012-10-30T10:09:40Z</time>
      </trkpt>
      <trkpt lat="45.52371" lon="6.07471">
        <ele>714.9</ele>
        <time>2012-10-30T10:09:44Z</time>
      </trkpt>
      <trkpt lat="45.52371" lon="6.07471">
        <ele>715.4</ele>
        <time>2012-10-30T10:09:48Z</time>
      </trkpt>
      <trkpt lat="45.52371" lon="6.07471">
        <ele>715.4</ele>
        <time>2012-10-30T10:09:52Z</time>
      </trkpt>
      <trkpt lat="45.52371" lon="6.0747">
        <ele>715.8</ele>
        <time>2012-10-30T10:09:56Z</time>
      </trkpt>
      <trkpt lat="45.52371" lon="6.0747">
        <ele>715.8</ele>
        <time>2012-10-30T10:10:00Z</time>
      </trkpt>
      <trkpt lat="45.52371" lon="6.0747">
        <ele>715.8</ele>
        <time>2012-10-30T10:10:04Z</time>
      </trkpt>
      <trkpt lat="45.52371" lon="6.0747">
        <ele>715.8</ele>
        <time>2012-10-30T10:10:08Z</time>
      </trkpt>
      <trkpt lat="45.52371" lon="6.0747">
        <ele>715.8</ele>
        <time>2012-10-30T10:10:12Z</time>
      </trkpt>
      <trkpt lat="45.52369" lon="6.07467">
        <ele>717.3</ele>
        <time>2012-10-30T10:10:16Z</time>
      </trkpt>
      <trkpt lat="45.52367" lon="6.07463">
        <ele>719.2</ele>
        <time>2012-10-30T10:10:20Z</time>
      </trkpt>
      <trkpt lat="45.52364" lon="6.07459">
        <ele>720.2</ele>
        <time>2012-10-30T10:10:24Z</time>
      </trkpt>
      <trkpt lat="45.52362" lon="6.07455">
        <ele>721.1</ele>
        <time>2012-10-30T10:10:28Z</time>
      </trkpt>
      <trkpt lat="45.5236" lon="6.07451">
        <ele>722.1</ele>
        <time>2012-10-30T10:10:32Z</time>
      </trkpt>
      <trkpt lat="45.52359" lon="6.07447">
        <ele>724</ele>
        <time>2012-10-30T10:10:36Z</time>
      </trkpt>
      <trkpt lat="45.52357" lon="6.07444">
        <ele>725</ele>
        <time>2012-10-30T10:10:40Z</time>
      </trkpt>
      <trkpt lat="45.52356" lon="6.0744">
        <ele>725.5</ele>
        <time>2012-10-30T10:10:44Z</time>
      </trkpt>
      <trkpt lat="45.52355" lon="6.07438">
        <ele>726.4</ele>
        <time>2012-10-30T10:10:48Z</time>
      </trkpt>
      <trkpt lat="45.52353" lon="6.07436">
        <ele>727.9</ele>
        <time>2012-10-30T10:10:52Z</time>
      </trkpt>
      <trkpt lat="45.52352" lon="6.07433">
        <ele>729.3</ele>
        <time>2012-10-30T10:10:56Z</time>
      </trkpt>
      <trkpt lat="45.52351" lon="6.07428">
        <ele>731.2</ele>
        <time>2012-10-30T10:11:00Z</time>
      </trkpt>
      <trkpt lat="45.52349" lon="6.07423">
        <ele>733.6</ele>
        <time>2012-10-30T10:11:04Z</time>
      </trkpt>
      <trkpt lat="45.52347" lon="6.07419">
        <ele>736.5</ele>
        <time>2012-10-30T10:11:08Z</time>
      </trkpt>
      <trkpt lat="45.52344" lon="6.07416">
        <ele>738.4</ele>
        <time>2012-10-30T10:11:12Z</time>
      </trkpt>
      <trkpt lat="45.52341" lon="6.07415">
        <ele>740.8</ele>
        <time>2012-10-30T10:11:16Z</time>
      </trkpt>
      <trkpt lat="45.52338" lon="6.07414">
        <ele>742.8</ele>
        <time>2012-10-30T10:11:20Z</time>
      </trkpt>
      <trkpt lat="45.52336" lon="6.07412">
        <ele>744.2</ele>
        <time>2012-10-30T10:11:24Z</time>
      </trkpt>
      <trkpt lat="45.52333" lon="6.07411">
        <ele>745.6</ele>
        <time>2012-10-30T10:11:28Z</time>
      </trkpt>
      <trkpt lat="45.5233" lon="6.07408">
        <ele>747.6</ele>
        <time>2012-10-30T10:11:32Z</time>
      </trkpt>
      <trkpt lat="45.52328" lon="6.07405">
        <ele>749</ele>
        <time>2012-10-30T10:11:36Z</time>
      </trkpt>
      <trkpt lat="45.52325" lon="6.07399">
        <ele>750.4</ele>
        <time>2012-10-30T10:11:40Z</time>
      </trkpt>
      <trkpt lat="45.52325" lon="6.07398">
        <ele>751.4</ele>
        <time>2012-10-30T10:11:44Z</time>
      </trkpt>
      <trkpt lat="45.52325" lon="6.07398">
        <ele>751.4</ele>
        <time>2012-10-30T10:11:48Z</time>
      </trkpt>
      <trkpt lat="45.52325" lon="6.07398">
        <ele>751.4</ele>
        <time>2012-10-30T10:11:52Z</time>
      </trkpt>
      <trkpt lat="45.52323" lon="6.07394">
        <ele>752.8</ele>
        <time>2012-10-30T10:11:56Z</time>
      </trkpt>
      <trkpt lat="45.52321" lon="6.07391">
        <ele>754.3</ele>
        <time>2012-10-30T10:12:00Z</time>
      </trkpt>
      <trkpt lat="45.52319" lon="6.07387">
        <ele>755.3</ele>
        <time>2012-10-30T10:12:04Z</time>
      </trkpt>
      <trkpt lat="45.52319" lon="6.07384">
        <ele>755.7</ele>
        <time>2012-10-30T10:12:08Z</time>
      </trkpt>
      <trkpt lat="45.52316" lon="6.07381">
        <ele>756.2</ele>
        <time>2012-10-30T10:12:12Z</time>
      </trkpt>
      <trkpt lat="45.52314" lon="6.07378">
        <ele>757.2</ele>
        <time>2012-10-30T10:12:16Z</time>
      </trkpt>
      <trkpt lat="45.52311" lon="6.07374">
        <ele>758.1</ele>
        <time>2012-10-30T10:12:20Z</time>
      </trkpt>
      <trkpt lat="45.5231" lon="6.07369">
        <ele>759.1</ele>
        <time>2012-10-30T10:12:24Z</time>
      </trkpt>
      <trkpt lat="45.52309" lon="6.07366">
        <ele>760.1</ele>
        <time>2012-10-30T10:12:28Z</time>
      </trkpt>
      <trkpt lat="45.52307" lon="6.07363">
        <ele>760.5</ele>
        <time>2012-10-30T10:12:32Z</time>
      </trkpt>
      <trkpt lat="45.52306" lon="6.07361">
        <ele>761</ele>
        <time>2012-10-30T10:12:36Z</time>
      </trkpt>
      <trkpt lat="45.52305" lon="6.07357">
        <ele>761</ele>
        <time>2012-10-30T10:12:40Z</time>
      </trkpt>
      <trkpt lat="45.52302" lon="6.07352">
        <ele>761.5</ele>
        <time>2012-10-30T10:12:44Z</time>
      </trkpt>
      <trkpt lat="45.52301" lon="6.07348">
        <ele>762</ele>
        <time>2012-10-30T10:12:48Z</time>
      </trkpt>
      <trkpt lat="45.52299" lon="6.07345">
        <ele>762.9</ele>
        <time>2012-10-30T10:12:52Z</time>
      </trkpt>
      <trkpt lat="45.52297" lon="6.07341">
        <ele>763.4</ele>
        <time>2012-10-30T10:12:56Z</time>
      </trkpt>
      <trkpt lat="45.52294" lon="6.07337">
        <ele>763.9</ele>
        <time>2012-10-30T10:13:00Z</time>
      </trkpt>
      <trkpt lat="45.52292" lon="6.07333">
        <ele>764.4</ele>
        <time>2012-10-30T10:13:04Z</time>
      </trkpt>
      <trkpt lat="45.52289" lon="6.07329">
        <ele>764.9</ele>
        <time>2012-10-30T10:13:08Z</time>
      </trkpt>
      <trkpt lat="45.52287" lon="6.07324">
        <ele>764.9</ele>
        <time>2012-10-30T10:13:12Z</time>
      </trkpt>
      <trkpt lat="45.52285" lon="6.0732">
        <ele>765.8</ele>
        <time>2012-10-30T10:13:16Z</time>
      </trkpt>
      <trkpt lat="45.52282" lon="6.07317">
        <ele>767.3</ele>
        <time>2012-10-30T10:13:20Z</time>
      </trkpt>
      <trkpt lat="45.52279" lon="6.07312">
        <ele>768.2</ele>
        <time>2012-10-30T10:13:24Z</time>
      </trkpt>
      <trkpt lat="45.52276" lon="6.07308">
        <ele>768.7</ele>
        <time>2012-10-30T10:13:28Z</time>
      </trkpt>
      <trkpt lat="45.52274" lon="6.07304">
        <ele>770.2</ele>
        <time>2012-10-30T10:13:32Z</time>
      </trkpt>
      <trkpt lat="45.52271" lon="6.073">
        <ele>772.1</ele>
        <time>2012-10-30T10:13:36Z</time>
      </trkpt>
      <trkpt lat="45.52269" lon="6.07296">
        <ele>773</ele>
        <time>2012-10-30T10:13:40Z</time>
      </trkpt>
      <trkpt lat="45.52268" lon="6.0729">
        <ele>773.5</ele>
        <time>2012-10-30T10:13:44Z</time>
      </trkpt>
      <trkpt lat="45.52267" lon="6.07283">
        <ele>773.5</ele>
        <time>2012-10-30T10:13:48Z</time>
      </trkpt>
      <trkpt lat="45.52267" lon="6.07277">
        <ele>774</ele>
        <time>2012-10-30T10:13:52Z</time>
      </trkpt>
      <trkpt lat="45.52266" lon="6.07272">
        <ele>775</ele>
        <time>2012-10-30T10:13:56Z</time>
      </trkpt>
      <trkpt lat="45.52266" lon="6.07267">
        <ele>775.4</ele>
        <time>2012-10-30T10:14:00Z</time>
      </trkpt>
      <trkpt lat="45.52267" lon="6.07262">
        <ele>775.9</ele>
        <time>2012-10-30T10:14:04Z</time>
      </trkpt>
      <trkpt lat="45.52267" lon="6.07258">
        <ele>776.9</ele>
        <time>2012-10-30T10:14:08Z</time>
      </trkpt>
      <trkpt lat="45.52267" lon="6.07254">
        <ele>778.3</ele>
        <time>2012-10-30T10:14:12Z</time>
      </trkpt>
      <trkpt lat="45.52267" lon="6.0725">
        <ele>779.3</ele>
        <time>2012-10-30T10:14:16Z</time>
      </trkpt>
      <trkpt lat="45.52267" lon="6.07246">
        <ele>780.2</ele>
        <time>2012-10-30T10:14:20Z</time>
      </trkpt>
      <trkpt lat="45.52266" lon="6.07243">
        <ele>781.2</ele>
        <time>2012-10-30T10:14:24Z</time>
      </trkpt>
      <trkpt lat="45.52265" lon="6.0724">
        <ele>782.7</ele>
        <time>2012-10-30T10:14:28Z</time>
      </trkpt>
      <trkpt lat="45.52265" lon="6.07236">
        <ele>784.1</ele>
        <time>2012-10-30T10:14:32Z</time>
      </trkpt>
      <trkpt lat="45.52263" lon="6.07233">
        <ele>786</ele>
        <time>2012-10-30T10:14:36Z</time>
      </trkpt>
      <trkpt lat="45.52261" lon="6.0723">
        <ele>787.9</ele>
        <time>2012-10-30T10:14:40Z</time>
      </trkpt>
      <trkpt lat="45.52258" lon="6.07228">
        <ele>790.3</ele>
        <time>2012-10-30T10:14:44Z</time>
      </trkpt>
      <trkpt lat="45.52256" lon="6.07224">
        <ele>792.7</ele>
        <time>2012-10-30T10:14:48Z</time>
      </trkpt>
      <trkpt lat="45.52254" lon="6.07221">
        <ele>795.1</ele>
        <time>2012-10-30T10:14:52Z</time>
      </trkpt>
      <trkpt lat="45.52253" lon="6.07217">
        <ele>797.1</ele>
        <time>2012-10-30T10:14:56Z</time>
      </trkpt>
      <trkpt lat="45.52252" lon="6.07214">
        <ele>799</ele>
        <time>2012-10-30T10:15:00Z</time>
      </trkpt>
      <trkpt lat="45.52252" lon="6.0721">
        <ele>800</ele>
        <time>2012-10-30T10:15:04Z</time>
      </trkpt>
      <trkpt lat="45.52251" lon="6.07208">
        <ele>801.4</ele>
        <time>2012-10-30T10:15:08Z</time>
      </trkpt>
      <trkpt lat="45.5225" lon="6.07205">
        <ele>802.8</ele>
        <time>2012-10-30T10:15:12Z</time>
      </trkpt>
      <trkpt lat="45.52247" lon="6.07201">
        <ele>804.8</ele>
        <time>2012-10-30T10:15:16Z</time>
      </trkpt>
      <trkpt lat="45.52246" lon="6.07198">
        <ele>806.7</ele>
        <time>2012-10-30T10:15:20Z</time>
      </trkpt>
      <trkpt lat="45.52243" lon="6.07195">
        <ele>808.6</ele>
        <time>2012-10-30T10:15:24Z</time>
      </trkpt>
      <trkpt lat="45.52241" lon="6.07192">
        <ele>810.5</ele>
        <time>2012-10-30T10:15:28Z</time>
      </trkpt>
      <trkpt lat="45.52238" lon="6.07189">
        <ele>812.9</ele>
        <time>2012-10-30T10:15:32Z</time>
      </trkpt>
      <trkpt lat="45.52236" lon="6.07184">
        <ele>814.9</ele>
        <time>2012-10-30T10:15:36Z</time>
      </trkpt>
      <trkpt lat="45.52234" lon="6.07181">
        <ele>816.8</ele>
        <time>2012-10-30T10:15:40Z</time>
      </trkpt>
      <trkpt lat="45.52231" lon="6.07178">
        <ele>817.7</ele>
        <time>2012-10-30T10:15:44Z</time>
      </trkpt>
      <trkpt lat="45.52229" lon="6.07174">
        <ele>819.2</ele>
        <time>2012-10-30T10:15:48Z</time>
      </trkpt>
      <trkpt lat="45.52228" lon="6.0717">
        <ele>820.6</ele>
        <time>2012-10-30T10:15:52Z</time>
      </trkpt>
      <trkpt lat="45.52227" lon="6.07167">
        <ele>821.6</ele>
        <time>2012-10-30T10:15:56Z</time>
      </trkpt>
      <trkpt lat="45.52225" lon="6.07162">
        <ele>822.5</ele>
        <time>2012-10-30T10:16:00Z</time>
      </trkpt>
      <trkpt lat="45.52225" lon="6.07159">
        <ele>822.5</ele>
        <time>2012-10-30T10:16:04Z</time>
      </trkpt>
      <trkpt lat="45.52225" lon="6.07159">
        <ele>822.5</ele>
        <time>2012-10-30T10:16:08Z</time>
      </trkpt>
      <trkpt lat="45.52226" lon="6.07156">
        <ele>822.1</ele>
        <time>2012-10-30T10:16:12Z</time>
      </trkpt>
      <trkpt lat="45.52225" lon="6.07154">
        <ele>822.1</ele>
        <time>2012-10-30T10:16:16Z</time>
      </trkpt>
      <trkpt lat="45.52225" lon="6.07148">
        <ele>821.1</ele>
        <time>2012-10-30T10:16:20Z</time>
      </trkpt>
      <trkpt lat="45.52224" lon="6.07144">
        <ele>821.6</ele>
        <time>2012-10-30T10:16:24Z</time>
      </trkpt>
      <trkpt lat="45.52224" lon="6.0714">
        <ele>822.1</ele>
        <time>2012-10-30T10:16:28Z</time>
      </trkpt>
      <trkpt lat="45.52224" lon="6.07136">
        <ele>823</ele>
        <time>2012-10-30T10:16:32Z</time>
      </trkpt>
      <trkpt lat="45.52225" lon="6.07132">
        <ele>823.5</ele>
        <time>2012-10-30T10:16:36Z</time>
      </trkpt>
      <trkpt lat="45.52224" lon="6.07126">
        <ele>824</ele>
        <time>2012-10-30T10:16:40Z</time>
      </trkpt>
      <trkpt lat="45.52225" lon="6.07121">
        <ele>824.5</ele>
        <time>2012-10-30T10:16:44Z</time>
      </trkpt>
      <trkpt lat="45.52224" lon="6.07116">
        <ele>825.4</ele>
        <time>2012-10-30T10:16:48Z</time>
      </trkpt>
      <trkpt lat="45.52222" lon="6.07111">
        <ele>825.4</ele>
        <time>2012-10-30T10:16:52Z</time>
      </trkpt>
      <trkpt lat="45.52221" lon="6.07106">
        <ele>825.9</ele>
        <time>2012-10-30T10:16:56Z</time>
      </trkpt>
      <trkpt lat="45.5222" lon="6.071">
        <ele>826.4</ele>
        <time>2012-10-30T10:17:00Z</time>
      </trkpt>
      <trkpt lat="45.52218" lon="6.07095">
        <ele>826.9</ele>
        <time>2012-10-30T10:17:04Z</time>
      </trkpt>
      <trkpt lat="45.52217" lon="6.07089">
        <ele>827.8</ele>
        <time>2012-10-30T10:17:08Z</time>
      </trkpt>
      <trkpt lat="45.52215" lon="6.07083">
        <ele>829.3</ele>
        <time>2012-10-30T10:17:12Z</time>
      </trkpt>
      <trkpt lat="45.52214" lon="6.07079">
        <ele>830.2</ele>
        <time>2012-10-30T10:17:16Z</time>
      </trkpt>
      <trkpt lat="45.52214" lon="6.07076">
        <ele>831.2</ele>
        <time>2012-10-30T10:17:20Z</time>
      </trkpt>
      <trkpt lat="45.52213" lon="6.07075">
        <ele>832.2</ele>
        <time>2012-10-30T10:17:24Z</time>
      </trkpt>
      <trkpt lat="45.52211" lon="6.07071">
        <ele>834.1</ele>
        <time>2012-10-30T10:17:28Z</time>
      </trkpt>
      <trkpt lat="45.52208" lon="6.07069">
        <ele>836</ele>
        <time>2012-10-30T10:17:32Z</time>
      </trkpt>
      <trkpt lat="45.52207" lon="6.07065">
        <ele>837.4</ele>
        <time>2012-10-30T10:17:36Z</time>
      </trkpt>
      <trkpt lat="45.52206" lon="6.07061">
        <ele>838.9</ele>
        <time>2012-10-30T10:17:40Z</time>
      </trkpt>
      <trkpt lat="45.52204" lon="6.0706">
        <ele>839.8</ele>
        <time>2012-10-30T10:17:44Z</time>
      </trkpt>
      <trkpt lat="45.52202" lon="6.07057">
        <ele>840.3</ele>
        <time>2012-10-30T10:17:48Z</time>
      </trkpt>
      <trkpt lat="45.522" lon="6.07054">
        <ele>841.3</ele>
        <time>2012-10-30T10:17:52Z</time>
      </trkpt>
      <trkpt lat="45.52199" lon="6.07051">
        <ele>841.8</ele>
        <time>2012-10-30T10:17:56Z</time>
      </trkpt>
      <trkpt lat="45.52197" lon="6.07045">
        <ele>842.7</ele>
        <time>2012-10-30T10:18:00Z</time>
      </trkpt>
      <trkpt lat="45.52196" lon="6.0704">
        <ele>843.2</ele>
        <time>2012-10-30T10:18:04Z</time>
      </trkpt>
      <trkpt lat="45.52195" lon="6.07036">
        <ele>843.7</ele>
        <time>2012-10-30T10:18:08Z</time>
      </trkpt>
      <trkpt lat="45.52195" lon="6.07032">
        <ele>844.2</ele>
        <time>2012-10-30T10:18:12Z</time>
      </trkpt>
      <trkpt lat="45.52194" lon="6.07028">
        <ele>844.7</ele>
        <time>2012-10-30T10:18:16Z</time>
      </trkpt>
      <trkpt lat="45.52194" lon="6.07025">
        <ele>845.1</ele>
        <time>2012-10-30T10:18:20Z</time>
      </trkpt>
      <trkpt lat="45.52196" lon="6.0702">
        <ele>845.6</ele>
        <time>2012-10-30T10:18:24Z</time>
      </trkpt>
      <trkpt lat="45.52196" lon="6.07016">
        <ele>846.1</ele>
        <time>2012-10-30T10:18:28Z</time>
      </trkpt>
      <trkpt lat="45.52196" lon="6.07014">
        <ele>847.5</ele>
        <time>2012-10-30T10:18:32Z</time>
      </trkpt>
      <trkpt lat="45.52195" lon="6.07014">
        <ele>849</ele>
        <time>2012-10-30T10:18:36Z</time>
      </trkpt>
      <trkpt lat="45.52195" lon="6.07014">
        <ele>849</ele>
        <time>2012-10-30T10:18:40Z</time>
      </trkpt>
      <trkpt lat="45.52195" lon="6.07014">
        <ele>849</ele>
        <time>2012-10-30T10:18:44Z</time>
      </trkpt>
      <trkpt lat="45.52195" lon="6.07014">
        <ele>849</ele>
        <time>2012-10-30T10:18:48Z</time>
      </trkpt>
      <trkpt lat="45.52195" lon="6.07014">
        <ele>849</ele>
        <time>2012-10-30T10:18:52Z</time>
      </trkpt>
      <trkpt lat="45.52195" lon="6.07014">
        <ele>849</ele>
        <time>2012-10-30T10:18:56Z</time>
      </trkpt>
      <trkpt lat="45.52195" lon="6.07014">
        <ele>849</ele>
        <time>2012-10-30T10:19:00Z</time>
      </trkpt>
      <trkpt lat="45.52195" lon="6.07014">
        <ele>849</ele>
        <time>2012-10-30T10:19:04Z</time>
      </trkpt>
      <trkpt lat="45.52195" lon="6.07014">
        <ele>849</ele>
        <time>2012-10-30T10:19:08Z</time>
      </trkpt>
      <trkpt lat="45.52195" lon="6.07014">
        <ele>849</ele>
        <time>2012-10-30T10:19:12Z</time>
      </trkpt>
      <trkpt lat="45.52195" lon="6.07014">
        <ele>849</ele>
        <time>2012-10-30T10:19:16Z</time>
      </trkpt>
      <trkpt lat="45.52195" lon="6.07014">
        <ele>849</ele>
        <time>2012-10-30T10:19:20Z</time>
      </trkpt>
      <trkpt lat="45.52195" lon="6.07014">
        <ele>849</ele>
        <time>2012-10-30T10:19:24Z</time>
      </trkpt>
      <trkpt lat="45.52195" lon="6.07014">
        <ele>849</ele>
        <time>2012-10-30T10:19:28Z</time>
      </trkpt>
      <trkpt lat="45.52195" lon="6.07014">
        <ele>849</ele>
        <time>2012-10-30T10:19:32Z</time>
      </trkpt>
      <trkpt lat="45.52195" lon="6.07014">
        <ele>849</ele>
        <time>2012-10-30T10:19:36Z</time>
      </trkpt>
      <trkpt lat="45.52196" lon="6.07013">
        <ele>849</ele>
        <time>2012-10-30T10:19:40Z</time>
      </trkpt>
      <trkpt lat="45.52196" lon="6.07013">
        <ele>849</ele>
        <time>2012-10-30T10:19:44Z</time>
      </trkpt>
      <trkpt lat="45.52196" lon="6.07012">
        <ele>849</ele>
        <time>2012-10-30T10:19:48Z</time>
      </trkpt>
      <trkpt lat="45.52197" lon="6.07011">
        <ele>849.5</ele>
        <time>2012-10-30T10:19:52Z</time>
      </trkpt>
      <trkpt lat="45.52198" lon="6.07011">
        <ele>849.5</ele>
        <time>2012-10-30T10:19:56Z</time>
      </trkpt>
      <trkpt lat="45.52199" lon="6.07011">
        <ele>849.9</ele>
        <time>2012-10-30T10:20:00Z</time>
      </trkpt>
      <trkpt lat="45.52201" lon="6.07012">
        <ele>850.4</ele>
        <time>2012-10-30T10:20:04Z</time>
      </trkpt>
      <trkpt lat="45.52203" lon="6.07014">
        <ele>851.9</ele>
        <time>2012-10-30T10:20:08Z</time>
      </trkpt>
      <trkpt lat="45.52204" lon="6.07014">
        <ele>852.3</ele>
        <time>2012-10-30T10:20:12Z</time>
      </trkpt>
      <trkpt lat="45.52206" lon="6.07016">
        <ele>852.8</ele>
        <time>2012-10-30T10:20:16Z</time>
      </trkpt>
      <trkpt lat="45.52209" lon="6.07017">
        <ele>853.8</ele>
        <time>2012-10-30T10:20:20Z</time>
      </trkpt>
      <trkpt lat="45.52213" lon="6.07017">
        <ele>853.8</ele>
        <time>2012-10-30T10:20:24Z</time>
      </trkpt>
      <trkpt lat="45.52214" lon="6.07013">
        <ele>854.3</ele>
        <time>2012-10-30T10:20:28Z</time>
      </trkpt>
      <trkpt lat="45.52213" lon="6.0701">
        <ele>855.2</ele>
        <time>2012-10-30T10:20:32Z</time>
      </trkpt>
      <trkpt lat="45.52212" lon="6.07006">
        <ele>856.2</ele>
        <time>2012-10-30T10:20:36Z</time>
      </trkpt>
      <trkpt lat="45.52213" lon="6.07004">
        <ele>857.2</ele>
        <time>2012-10-30T10:20:40Z</time>
      </trkpt>
      <trkpt lat="45.52213" lon="6.07">
        <ele>858.1</ele>
        <time>2012-10-30T10:20:44Z</time>
      </trkpt>
      <trkpt lat="45.52212" lon="6.06996">
        <ele>860</ele>
        <time>2012-10-30T10:20:48Z</time>
      </trkpt>
      <trkpt lat="45.52211" lon="6.06993">
        <ele>861.5</ele>
        <time>2012-10-30T10:20:52Z</time>
      </trkpt>
      <trkpt lat="45.5221" lon="6.06991">
        <ele>862.9</ele>
        <time>2012-10-30T10:20:56Z</time>
      </trkpt>
      <trkpt lat="45.52209" lon="6.06987">
        <ele>864.4</ele>
        <time>2012-10-30T10:21:00Z</time>
      </trkpt>
      <trkpt lat="45.52209" lon="6.06983">
        <ele>865.3</ele>
        <time>2012-10-30T10:21:04Z</time>
      </trkpt>
      <trkpt lat="45.52208" lon="6.06978">
        <ele>866.8</ele>
        <time>2012-10-30T10:21:08Z</time>
      </trkpt>
      <trkpt lat="45.52206" lon="6.06973">
        <ele>868.2</ele>
        <time>2012-10-30T10:21:12Z</time>
      </trkpt>
      <trkpt lat="45.52205" lon="6.06969">
        <ele>869.6</ele>
        <time>2012-10-30T10:21:16Z</time>
      </trkpt>
      <trkpt lat="45.52204" lon="6.06966">
        <ele>870.6</ele>
        <time>2012-10-30T10:21:20Z</time>
      </trkpt>
      <trkpt lat="45.52203" lon="6.06961">
        <ele>871.1</ele>
        <time>2012-10-30T10:21:24Z</time>
      </trkpt>
      <trkpt lat="45.52201" lon="6.06957">
        <ele>872.5</ele>
        <time>2012-10-30T10:21:28Z</time>
      </trkpt>
      <trkpt lat="45.522" lon="6.06953">
        <ele>873.5</ele>
        <time>2012-10-30T10:21:32Z</time>
      </trkpt>
      <trkpt lat="45.522" lon="6.06949">
        <ele>874</ele>
        <time>2012-10-30T10:21:36Z</time>
      </trkpt>
      <trkpt lat="45.522" lon="6.06944">
        <ele>874</ele>
        <time>2012-10-30T10:21:40Z</time>
      </trkpt>
      <trkpt lat="45.52199" lon="6.06938">
        <ele>874</ele>
        <time>2012-10-30T10:21:44Z</time>
      </trkpt>
      <trkpt lat="45.52199" lon="6.06934">
        <ele>874</ele>
        <time>2012-10-30T10:21:48Z</time>
      </trkpt>
      <trkpt lat="45.52199" lon="6.06929">
        <ele>874</ele>
        <time>2012-10-30T10:21:52Z</time>
      </trkpt>
      <trkpt lat="45.52198" lon="6.06926">
        <ele>874.5</ele>
        <time>2012-10-30T10:21:56Z</time>
      </trkpt>
      <trkpt lat="45.52197" lon="6.06923">
        <ele>875.4</ele>
        <time>2012-10-30T10:22:00Z</time>
      </trkpt>
      <trkpt lat="45.52195" lon="6.06919">
        <ele>876.9</ele>
        <time>2012-10-30T10:22:04Z</time>
      </trkpt>
      <trkpt lat="45.52194" lon="6.06915">
        <ele>877.3</ele>
        <time>2012-10-30T10:22:08Z</time>
      </trkpt>
      <trkpt lat="45.52193" lon="6.06911">
        <ele>877.8</ele>
        <time>2012-10-30T10:22:12Z</time>
      </trkpt>
      <trkpt lat="45.52191" lon="6.06908">
        <ele>877.8</ele>
        <time>2012-10-30T10:22:16Z</time>
      </trkpt>
      <trkpt lat="45.5219" lon="6.06905">
        <ele>878.8</ele>
        <time>2012-10-30T10:22:20Z</time>
      </trkpt>
      <trkpt lat="45.52188" lon="6.06902">
        <ele>879.3</ele>
        <time>2012-10-30T10:22:24Z</time>
      </trkpt>
      <trkpt lat="45.52187" lon="6.06898">
        <ele>879.3</ele>
        <time>2012-10-30T10:22:28Z</time>
      </trkpt>
      <trkpt lat="45.52186" lon="6.06894">
        <ele>879.7</ele>
        <time>2012-10-30T10:22:32Z</time>
      </trkpt>
      <trkpt lat="45.52185" lon="6.0689">
        <ele>880.2</ele>
        <time>2012-10-30T10:22:36Z</time>
      </trkpt>
      <trkpt lat="45.52185" lon="6.06886">
        <ele>881.2</ele>
        <time>2012-10-30T10:22:40Z</time>
      </trkpt>
      <trkpt lat="45.52185" lon="6.06883">
        <ele>881.2</ele>
        <time>2012-10-30T10:22:44Z</time>
      </trkpt>
      <trkpt lat="45.52186" lon="6.06879">
        <ele>880.7</ele>
        <time>2012-10-30T10:22:48Z</time>
      </trkpt>
      <trkpt lat="45.52187" lon="6.06875">
        <ele>881.2</ele>
        <time>2012-10-30T10:22:52Z</time>
      </trkpt>
      <trkpt lat="45.52187" lon="6.06871">
        <ele>882.1</ele>
        <time>2012-10-30T10:22:56Z</time>
      </trkpt>
      <trkpt lat="45.52187" lon="6.06869">
        <ele>882.6</ele>
        <time>2012-10-30T10:23:00Z</time>
      </trkpt>
      <trkpt lat="45.52186" lon="6.06869">
        <ele>883.1</ele>
        <time>2012-10-30T10:23:04Z</time>
      </trkpt>
      <trkpt lat="45.52186" lon="6.06869">
        <ele>883.1</ele>
        <time>2012-10-30T10:23:08Z</time>
      </trkpt>
      <trkpt lat="45.52186" lon="6.06869">
        <ele>883.1</ele>
        <time>2012-10-30T10:23:12Z</time>
      </trkpt>
      <trkpt lat="45.52186" lon="6.06869">
        <ele>883.1</ele>
        <time>2012-10-30T10:23:16Z</time>
      </trkpt>
      <trkpt lat="45.52186" lon="6.06869">
        <ele>883.1</ele>
        <time>2012-10-30T10:23:20Z</time>
      </trkpt>
      <trkpt lat="45.52186" lon="6.06869">
        <ele>883.1</ele>
        <time>2012-10-30T10:23:24Z</time>
      </trkpt>
      <trkpt lat="45.52186" lon="6.06869">
        <ele>883.1</ele>
        <time>2012-10-30T10:23:28Z</time>
      </trkpt>
      <trkpt lat="45.52187" lon="6.06867">
        <ele>883.1</ele>
        <time>2012-10-30T10:23:32Z</time>
      </trkpt>
      <trkpt lat="45.52188" lon="6.06862">
        <ele>883.6</ele>
        <time>2012-10-30T10:23:36Z</time>
      </trkpt>
      <trkpt lat="45.52188" lon="6.06858">
        <ele>884.1</ele>
        <time>2012-10-30T10:23:40Z</time>
      </trkpt>
      <trkpt lat="45.52189" lon="6.06854">
        <ele>884.6</ele>
        <time>2012-10-30T10:23:44Z</time>
      </trkpt>
      <trkpt lat="45.5219" lon="6.06851">
        <ele>885.5</ele>
        <time>2012-10-30T10:23:48Z</time>
      </trkpt>
      <trkpt lat="45.5219" lon="6.06846">
        <ele>886</ele>
        <time>2012-10-30T10:23:52Z</time>
      </trkpt>
      <trkpt lat="45.5219" lon="6.06842">
        <ele>886.5</ele>
        <time>2012-10-30T10:23:56Z</time>
      </trkpt>
      <trkpt lat="45.52191" lon="6.0684">
        <ele>887.4</ele>
        <time>2012-10-30T10:24:00Z</time>
      </trkpt>
      <trkpt lat="45.52192" lon="6.06838">
        <ele>888.9</ele>
        <time>2012-10-30T10:24:04Z</time>
      </trkpt>
      <trkpt lat="45.52193" lon="6.06834">
        <ele>888.9</ele>
        <time>2012-10-30T10:24:08Z</time>
      </trkpt>
      <trkpt lat="45.52194" lon="6.06831">
        <ele>888.9</ele>
        <time>2012-10-30T10:24:12Z</time>
      </trkpt>
      <trkpt lat="45.52195" lon="6.06827">
        <ele>888.9</ele>
        <time>2012-10-30T10:24:16Z</time>
      </trkpt>
      <trkpt lat="45.52195" lon="6.06823">
        <ele>888.9</ele>
        <time>2012-10-30T10:24:20Z</time>
      </trkpt>
      <trkpt lat="45.52195" lon="6.06821">
        <ele>889.4</ele>
        <time>2012-10-30T10:24:24Z</time>
      </trkpt>
      <trkpt lat="45.52196" lon="6.06816">
        <ele>889.8</ele>
        <time>2012-10-30T10:24:28Z</time>
      </trkpt>
      <trkpt lat="45.52198" lon="6.06815">
        <ele>889.8</ele>
        <time>2012-10-30T10:24:32Z</time>
      </trkpt>
      <trkpt lat="45.52198" lon="6.0681">
        <ele>889.8</ele>
        <time>2012-10-30T10:24:36Z</time>
      </trkpt>
      <trkpt lat="45.52199" lon="6.06807">
        <ele>889.8</ele>
        <time>2012-10-30T10:24:40Z</time>
      </trkpt>
      <trkpt lat="45.52199" lon="6.06802">
        <ele>890.8</ele>
        <time>2012-10-30T10:24:44Z</time>
      </trkpt>
      <trkpt lat="45.52199" lon="6.06798">
        <ele>891.3</ele>
        <time>2012-10-30T10:24:48Z</time>
      </trkpt>
      <trkpt lat="45.52199" lon="6.06793">
        <ele>892.2</ele>
        <time>2012-10-30T10:24:52Z</time>
      </trkpt>
      <trkpt lat="45.52199" lon="6.06789">
        <ele>893.2</ele>
        <time>2012-10-30T10:24:56Z</time>
      </trkpt>
      <trkpt lat="45.522" lon="6.06784">
        <ele>894.2</ele>
        <time>2012-10-30T10:25:00Z</time>
      </trkpt>
      <trkpt lat="45.522" lon="6.06779">
        <ele>894.6</ele>
        <time>2012-10-30T10:25:04Z</time>
      </trkpt>
      <trkpt lat="45.522" lon="6.06775">
        <ele>895.6</ele>
        <time>2012-10-30T10:25:08Z</time>
      </trkpt>
      <trkpt lat="45.52202" lon="6.06771">
        <ele>896.1</ele>
        <time>2012-10-30T10:25:12Z</time>
      </trkpt>
      <trkpt lat="45.52202" lon="6.06767">
        <ele>896.6</ele>
        <time>2012-10-30T10:25:16Z</time>
      </trkpt>
      <trkpt lat="45.52203" lon="6.06764">
        <ele>896.6</ele>
        <time>2012-10-30T10:25:20Z</time>
      </trkpt>
      <trkpt lat="45.52204" lon="6.06759">
        <ele>897</ele>
        <time>2012-10-30T10:25:24Z</time>
      </trkpt>
      <trkpt lat="45.52205" lon="6.06755">
        <ele>896.6</ele>
        <time>2012-10-30T10:25:28Z</time>
      </trkpt>
      <trkpt lat="45.52204" lon="6.0675">
        <ele>896.6</ele>
        <time>2012-10-30T10:25:32Z</time>
      </trkpt>
      <trkpt lat="45.52203" lon="6.06746">
        <ele>897</ele>
        <time>2012-10-30T10:25:36Z</time>
      </trkpt>
      <trkpt lat="45.52202" lon="6.06742">
        <ele>897.5</ele>
        <time>2012-10-30T10:25:40Z</time>
      </trkpt>
      <trkpt lat="45.52203" lon="6.06736">
        <ele>897.5</ele>
        <time>2012-10-30T10:25:44Z</time>
      </trkpt>
      <trkpt lat="45.52203" lon="6.06732">
        <ele>897.5</ele>
        <time>2012-10-30T10:25:48Z</time>
      </trkpt>
      <trkpt lat="45.52203" lon="6.06729">
        <ele>898.5</ele>
        <time>2012-10-30T10:25:52Z</time>
      </trkpt>
      <trkpt lat="45.52203" lon="6.06726">
        <ele>899</ele>
        <time>2012-10-30T10:25:56Z</time>
      </trkpt>
      <trkpt lat="45.52203" lon="6.06722">
        <ele>899</ele>
        <time>2012-10-30T10:26:00Z</time>
      </trkpt>
      <trkpt lat="45.52203" lon="6.06719">
        <ele>899.5</ele>
        <time>2012-10-30T10:26:04Z</time>
      </trkpt>
      <trkpt lat="45.52202" lon="6.06715">
        <ele>899.9</ele>
        <time>2012-10-30T10:26:08Z</time>
      </trkpt>
      <trkpt lat="45.52202" lon="6.06711">
        <ele>901.4</ele>
        <time>2012-10-30T10:26:12Z</time>
      </trkpt>
      <trkpt lat="45.52201" lon="6.06706">
        <ele>902.3</ele>
        <time>2012-10-30T10:26:16Z</time>
      </trkpt>
      <trkpt lat="45.52199" lon="6.06702">
        <ele>903.8</ele>
        <time>2012-10-30T10:26:20Z</time>
      </trkpt>
      <trkpt lat="45.52198" lon="6.06698">
        <ele>905.7</ele>
        <time>2012-10-30T10:26:24Z</time>
      </trkpt>
      <trkpt lat="45.52196" lon="6.06695">
        <ele>908.1</ele>
        <time>2012-10-30T10:26:28Z</time>
      </trkpt>
      <trkpt lat="45.52195" lon="6.06691">
        <ele>910</ele>
        <time>2012-10-30T10:26:32Z</time>
      </trkpt>
      <trkpt lat="45.52194" lon="6.06688">
        <ele>911.9</ele>
        <time>2012-10-30T10:26:36Z</time>
      </trkpt>
      <trkpt lat="45.52194" lon="6.06685">
        <ele>912.9</ele>
        <time>2012-10-30T10:26:40Z</time>
      </trkpt>
      <trkpt lat="45.52193" lon="6.06685">
        <ele>913.9</ele>
        <time>2012-10-30T10:26:44Z</time>
      </trkpt>
      <trkpt lat="45.52193" lon="6.06685">
        <ele>914.4</ele>
        <time>2012-10-30T10:26:48Z</time>
      </trkpt>
      <trkpt lat="45.52193" lon="6.06685">
        <ele>914.4</ele>
        <time>2012-10-30T10:26:52Z</time>
      </trkpt>
      <trkpt lat="45.52193" lon="6.06685">
        <ele>914.4</ele>
        <time>2012-10-30T10:26:56Z</time>
      </trkpt>
      <trkpt lat="45.52192" lon="6.06682">
        <ele>915.3</ele>
        <time>2012-10-30T10:27:00Z</time>
      </trkpt>
      <trkpt lat="45.52191" lon="6.06679">
        <ele>916.3</ele>
        <time>2012-10-30T10:27:04Z</time>
      </trkpt>
      <trkpt lat="45.5219" lon="6.06675">
        <ele>916.8</ele>
        <time>2012-10-30T10:27:08Z</time>
      </trkpt>
      <trkpt lat="45.52188" lon="6.06672">
        <ele>919.6</ele>
        <time>2012-10-30T10:27:12Z</time>
      </trkpt>
      <trkpt lat="45.52187" lon="6.06669">
        <ele>921.6</ele>
        <time>2012-10-30T10:27:16Z</time>
      </trkpt>
      <trkpt lat="45.52187" lon="6.06666">
        <ele>923.5</ele>
        <time>2012-10-30T10:27:20Z</time>
      </trkpt>
      <trkpt lat="45.52186" lon="6.06663">
        <ele>925.4</ele>
        <time>2012-10-30T10:27:24Z</time>
      </trkpt>
      <trkpt lat="45.52184" lon="6.06659">
        <ele>926.8</ele>
        <time>2012-10-30T10:27:28Z</time>
      </trkpt>
      <trkpt lat="45.52184" lon="6.06657">
        <ele>927.8</ele>
        <time>2012-10-30T10:27:32Z</time>
      </trkpt>
      <trkpt lat="45.52183" lon="6.06652">
        <ele>929.3</ele>
        <time>2012-10-30T10:27:36Z</time>
      </trkpt>
      <trkpt lat="45.52182" lon="6.06649">
        <ele>929.7</ele>
        <time>2012-10-30T10:27:40Z</time>
      </trkpt>
      <trkpt lat="45.5218" lon="6.06646">
        <ele>930.7</ele>
        <time>2012-10-30T10:27:44Z</time>
      </trkpt>
      <trkpt lat="45.5218" lon="6.06643">
        <ele>931.2</ele>
        <time>2012-10-30T10:27:48Z</time>
      </trkpt>
      <trkpt lat="45.52179" lon="6.06639">
        <ele>932.6</ele>
        <time>2012-10-30T10:27:52Z</time>
      </trkpt>
      <trkpt lat="45.52179" lon="6.06635">
        <ele>934.5</ele>
        <time>2012-10-30T10:27:56Z</time>
      </trkpt>
      <trkpt lat="45.5218" lon="6.06632">
        <ele>935.5</ele>
        <time>2012-10-30T10:28:00Z</time>
      </trkpt>
      <trkpt lat="45.5218" lon="6.06632">
        <ele>935.5</ele>
        <time>2012-10-30T10:28:04Z</time>
      </trkpt>
      <trkpt lat="45.5218" lon="6.06632">
        <ele>935.5</ele>
        <time>2012-10-30T10:28:08Z</time>
      </trkpt>
      <trkpt lat="45.5218" lon="6.06633">
        <ele>935.5</ele>
        <time>2012-10-30T10:28:12Z</time>
      </trkpt>
      <trkpt lat="45.5218" lon="6.06633">
        <ele>935.5</ele>
        <time>2012-10-30T10:28:16Z</time>
      </trkpt>
      <trkpt lat="45.52179" lon="6.06633">
        <ele>936</ele>
        <time>2012-10-30T10:28:20Z</time>
      </trkpt>
      <trkpt lat="45.5218" lon="6.06633">
        <ele>936</ele>
        <time>2012-10-30T10:28:24Z</time>
      </trkpt>
      <trkpt lat="45.52182" lon="6.06633">
        <ele>935.5</ele>
        <time>2012-10-30T10:28:28Z</time>
      </trkpt>
      <trkpt lat="45.52185" lon="6.06633">
        <ele>936</ele>
        <time>2012-10-30T10:28:32Z</time>
      </trkpt>
      <trkpt lat="45.52188" lon="6.06633">
        <ele>936</ele>
        <time>2012-10-30T10:28:36Z</time>
      </trkpt>
      <trkpt lat="45.52191" lon="6.06635">
        <ele>936.5</ele>
        <time>2012-10-30T10:28:40Z</time>
      </trkpt>
      <trkpt lat="45.52192" lon="6.06637">
        <ele>936.9</ele>
        <time>2012-10-30T10:28:44Z</time>
      </trkpt>
      <trkpt lat="45.52193" lon="6.06639">
        <ele>938.4</ele>
        <time>2012-10-30T10:28:48Z</time>
      </trkpt>
      <trkpt lat="45.52194" lon="6.06641">
        <ele>940.8</ele>
        <time>2012-10-30T10:28:52Z</time>
      </trkpt>
      <trkpt lat="45.52197" lon="6.06642">
        <ele>942.7</ele>
        <time>2012-10-30T10:28:56Z</time>
      </trkpt>
      <trkpt lat="45.522" lon="6.06639">
        <ele>944.6</ele>
        <time>2012-10-30T10:29:00Z</time>
      </trkpt>
      <trkpt lat="45.52201" lon="6.06636">
        <ele>946.1</ele>
        <time>2012-10-30T10:29:04Z</time>
      </trkpt>
      <trkpt lat="45.522" lon="6.06635">
        <ele>948</ele>
        <time>2012-10-30T10:29:08Z</time>
      </trkpt>
      <trkpt lat="45.522" lon="6.06632">
        <ele>949.4</ele>
        <time>2012-10-30T10:29:12Z</time>
      </trkpt>
      <trkpt lat="45.522" lon="6.0663">
        <ele>950.9</ele>
        <time>2012-10-30T10:29:16Z</time>
      </trkpt>
      <trkpt lat="45.52199" lon="6.06627">
        <ele>952.8</ele>
        <time>2012-10-30T10:29:20Z</time>
      </trkpt>
      <trkpt lat="45.52198" lon="6.06625">
        <ele>954.2</ele>
        <time>2012-10-30T10:29:24Z</time>
      </trkpt>
      <trkpt lat="45.52198" lon="6.06622">
        <ele>955.7</ele>
        <time>2012-10-30T10:29:28Z</time>
      </trkpt>
      <trkpt lat="45.52198" lon="6.06618">
        <ele>957.1</ele>
        <time>2012-10-30T10:29:32Z</time>
      </trkpt>
      <trkpt lat="45.52199" lon="6.06615">
        <ele>958.1</ele>
        <time>2012-10-30T10:29:36Z</time>
      </trkpt>
      <trkpt lat="45.52198" lon="6.06611">
        <ele>958.6</ele>
        <time>2012-10-30T10:29:40Z</time>
      </trkpt>
      <trkpt lat="45.52197" lon="6.06608">
        <ele>959.1</ele>
        <time>2012-10-30T10:29:44Z</time>
      </trkpt>
      <trkpt lat="45.52197" lon="6.06604">
        <ele>960</ele>
        <time>2012-10-30T10:29:48Z</time>
      </trkpt>
      <trkpt lat="45.52196" lon="6.06602">
        <ele>961</ele>
        <time>2012-10-30T10:29:52Z</time>
      </trkpt>
      <trkpt lat="45.52195" lon="6.06601">
        <ele>962.9</ele>
        <time>2012-10-30T10:29:56Z</time>
      </trkpt>
      <trkpt lat="45.52191" lon="6.06604">
        <ele>964.8</ele>
        <time>2012-10-30T10:30:00Z</time>
      </trkpt>
      <trkpt lat="45.52189" lon="6.06603">
        <ele>967.7</ele>
        <time>2012-10-30T10:30:04Z</time>
      </trkpt>
      <trkpt lat="45.5219" lon="6.06599">
        <ele>969.1</ele>
        <time>2012-10-30T10:30:08Z</time>
      </trkpt>
      <trkpt lat="45.5219" lon="6.06596">
        <ele>971.1</ele>
        <time>2012-10-30T10:30:12Z</time>
      </trkpt>
      <trkpt lat="45.52189" lon="6.06594">
        <ele>972</ele>
        <time>2012-10-30T10:30:16Z</time>
      </trkpt>
      <trkpt lat="45.52189" lon="6.0659">
        <ele>973</ele>
        <time>2012-10-30T10:30:20Z</time>
      </trkpt>
      <trkpt lat="45.52187" lon="6.06587">
        <ele>973.5</ele>
        <time>2012-10-30T10:30:24Z</time>
      </trkpt>
      <trkpt lat="45.52187" lon="6.06582">
        <ele>974</ele>
        <time>2012-10-30T10:30:28Z</time>
      </trkpt>
      <trkpt lat="45.52186" lon="6.06579">
        <ele>974.4</ele>
        <time>2012-10-30T10:30:32Z</time>
      </trkpt>
      <trkpt lat="45.52185" lon="6.06575">
        <ele>975.4</ele>
        <time>2012-10-30T10:30:36Z</time>
      </trkpt>
      <trkpt lat="45.52183" lon="6.06571">
        <ele>976.4</ele>
        <time>2012-10-30T10:30:40Z</time>
      </trkpt>
      <trkpt lat="45.52183" lon="6.06569">
        <ele>977.8</ele>
        <time>2012-10-30T10:30:44Z</time>
      </trkpt>
      <trkpt lat="45.52183" lon="6.06564">
        <ele>978.3</ele>
        <time>2012-10-30T10:30:48Z</time>
      </trkpt>
      <trkpt lat="45.52183" lon="6.06559">
        <ele>979.2</ele>
        <time>2012-10-30T10:30:52Z</time>
      </trkpt>
      <trkpt lat="45.52184" lon="6.06554">
        <ele>979.7</ele>
        <time>2012-10-30T10:30:56Z</time>
      </trkpt>
      <trkpt lat="45.52183" lon="6.06551">
        <ele>980.7</ele>
        <time>2012-10-30T10:31:00Z</time>
      </trkpt>
      <trkpt lat="45.52182" lon="6.06549">
        <ele>982.1</ele>
        <time>2012-10-30T10:31:04Z</time>
      </trkpt>
      <trkpt lat="45.52181" lon="6.06547">
        <ele>983.6</ele>
        <time>2012-10-30T10:31:08Z</time>
      </trkpt>
      <trkpt lat="45.52181" lon="6.06544">
        <ele>985</ele>
        <time>2012-10-30T10:31:12Z</time>
      </trkpt>
      <trkpt lat="45.5218" lon="6.06541">
        <ele>986</ele>
        <time>2012-10-30T10:31:16Z</time>
      </trkpt>
      <trkpt lat="45.52179" lon="6.06537">
        <ele>986.4</ele>
        <time>2012-10-30T10:31:20Z</time>
      </trkpt>
      <trkpt lat="45.52178" lon="6.06535">
        <ele>986.4</ele>
        <time>2012-10-30T10:31:24Z</time>
      </trkpt>
      <trkpt lat="45.52176" lon="6.06532">
        <ele>986.9</ele>
        <time>2012-10-30T10:31:28Z</time>
      </trkpt>
      <trkpt lat="45.52176" lon="6.06528">
        <ele>987.4</ele>
        <time>2012-10-30T10:31:32Z</time>
      </trkpt>
      <trkpt lat="45.52174" lon="6.06525">
        <ele>987.4</ele>
        <time>2012-10-30T10:31:36Z</time>
      </trkpt>
      <trkpt lat="45.52172" lon="6.06521">
        <ele>987.4</ele>
        <time>2012-10-30T10:31:40Z</time>
      </trkpt>
      <trkpt lat="45.5217" lon="6.06518">
        <ele>987.4</ele>
        <time>2012-10-30T10:31:44Z</time>
      </trkpt>
      <trkpt lat="45.52169" lon="6.06515">
        <ele>987.9</ele>
        <time>2012-10-30T10:31:48Z</time>
      </trkpt>
      <trkpt lat="45.52168" lon="6.06514">
        <ele>988.9</ele>
        <time>2012-10-30T10:31:52Z</time>
      </trkpt>
      <trkpt lat="45.52167" lon="6.0651">
        <ele>989.8</ele>
        <time>2012-10-30T10:31:56Z</time>
      </trkpt>
      <trkpt lat="45.52165" lon="6.06507">
        <ele>991.3</ele>
        <time>2012-10-30T10:32:00Z</time>
      </trkpt>
      <trkpt lat="45.52162" lon="6.06505">
        <ele>992.2</ele>
        <time>2012-10-30T10:32:04Z</time>
      </trkpt>
      <trkpt lat="45.5216" lon="6.065">
        <ele>993.2</ele>
        <time>2012-10-30T10:32:08Z</time>
      </trkpt>
      <trkpt lat="45.52158" lon="6.06497">
        <ele>995.1</ele>
        <time>2012-10-30T10:32:12Z</time>
      </trkpt>
      <trkpt lat="45.52156" lon="6.06493">
        <ele>996.1</ele>
        <time>2012-10-30T10:32:16Z</time>
      </trkpt>
      <trkpt lat="45.52154" lon="6.06487">
        <ele>997</ele>
        <time>2012-10-30T10:32:20Z</time>
      </trkpt>
      <trkpt lat="45.52154" lon="6.06481">
        <ele>997.5</ele>
        <time>2012-10-30T10:32:24Z</time>
      </trkpt>
      <trkpt lat="45.52154" lon="6.06475">
        <ele>998</ele>
        <time>2012-10-30T10:32:28Z</time>
      </trkpt>
      <trkpt lat="45.52155" lon="6.06471">
        <ele>998.5</ele>
        <time>2012-10-30T10:32:32Z</time>
      </trkpt>
      <trkpt lat="45.52155" lon="6.06465">
        <ele>998.5</ele>
        <time>2012-10-30T10:32:36Z</time>
      </trkpt>
      <trkpt lat="45.52155" lon="6.06461">
        <ele>998.5</ele>
        <time>2012-10-30T10:32:40Z</time>
      </trkpt>
      <trkpt lat="45.52154" lon="6.06456">
        <ele>998.5</ele>
        <time>2012-10-30T10:32:44Z</time>
      </trkpt>
      <trkpt lat="45.52154" lon="6.06452">
        <ele>998.9</ele>
        <time>2012-10-30T10:32:48Z</time>
      </trkpt>
      <trkpt lat="45.52154" lon="6.06447">
        <ele>998.5</ele>
        <time>2012-10-30T10:32:52Z</time>
      </trkpt>
      <trkpt lat="45.52153" lon="6.06441">
        <ele>998</ele>
        <time>2012-10-30T10:32:56Z</time>
      </trkpt>
      <trkpt lat="45.52153" lon="6.06436">
        <ele>997</ele>
        <time>2012-10-30T10:33:00Z</time>
      </trkpt>
      <trkpt lat="45.52152" lon="6.06432">
        <ele>996.5</ele>
        <time>2012-10-30T10:33:04Z</time>
      </trkpt>
      <trkpt lat="45.52152" lon="6.06429">
        <ele>996.5</ele>
        <time>2012-10-30T10:33:08Z</time>
      </trkpt>
      <trkpt lat="45.52151" lon="6.06423">
        <ele>995.1</ele>
        <time>2012-10-30T10:33:12Z</time>
      </trkpt>
      <trkpt lat="45.5215" lon="6.06419">
        <ele>995.1</ele>
        <time>2012-10-30T10:33:16Z</time>
      </trkpt>
      <trkpt lat="45.5215" lon="6.06416">
        <ele>994.6</ele>
        <time>2012-10-30T10:33:20Z</time>
      </trkpt>
      <trkpt lat="45.52149" lon="6.06412">
        <ele>994.6</ele>
        <time>2012-10-30T10:33:24Z</time>
      </trkpt>
      <trkpt lat="45.52148" lon="6.06409">
        <ele>994.6</ele>
        <time>2012-10-30T10:33:28Z</time>
      </trkpt>
      <trkpt lat="45.52149" lon="6.06407">
        <ele>994.6</ele>
        <time>2012-10-30T10:33:32Z</time>
      </trkpt>
      <trkpt lat="45.5215" lon="6.06405">
        <ele>994.1</ele>
        <time>2012-10-30T10:33:36Z</time>
      </trkpt>
      <trkpt lat="45.5215" lon="6.06405">
        <ele>994.1</ele>
        <time>2012-10-30T10:33:40Z</time>
      </trkpt>
      <trkpt lat="45.5215" lon="6.064">
        <ele>993.7</ele>
        <time>2012-10-30T10:33:44Z</time>
      </trkpt>
      <trkpt lat="45.52149" lon="6.06395">
        <ele>992.7</ele>
        <time>2012-10-30T10:33:48Z</time>
      </trkpt>
      <trkpt lat="45.52148" lon="6.06391">
        <ele>992.2</ele>
        <time>2012-10-30T10:33:52Z</time>
      </trkpt>
      <trkpt lat="45.52148" lon="6.06388">
        <ele>992.2</ele>
        <time>2012-10-30T10:33:56Z</time>
      </trkpt>
      <trkpt lat="45.52149" lon="6.06385">
        <ele>991.7</ele>
        <time>2012-10-30T10:34:00Z</time>
      </trkpt>
      <trkpt lat="45.52149" lon="6.06381">
        <ele>991.3</ele>
        <time>2012-10-30T10:34:04Z</time>
      </trkpt>
      <trkpt lat="45.52149" lon="6.06377">
        <ele>989.3</ele>
        <time>2012-10-30T10:34:08Z</time>
      </trkpt>
      <trkpt lat="45.52148" lon="6.06374">
        <ele>987.9</ele>
        <time>2012-10-30T10:34:12Z</time>
      </trkpt>
      <trkpt lat="45.52146" lon="6.06371">
        <ele>986</ele>
        <time>2012-10-30T10:34:16Z</time>
      </trkpt>
      <trkpt lat="45.52144" lon="6.06368">
        <ele>985</ele>
        <time>2012-10-30T10:34:20Z</time>
      </trkpt>
      <trkpt lat="45.52141" lon="6.06365">
        <ele>983.6</ele>
        <time>2012-10-30T10:34:24Z</time>
      </trkpt>
      <trkpt lat="45.52137" lon="6.06363">
        <ele>983.6</ele>
        <time>2012-10-30T10:34:28Z</time>
      </trkpt>
      <trkpt lat="45.52133" lon="6.0636">
        <ele>985.5</ele>
        <time>2012-10-30T10:34:32Z</time>
      </trkpt>
      <trkpt lat="45.52131" lon="6.06356">
        <ele>987.4</ele>
        <time>2012-10-30T10:34:36Z</time>
      </trkpt>
      <trkpt lat="45.52129" lon="6.06351">
        <ele>989.3</ele>
        <time>2012-10-30T10:34:40Z</time>
      </trkpt>
      <trkpt lat="45.52127" lon="6.06346">
        <ele>991.3</ele>
        <time>2012-10-30T10:34:44Z</time>
      </trkpt>
      <trkpt lat="45.52126" lon="6.06342">
        <ele>993.2</ele>
        <time>2012-10-30T10:34:48Z</time>
      </trkpt>
      <trkpt lat="45.52124" lon="6.06338">
        <ele>994.6</ele>
        <time>2012-10-30T10:34:52Z</time>
      </trkpt>
      <trkpt lat="45.52124" lon="6.06333">
        <ele>996.1</ele>
        <time>2012-10-30T10:34:56Z</time>
      </trkpt>
      <trkpt lat="45.52122" lon="6.06328">
        <ele>997</ele>
        <time>2012-10-30T10:35:00Z</time>
      </trkpt>
      <trkpt lat="45.52121" lon="6.06322">
        <ele>997.5</ele>
        <time>2012-10-30T10:35:04Z</time>
      </trkpt>
      <trkpt lat="45.5212" lon="6.06317">
        <ele>998.9</ele>
        <time>2012-10-30T10:35:08Z</time>
      </trkpt>
      <trkpt lat="45.52118" lon="6.06312">
        <ele>999.9</ele>
        <time>2012-10-30T10:35:12Z</time>
      </trkpt>
      <trkpt lat="45.52115" lon="6.06307">
        <ele>1000.9</ele>
        <time>2012-10-30T10:35:16Z</time>
      </trkpt>
      <trkpt lat="45.52112" lon="6.06301">
        <ele>1001.8</ele>
        <time>2012-10-30T10:35:20Z</time>
      </trkpt>
      <trkpt lat="45.5211" lon="6.06295">
        <ele>1003.8</ele>
        <time>2012-10-30T10:35:24Z</time>
      </trkpt>
      <trkpt lat="45.52109" lon="6.0629">
        <ele>1005.2</ele>
        <time>2012-10-30T10:35:28Z</time>
      </trkpt>
      <trkpt lat="45.52109" lon="6.06284">
        <ele>1006.2</ele>
        <time>2012-10-30T10:35:32Z</time>
      </trkpt>
      <trkpt lat="45.52107" lon="6.06279">
        <ele>1006.6</ele>
        <time>2012-10-30T10:35:36Z</time>
      </trkpt>
      <trkpt lat="45.52106" lon="6.06273">
        <ele>1007.1</ele>
        <time>2012-10-30T10:35:40Z</time>
      </trkpt>
      <trkpt lat="45.52103" lon="6.06268">
        <ele>1008.1</ele>
        <time>2012-10-30T10:35:44Z</time>
      </trkpt>
      <trkpt lat="45.52102" lon="6.06262">
        <ele>1008.1</ele>
        <time>2012-10-30T10:35:48Z</time>
      </trkpt>
      <trkpt lat="45.521" lon="6.06256">
        <ele>1008.1</ele>
        <time>2012-10-30T10:35:52Z</time>
      </trkpt>
      <trkpt lat="45.52098" lon="6.06249">
        <ele>1008.1</ele>
        <time>2012-10-30T10:35:56Z</time>
      </trkpt>
      <trkpt lat="45.52099" lon="6.06243">
        <ele>1008.1</ele>
        <time>2012-10-30T10:36:00Z</time>
      </trkpt>
      <trkpt lat="45.52098" lon="6.06236">
        <ele>1007.6</ele>
        <time>2012-10-30T10:36:04Z</time>
      </trkpt>
      <trkpt lat="45.52097" lon="6.06229">
        <ele>1007.6</ele>
        <time>2012-10-30T10:36:08Z</time>
      </trkpt>
      <trkpt lat="45.52098" lon="6.06222">
        <ele>1007.1</ele>
        <time>2012-10-30T10:36:12Z</time>
      </trkpt>
      <trkpt lat="45.52097" lon="6.06215">
        <ele>1006.6</ele>
        <time>2012-10-30T10:36:16Z</time>
      </trkpt>
      <trkpt lat="45.52096" lon="6.06208">
        <ele>1006.6</ele>
        <time>2012-10-30T10:36:20Z</time>
      </trkpt>
      <trkpt lat="45.52094" lon="6.06201">
        <ele>1007.1</ele>
        <time>2012-10-30T10:36:24Z</time>
      </trkpt>
      <trkpt lat="45.52093" lon="6.06196">
        <ele>1008.6</ele>
        <time>2012-10-30T10:36:28Z</time>
      </trkpt>
      <trkpt lat="45.52092" lon="6.06191">
        <ele>1009</ele>
        <time>2012-10-30T10:36:32Z</time>
      </trkpt>
      <trkpt lat="45.52089" lon="6.06184">
        <ele>1009.5</ele>
        <time>2012-10-30T10:36:36Z</time>
      </trkpt>
      <trkpt lat="45.52087" lon="6.06177">
        <ele>1009.5</ele>
        <time>2012-10-30T10:36:40Z</time>
      </trkpt>
      <trkpt lat="45.52086" lon="6.06169">
        <ele>1010</ele>
        <time>2012-10-30T10:36:44Z</time>
      </trkpt>
      <trkpt lat="45.52085" lon="6.06162">
        <ele>1010.5</ele>
        <time>2012-10-30T10:36:48Z</time>
      </trkpt>
      <trkpt lat="45.52086" lon="6.06155">
        <ele>1011</ele>
        <time>2012-10-30T10:36:52Z</time>
      </trkpt>
      <trkpt lat="45.52087" lon="6.06149">
        <ele>1011.4</ele>
        <time>2012-10-30T10:36:56Z</time>
      </trkpt>
      <trkpt lat="45.52089" lon="6.06144">
        <ele>1012.4</ele>
        <time>2012-10-30T10:37:00Z</time>
      </trkpt>
      <trkpt lat="45.52091" lon="6.06139">
        <ele>1012.4</ele>
        <time>2012-10-30T10:37:04Z</time>
      </trkpt>
      <trkpt lat="45.52094" lon="6.06135">
        <ele>1012.9</ele>
        <time>2012-10-30T10:37:08Z</time>
      </trkpt>
      <trkpt lat="45.52096" lon="6.06128">
        <ele>1013.4</ele>
        <time>2012-10-30T10:37:12Z</time>
      </trkpt>
      <trkpt lat="45.52099" lon="6.06122">
        <ele>1013.4</ele>
        <time>2012-10-30T10:37:16Z</time>
      </trkpt>
      <trkpt lat="45.521" lon="6.06116">
        <ele>1012.9</ele>
        <time>2012-10-30T10:37:20Z</time>
      </trkpt>
      <trkpt lat="45.52102" lon="6.06112">
        <ele>1012.9</ele>
        <time>2012-10-30T10:37:24Z</time>
      </trkpt>
      <trkpt lat="45.52102" lon="6.0611">
        <ele>1012.9</ele>
        <time>2012-10-30T10:37:28Z</time>
      </trkpt>
      <trkpt lat="45.52102" lon="6.0611">
        <ele>1012.9</ele>
        <time>2012-10-30T10:37:32Z</time>
      </trkpt>
      <trkpt lat="45.52102" lon="6.0611">
        <ele>1012.9</ele>
        <time>2012-10-30T10:37:36Z</time>
      </trkpt>
      <trkpt lat="45.52102" lon="6.0611">
        <ele>1012.9</ele>
        <time>2012-10-30T10:37:40Z</time>
      </trkpt>
      <trkpt lat="45.52102" lon="6.0611">
        <ele>1012.4</ele>
        <time>2012-10-30T10:37:44Z</time>
      </trkpt>
      <trkpt lat="45.52102" lon="6.0611">
        <ele>1012.4</ele>
        <time>2012-10-30T10:37:48Z</time>
      </trkpt>
      <trkpt lat="45.52102" lon="6.0611">
        <ele>1012.4</ele>
        <time>2012-10-30T10:37:52Z</time>
      </trkpt>
      <trkpt lat="45.52102" lon="6.0611">
        <ele>1012.4</ele>
        <time>2012-10-30T10:37:56Z</time>
      </trkpt>
      <trkpt lat="45.52102" lon="6.0611">
        <ele>1012.4</ele>
        <time>2012-10-30T10:38:00Z</time>
      </trkpt>
      <trkpt lat="45.52102" lon="6.0611">
        <ele>1012.4</ele>
        <time>2012-10-30T10:38:04Z</time>
      </trkpt>
      <trkpt lat="45.52104" lon="6.06108">
        <ele>1012.9</ele>
        <time>2012-10-30T10:38:08Z</time>
      </trkpt>
      <trkpt lat="45.52107" lon="6.06105">
        <ele>1012.9</ele>
        <time>2012-10-30T10:38:12Z</time>
      </trkpt>
      <trkpt lat="45.52111" lon="6.061">
        <ele>1013.4</ele>
        <time>2012-10-30T10:38:16Z</time>
      </trkpt>
      <trkpt lat="45.52115" lon="6.06096">
        <ele>1014.3</ele>
        <time>2012-10-30T10:38:20Z</time>
      </trkpt>
      <trkpt lat="45.52117" lon="6.06092">
        <ele>1015.8</ele>
        <time>2012-10-30T10:38:24Z</time>
      </trkpt>
      <trkpt lat="45.52122" lon="6.06091">
        <ele>1017.2</ele>
        <time>2012-10-30T10:38:28Z</time>
      </trkpt>
      <trkpt lat="45.52125" lon="6.06088">
        <ele>1017.7</ele>
        <time>2012-10-30T10:38:32Z</time>
      </trkpt>
      <trkpt lat="45.52129" lon="6.06085">
        <ele>1017.2</ele>
        <time>2012-10-30T10:38:36Z</time>
      </trkpt>
      <trkpt lat="45.52131" lon="6.06081">
        <ele>1017.2</ele>
        <time>2012-10-30T10:38:40Z</time>
      </trkpt>
      <trkpt lat="45.52133" lon="6.06075">
        <ele>1016.7</ele>
        <time>2012-10-30T10:38:44Z</time>
      </trkpt>
      <trkpt lat="45.52139" lon="6.06069">
        <ele>1016.3</ele>
        <time>2012-10-30T10:38:48Z</time>
      </trkpt>
      <trkpt lat="45.52145" lon="6.06064">
        <ele>1016.3</ele>
        <time>2012-10-30T10:38:52Z</time>
      </trkpt>
      <trkpt lat="45.5215" lon="6.06061">
        <ele>1015.8</ele>
        <time>2012-10-30T10:38:56Z</time>
      </trkpt>
      <trkpt lat="45.52154" lon="6.06059">
        <ele>1015.8</ele>
        <time>2012-10-30T10:39:00Z</time>
      </trkpt>
      <trkpt lat="45.52158" lon="6.0606">
        <ele>1016.3</ele>
        <time>2012-10-30T10:39:04Z</time>
      </trkpt>
      <trkpt lat="45.5216" lon="6.06061">
        <ele>1016.3</ele>
        <time>2012-10-30T10:39:08Z</time>
      </trkpt>
      <trkpt lat="45.52161" lon="6.06061">
        <ele>1016.3</ele>
        <time>2012-10-30T10:39:12Z</time>
      </trkpt>
      <trkpt lat="45.52161" lon="6.06061">
        <ele>1015.8</ele>
        <time>2012-10-30T10:39:16Z</time>
      </trkpt>
      <trkpt lat="45.52161" lon="6.06061">
        <ele>1015.8</ele>
        <time>2012-10-30T10:39:20Z</time>
      </trkpt>
      <trkpt lat="45.52161" lon="6.06066">
        <ele>1015.8</ele>
        <time>2012-10-30T10:39:24Z</time>
      </trkpt>
      <trkpt lat="45.52159" lon="6.06072">
        <ele>1016.7</ele>
        <time>2012-10-30T10:39:28Z</time>
      </trkpt>
      <trkpt lat="45.52159" lon="6.06079">
        <ele>1018.2</ele>
        <time>2012-10-30T10:39:32Z</time>
      </trkpt>
      <trkpt lat="45.52161" lon="6.06085">
        <ele>1019.6</ele>
        <time>2012-10-30T10:39:36Z</time>
      </trkpt>
      <trkpt lat="45.52163" lon="6.06088">
        <ele>1021.1</ele>
        <time>2012-10-30T10:39:40Z</time>
      </trkpt>
      <trkpt lat="45.52166" lon="6.06088">
        <ele>1022</ele>
        <time>2012-10-30T10:39:44Z</time>
      </trkpt>
      <trkpt lat="45.52171" lon="6.06087">
        <ele>1023</ele>
        <time>2012-10-30T10:39:48Z</time>
      </trkpt>
      <trkpt lat="45.52176" lon="6.06085">
        <ele>1023.5</ele>
        <time>2012-10-30T10:39:52Z</time>
      </trkpt>
      <trkpt lat="45.5218" lon="6.06085">
        <ele>1023.5</ele>
        <time>2012-10-30T10:39:56Z</time>
      </trkpt>
      <trkpt lat="45.52182" lon="6.06086">
        <ele>1023.5</ele>
        <time>2012-10-30T10:40:00Z</time>
      </trkpt>
      <trkpt lat="45.52186" lon="6.06088">
        <ele>1023</ele>
        <time>2012-10-30T10:40:04Z</time>
      </trkpt>
      <trkpt lat="45.52187" lon="6.06095">
        <ele>1022.5</ele>
        <time>2012-10-30T10:40:08Z</time>
      </trkpt>
      <trkpt lat="45.52188" lon="6.061">
        <ele>1022.5</ele>
        <time>2012-10-30T10:40:12Z</time>
      </trkpt>
      <trkpt lat="45.5219" lon="6.06105">
        <ele>1022.5</ele>
        <time>2012-10-30T10:40:16Z</time>
      </trkpt>
      <trkpt lat="45.52191" lon="6.06108">
        <ele>1022.5</ele>
        <time>2012-10-30T10:40:20Z</time>
      </trkpt>
      <trkpt lat="45.52193" lon="6.06111">
        <ele>1022.5</ele>
        <time>2012-10-30T10:40:24Z</time>
      </trkpt>
      <trkpt lat="45.52194" lon="6.06115">
        <ele>1023</ele>
        <time>2012-10-30T10:40:28Z</time>
      </trkpt>
      <trkpt lat="45.52195" lon="6.0612">
        <ele>1023.5</ele>
        <time>2012-10-30T10:40:32Z</time>
      </trkpt>
      <trkpt lat="45.52194" lon="6.06125">
        <ele>1023.9</ele>
        <time>2012-10-30T10:40:36Z</time>
      </trkpt>
      <trkpt lat="45.52192" lon="6.06128">
        <ele>1024.4</ele>
        <time>2012-10-30T10:40:40Z</time>
      </trkpt>
      <trkpt lat="45.5219" lon="6.06131">
        <ele>1025.9</ele>
        <time>2012-10-30T10:40:44Z</time>
      </trkpt>
      <trkpt lat="45.52188" lon="6.06135">
        <ele>1026.8</ele>
        <time>2012-10-30T10:40:48Z</time>
      </trkpt>
      <trkpt lat="45.52186" lon="6.06139">
        <ele>1028.3</ele>
        <time>2012-10-30T10:40:52Z</time>
      </trkpt>
      <trkpt lat="45.52185" lon="6.06143">
        <ele>1029.7</ele>
        <time>2012-10-30T10:40:56Z</time>
      </trkpt>
      <trkpt lat="45.52184" lon="6.06148">
        <ele>1031.2</ele>
        <time>2012-10-30T10:41:00Z</time>
      </trkpt>
      <trkpt lat="45.52182" lon="6.06154">
        <ele>1032.1</ele>
        <time>2012-10-30T10:41:04Z</time>
      </trkpt>
      <trkpt lat="45.52182" lon="6.0616">
        <ele>1032.6</ele>
        <time>2012-10-30T10:41:08Z</time>
      </trkpt>
      <trkpt lat="45.52183" lon="6.06166">
        <ele>1032.6</ele>
        <time>2012-10-30T10:41:12Z</time>
      </trkpt>
      <trkpt lat="45.52181" lon="6.06173">
        <ele>1032.1</ele>
        <time>2012-10-30T10:41:16Z</time>
      </trkpt>
      <trkpt lat="45.5218" lon="6.06181">
        <ele>1032.6</ele>
        <time>2012-10-30T10:41:20Z</time>
      </trkpt>
      <trkpt lat="45.5218" lon="6.06188">
        <ele>1033.1</ele>
        <time>2012-10-30T10:41:24Z</time>
      </trkpt>
      <trkpt lat="45.5218" lon="6.06194">
        <ele>1034</ele>
        <time>2012-10-30T10:41:28Z</time>
      </trkpt>
      <trkpt lat="45.52182" lon="6.06199">
        <ele>1034.5</ele>
        <time>2012-10-30T10:41:32Z</time>
      </trkpt>
      <trkpt lat="45.52183" lon="6.06204">
        <ele>1035</ele>
        <time>2012-10-30T10:41:36Z</time>
      </trkpt>
      <trkpt lat="45.52184" lon="6.06209">
        <ele>1035</ele>
        <time>2012-10-30T10:41:40Z</time>
      </trkpt>
      <trkpt lat="45.52185" lon="6.06216">
        <ele>1034.5</ele>
        <time>2012-10-30T10:41:44Z</time>
      </trkpt>
      <trkpt lat="45.52186" lon="6.06222">
        <ele>1033.6</ele>
        <time>2012-10-30T10:41:48Z</time>
      </trkpt>
      <trkpt lat="45.52186" lon="6.06229">
        <ele>1033.6</ele>
        <time>2012-10-30T10:41:52Z</time>
      </trkpt>
      <trkpt lat="45.52187" lon="6.06235">
        <ele>1033.1</ele>
        <time>2012-10-30T10:41:56Z</time>
      </trkpt>
      <trkpt lat="45.52188" lon="6.06242">
        <ele>1032.1</ele>
        <time>2012-10-30T10:42:00Z</time>
      </trkpt>
      <trkpt lat="45.52188" lon="6.06248">
        <ele>1029.7</ele>
        <time>2012-10-30T10:42:04Z</time>
      </trkpt>
      <trkpt lat="45.52188" lon="6.06256">
        <ele>1027.8</ele>
        <time>2012-10-30T10:42:08Z</time>
      </trkpt>
      <trkpt lat="45.52188" lon="6.06262">
        <ele>1026.3</ele>
        <time>2012-10-30T10:42:12Z</time>
      </trkpt>
      <trkpt lat="45.52185" lon="6.06268">
        <ele>1023.9</ele>
        <time>2012-10-30T10:42:16Z</time>
      </trkpt>
      <trkpt lat="45.52182" lon="6.06275">
        <ele>1022.5</ele>
        <time>2012-10-30T10:42:20Z</time>
      </trkpt>
      <trkpt lat="45.52179" lon="6.0628">
        <ele>1022.5</ele>
        <time>2012-10-30T10:42:24Z</time>
      </trkpt>
      <trkpt lat="45.52176" lon="6.06286">
        <ele>1022</ele>
        <time>2012-10-30T10:42:28Z</time>
      </trkpt>
      <trkpt lat="45.52173" lon="6.06292">
        <ele>1021.1</ele>
        <time>2012-10-30T10:42:32Z</time>
      </trkpt>
      <trkpt lat="45.52169" lon="6.06297">
        <ele>1020.6</ele>
        <time>2012-10-30T10:42:36Z</time>
      </trkpt>
      <trkpt lat="45.52165" lon="6.06302">
        <ele>1021.1</ele>
        <time>2012-10-30T10:42:40Z</time>
      </trkpt>
      <trkpt lat="45.52162" lon="6.06306">
        <ele>1021.5</ele>
        <time>2012-10-30T10:42:44Z</time>
      </trkpt>
      <trkpt lat="45.52159" lon="6.06311">
        <ele>1021.1</ele>
        <time>2012-10-30T10:42:48Z</time>
      </trkpt>
      <trkpt lat="45.52155" lon="6.06315">
        <ele>1020.6</ele>
        <time>2012-10-30T10:42:52Z</time>
      </trkpt>
      <trkpt lat="45.52157" lon="6.06313">
        <ele>1020.6</ele>
        <time>2012-10-30T10:42:56Z</time>
      </trkpt>
      <trkpt lat="45.52161" lon="6.06308">
        <ele>1020.6</ele>
        <time>2012-10-30T10:43:00Z</time>
      </trkpt>
      <trkpt lat="45.52165" lon="6.06303">
        <ele>1020.1</ele>
        <time>2012-10-30T10:43:04Z</time>
      </trkpt>
      <trkpt lat="45.5217" lon="6.06298">
        <ele>1019.1</ele>
        <time>2012-10-30T10:43:08Z</time>
      </trkpt>
      <trkpt lat="45.52173" lon="6.06293">
        <ele>1018.7</ele>
        <time>2012-10-30T10:43:12Z</time>
      </trkpt>
      <trkpt lat="45.52177" lon="6.06287">
        <ele>1018.7</ele>
        <time>2012-10-30T10:43:16Z</time>
      </trkpt>
      <trkpt lat="45.5218" lon="6.06281">
        <ele>1018.2</ele>
        <time>2012-10-30T10:43:20Z</time>
      </trkpt>
      <trkpt lat="45.52183" lon="6.06277">
        <ele>1018.2</ele>
        <time>2012-10-30T10:43:24Z</time>
      </trkpt>
      <trkpt lat="45.52187" lon="6.06274">
        <ele>1018.7</ele>
        <time>2012-10-30T10:43:28Z</time>
      </trkpt>
      <trkpt lat="45.52192" lon="6.06272">
        <ele>1018.2</ele>
        <time>2012-10-30T10:43:32Z</time>
      </trkpt>
      <trkpt lat="45.52197" lon="6.06272">
        <ele>1018.2</ele>
        <time>2012-10-30T10:43:36Z</time>
      </trkpt>
      <trkpt lat="45.52201" lon="6.06273">
        <ele>1017.7</ele>
        <time>2012-10-30T10:43:40Z</time>
      </trkpt>
      <trkpt lat="45.52204" lon="6.06274">
        <ele>1018.2</ele>
        <time>2012-10-30T10:43:44Z</time>
      </trkpt>
      <trkpt lat="45.52208" lon="6.06275">
        <ele>1018.7</ele>
        <time>2012-10-30T10:43:48Z</time>
      </trkpt>
      <trkpt lat="45.52211" lon="6.06277">
        <ele>1019.6</ele>
        <time>2012-10-30T10:43:52Z</time>
      </trkpt>
      <trkpt lat="45.52214" lon="6.06279">
        <ele>1021.5</ele>
        <time>2012-10-30T10:43:56Z</time>
      </trkpt>
      <trkpt lat="45.52216" lon="6.06282">
        <ele>1023.5</ele>
        <time>2012-10-30T10:44:00Z</time>
      </trkpt>
      <trkpt lat="45.52218" lon="6.06285">
        <ele>1024.9</ele>
        <time>2012-10-30T10:44:04Z</time>
      </trkpt>
      <trkpt lat="45.52221" lon="6.06288">
        <ele>1025.9</ele>
        <time>2012-10-30T10:44:08Z</time>
      </trkpt>
      <trkpt lat="45.52224" lon="6.0629">
        <ele>1026.8</ele>
        <time>2012-10-30T10:44:12Z</time>
      </trkpt>
      <trkpt lat="45.52226" lon="6.06294">
        <ele>1028.3</ele>
        <time>2012-10-30T10:44:16Z</time>
      </trkpt>
      <trkpt lat="45.52228" lon="6.06298">
        <ele>1029.2</ele>
        <time>2012-10-30T10:44:20Z</time>
      </trkpt>
      <trkpt lat="45.52229" lon="6.06302">
        <ele>1030.2</ele>
        <time>2012-10-30T10:44:24Z</time>
      </trkpt>
      <trkpt lat="45.52231" lon="6.06306">
        <ele>1030.7</ele>
        <time>2012-10-30T10:44:28Z</time>
      </trkpt>
      <trkpt lat="45.52233" lon="6.06311">
        <ele>1031.6</ele>
        <time>2012-10-30T10:44:32Z</time>
      </trkpt>
      <trkpt lat="45.52234" lon="6.06317">
        <ele>1032.6</ele>
        <time>2012-10-30T10:44:36Z</time>
      </trkpt>
      <trkpt lat="45.52232" lon="6.06324">
        <ele>1034</ele>
        <time>2012-10-30T10:44:40Z</time>
      </trkpt>
      <trkpt lat="45.5223" lon="6.06328">
        <ele>1034.5</ele>
        <time>2012-10-30T10:44:44Z</time>
      </trkpt>
      <trkpt lat="45.52231" lon="6.06329">
        <ele>1034.5</ele>
        <time>2012-10-30T10:44:48Z</time>
      </trkpt>
      <trkpt lat="45.52235" lon="6.06327">
        <ele>1035.5</ele>
        <time>2012-10-30T10:44:52Z</time>
      </trkpt>
      <trkpt lat="45.52239" lon="6.06329">
        <ele>1035</ele>
        <time>2012-10-30T10:44:56Z</time>
      </trkpt>
      <trkpt lat="45.52243" lon="6.06333">
        <ele>1035</ele>
        <time>2012-10-30T10:45:00Z</time>
      </trkpt>
      <trkpt lat="45.52246" lon="6.06338">
        <ele>1035</ele>
        <time>2012-10-30T10:45:04Z</time>
      </trkpt>
      <trkpt lat="45.52249" lon="6.06344">
        <ele>1035.5</ele>
        <time>2012-10-30T10:45:08Z</time>
      </trkpt>
      <trkpt lat="45.5225" lon="6.0635">
        <ele>1036</ele>
        <time>2012-10-30T10:45:12Z</time>
      </trkpt>
      <trkpt lat="45.52252" lon="6.06356">
        <ele>1036</ele>
        <time>2012-10-30T10:45:16Z</time>
      </trkpt>
      <trkpt lat="45.52254" lon="6.06363">
        <ele>1036.9</ele>
        <time>2012-10-30T10:45:20Z</time>
      </trkpt>
      <trkpt lat="45.52255" lon="6.06369">
        <ele>1037.4</ele>
        <time>2012-10-30T10:45:24Z</time>
      </trkpt>
      <trkpt lat="45.52256" lon="6.06376">
        <ele>1037.4</ele>
        <time>2012-10-30T10:45:28Z</time>
      </trkpt>
      <trkpt lat="45.52258" lon="6.06382">
        <ele>1037.4</ele>
        <time>2012-10-30T10:45:32Z</time>
      </trkpt>
      <trkpt lat="45.5226" lon="6.06388">
        <ele>1037.9</ele>
        <time>2012-10-30T10:45:36Z</time>
      </trkpt>
      <trkpt lat="45.52263" lon="6.06393">
        <ele>1038.4</ele>
        <time>2012-10-30T10:45:40Z</time>
      </trkpt>
      <trkpt lat="45.52266" lon="6.06397">
        <ele>1038.8</ele>
        <time>2012-10-30T10:45:44Z</time>
      </trkpt>
      <trkpt lat="45.52268" lon="6.06402">
        <ele>1038.8</ele>
        <time>2012-10-30T10:45:48Z</time>
      </trkpt>
      <trkpt lat="45.52269" lon="6.06409">
        <ele>1038.8</ele>
        <time>2012-10-30T10:45:52Z</time>
      </trkpt>
      <trkpt lat="45.52272" lon="6.06415">
        <ele>1038.8</ele>
        <time>2012-10-30T10:45:56Z</time>
      </trkpt>
      <trkpt lat="45.52273" lon="6.06422">
        <ele>1037.9</ele>
        <time>2012-10-30T10:46:00Z</time>
      </trkpt>
      <trkpt lat="45.52275" lon="6.06429">
        <ele>1036.9</ele>
        <time>2012-10-30T10:46:04Z</time>
      </trkpt>
      <trkpt lat="45.52277" lon="6.06435">
        <ele>1036.9</ele>
        <time>2012-10-30T10:46:08Z</time>
      </trkpt>
      <trkpt lat="45.52278" lon="6.06441">
        <ele>1036.9</ele>
        <time>2012-10-30T10:46:12Z</time>
      </trkpt>
      <trkpt lat="45.52279" lon="6.06447">
        <ele>1037.9</ele>
        <time>2012-10-30T10:46:16Z</time>
      </trkpt>
      <trkpt lat="45.5228" lon="6.06451">
        <ele>1038.8</ele>
        <time>2012-10-30T10:46:20Z</time>
      </trkpt>
      <trkpt lat="45.52281" lon="6.06455">
        <ele>1039.8</ele>
        <time>2012-10-30T10:46:24Z</time>
      </trkpt>
      <trkpt lat="45.52282" lon="6.06456">
        <ele>1041.2</ele>
        <time>2012-10-30T10:46:28Z</time>
      </trkpt>
      <trkpt lat="45.52283" lon="6.06458">
        <ele>1042.7</ele>
        <time>2012-10-30T10:46:32Z</time>
      </trkpt>
      <trkpt lat="45.52285" lon="6.0646">
        <ele>1044.1</ele>
        <time>2012-10-30T10:46:36Z</time>
      </trkpt>
      <trkpt lat="45.52286" lon="6.06463">
        <ele>1045.1</ele>
        <time>2012-10-30T10:46:40Z</time>
      </trkpt>
      <trkpt lat="45.52286" lon="6.06466">
        <ele>1046.1</ele>
        <time>2012-10-30T10:46:44Z</time>
      </trkpt>
      <trkpt lat="45.52287" lon="6.0647">
        <ele>1046.1</ele>
        <time>2012-10-30T10:46:48Z</time>
      </trkpt>
      <trkpt lat="45.52287" lon="6.06475">
        <ele>1047.5</ele>
        <time>2012-10-30T10:46:52Z</time>
      </trkpt>
      <trkpt lat="45.52288" lon="6.06479">
        <ele>1047.5</ele>
        <time>2012-10-30T10:46:56Z</time>
      </trkpt>
      <trkpt lat="45.52288" lon="6.06479">
        <ele>1047.5</ele>
        <time>2012-10-30T10:47:00Z</time>
      </trkpt>
      <trkpt lat="45.52288" lon="6.06479">
        <ele>1047.5</ele>
        <time>2012-10-30T10:47:04Z</time>
      </trkpt>
      <trkpt lat="45.52286" lon="6.06477">
        <ele>1047.5</ele>
        <time>2012-10-30T10:47:08Z</time>
      </trkpt>
      <trkpt lat="45.52283" lon="6.06475">
        <ele>1046.5</ele>
        <time>2012-10-30T10:47:12Z</time>
      </trkpt>
      <trkpt lat="45.52281" lon="6.06475">
        <ele>1045.1</ele>
        <time>2012-10-30T10:47:16Z</time>
      </trkpt>
      <trkpt lat="45.52278" lon="6.06473">
        <ele>1044.1</ele>
        <time>2012-10-30T10:47:20Z</time>
      </trkpt>
      <trkpt lat="45.52276" lon="6.06471">
        <ele>1043.6</ele>
        <time>2012-10-30T10:47:24Z</time>
      </trkpt>
      <trkpt lat="45.52275" lon="6.06468">
        <ele>1042.2</ele>
        <time>2012-10-30T10:47:28Z</time>
      </trkpt>
      <trkpt lat="45.52276" lon="6.06465">
        <ele>1040.8</ele>
        <time>2012-10-30T10:47:32Z</time>
      </trkpt>
      <trkpt lat="45.52277" lon="6.06463">
        <ele>1039.3</ele>
        <time>2012-10-30T10:47:36Z</time>
      </trkpt>
      <trkpt lat="45.52278" lon="6.06458">
        <ele>1038.8</ele>
        <time>2012-10-30T10:47:40Z</time>
      </trkpt>
      <trkpt lat="45.52278" lon="6.06454">
        <ele>1037.9</ele>
        <time>2012-10-30T10:47:44Z</time>
      </trkpt>
      <trkpt lat="45.52278" lon="6.06446">
        <ele>1036.4</ele>
        <time>2012-10-30T10:47:48Z</time>
      </trkpt>
      <trkpt lat="45.52278" lon="6.06438">
        <ele>1036</ele>
        <time>2012-10-30T10:47:52Z</time>
      </trkpt>
      <trkpt lat="45.52277" lon="6.06431">
        <ele>1035.5</ele>
        <time>2012-10-30T10:47:56Z</time>
      </trkpt>
      <trkpt lat="45.52276" lon="6.06424">
        <ele>1034.5</ele>
        <time>2012-10-30T10:48:00Z</time>
      </trkpt>
      <trkpt lat="45.52275" lon="6.06419">
        <ele>1034.5</ele>
        <time>2012-10-30T10:48:04Z</time>
      </trkpt>
      <trkpt lat="45.52273" lon="6.06415">
        <ele>1035.5</ele>
        <time>2012-10-30T10:48:08Z</time>
      </trkpt>
      <trkpt lat="45.52271" lon="6.06409">
        <ele>1036</ele>
        <time>2012-10-30T10:48:12Z</time>
      </trkpt>
      <trkpt lat="45.5227" lon="6.06403">
        <ele>1036.4</ele>
        <time>2012-10-30T10:48:16Z</time>
      </trkpt>
      <trkpt lat="45.52267" lon="6.06398">
        <ele>1036</ele>
        <time>2012-10-30T10:48:20Z</time>
      </trkpt>
      <trkpt lat="45.52264" lon="6.06392">
        <ele>1036</ele>
        <time>2012-10-30T10:48:24Z</time>
      </trkpt>
      <trkpt lat="45.52262" lon="6.06386">
        <ele>1035.5</ele>
        <time>2012-10-30T10:48:28Z</time>
      </trkpt>
      <trkpt lat="45.5226" lon="6.0638">
        <ele>1035.5</ele>
        <time>2012-10-30T10:48:32Z</time>
      </trkpt>
      <trkpt lat="45.52258" lon="6.06373">
        <ele>1036</ele>
        <time>2012-10-30T10:48:36Z</time>
      </trkpt>
      <trkpt lat="45.52256" lon="6.06366">
        <ele>1036</ele>
        <time>2012-10-30T10:48:40Z</time>
      </trkpt>
      <trkpt lat="45.52254" lon="6.06359">
        <ele>1036</ele>
        <time>2012-10-30T10:48:44Z</time>
      </trkpt>
      <trkpt lat="45.52253" lon="6.06352">
        <ele>1035</ele>
        <time>2012-10-30T10:48:48Z</time>
      </trkpt>
      <trkpt lat="45.5225" lon="6.06347">
        <ele>1034</ele>
        <time>2012-10-30T10:48:52Z</time>
      </trkpt>
      <trkpt lat="45.52246" lon="6.06342">
        <ele>1033.1</ele>
        <time>2012-10-30T10:48:56Z</time>
      </trkpt>
      <trkpt lat="45.52243" lon="6.06337">
        <ele>1031.6</ele>
        <time>2012-10-30T10:49:00Z</time>
      </trkpt>
      <trkpt lat="45.52239" lon="6.06332">
        <ele>1031.2</ele>
        <time>2012-10-30T10:49:04Z</time>
      </trkpt>
      <trkpt lat="45.52236" lon="6.06326">
        <ele>1030.2</ele>
        <time>2012-10-30T10:49:08Z</time>
      </trkpt>
      <trkpt lat="45.52234" lon="6.06319">
        <ele>1030.2</ele>
        <time>2012-10-30T10:49:12Z</time>
      </trkpt>
      <trkpt lat="45.52232" lon="6.06313">
        <ele>1030.7</ele>
        <time>2012-10-30T10:49:16Z</time>
      </trkpt>
      <trkpt lat="45.52229" lon="6.06308">
        <ele>1030.7</ele>
        <time>2012-10-30T10:49:20Z</time>
      </trkpt>
      <trkpt lat="45.52227" lon="6.06302">
        <ele>1029.7</ele>
        <time>2012-10-30T10:49:24Z</time>
      </trkpt>
      <trkpt lat="45.52225" lon="6.06298">
        <ele>1028.7</ele>
        <time>2012-10-30T10:49:28Z</time>
      </trkpt>
      <trkpt lat="45.52222" lon="6.06293">
        <ele>1028.7</ele>
        <time>2012-10-30T10:49:32Z</time>
      </trkpt>
      <trkpt lat="45.52219" lon="6.06289">
        <ele>1028.3</ele>
        <time>2012-10-30T10:49:36Z</time>
      </trkpt>
      <trkpt lat="45.52216" lon="6.06286">
        <ele>1028.3</ele>
        <time>2012-10-30T10:49:40Z</time>
      </trkpt>
      <trkpt lat="45.52214" lon="6.06283">
        <ele>1027.3</ele>
        <time>2012-10-30T10:49:44Z</time>
      </trkpt>
      <trkpt lat="45.52213" lon="6.0628">
        <ele>1026.3</ele>
        <time>2012-10-30T10:49:48Z</time>
      </trkpt>
      <trkpt lat="45.5221" lon="6.06278">
        <ele>1025.4</ele>
        <time>2012-10-30T10:49:52Z</time>
      </trkpt>
      <trkpt lat="45.52207" lon="6.06278">
        <ele>1025.4</ele>
        <time>2012-10-30T10:49:56Z</time>
      </trkpt>
      <trkpt lat="45.52203" lon="6.06276">
        <ele>1025.4</ele>
        <time>2012-10-30T10:50:00Z</time>
      </trkpt>
      <trkpt lat="45.522" lon="6.06275">
        <ele>1025.4</ele>
        <time>2012-10-30T10:50:04Z</time>
      </trkpt>
      <trkpt lat="45.52196" lon="6.06273">
        <ele>1023.9</ele>
        <time>2012-10-30T10:50:08Z</time>
      </trkpt>
      <trkpt lat="45.52192" lon="6.06269">
        <ele>1023</ele>
        <time>2012-10-30T10:50:12Z</time>
      </trkpt>
      <trkpt lat="45.52188" lon="6.06263">
        <ele>1023</ele>
        <time>2012-10-30T10:50:16Z</time>
      </trkpt>
      <trkpt lat="45.52186" lon="6.06256">
        <ele>1023</ele>
        <time>2012-10-30T10:50:20Z</time>
      </trkpt>
      <trkpt lat="45.52185" lon="6.06249">
        <ele>1022.5</ele>
        <time>2012-10-30T10:50:24Z</time>
      </trkpt>
      <trkpt lat="45.52184" lon="6.06243">
        <ele>1023</ele>
        <time>2012-10-30T10:50:28Z</time>
      </trkpt>
      <trkpt lat="45.52182" lon="6.06238">
        <ele>1023.5</ele>
        <time>2012-10-30T10:50:32Z</time>
      </trkpt>
      <trkpt lat="45.52181" lon="6.06234">
        <ele>1023.9</ele>
        <time>2012-10-30T10:50:36Z</time>
      </trkpt>
      <trkpt lat="45.5218" lon="6.0623">
        <ele>1025.4</ele>
        <time>2012-10-30T10:50:40Z</time>
      </trkpt>
      <trkpt lat="45.52179" lon="6.06225">
        <ele>1026.8</ele>
        <time>2012-10-30T10:50:44Z</time>
      </trkpt>
      <trkpt lat="45.52179" lon="6.0622">
        <ele>1028.3</ele>
        <time>2012-10-30T10:50:48Z</time>
      </trkpt>
      <trkpt lat="45.52179" lon="6.06214">
        <ele>1029.2</ele>
        <time>2012-10-30T10:50:52Z</time>
      </trkpt>
      <trkpt lat="45.5218" lon="6.0621">
        <ele>1030.2</ele>
        <time>2012-10-30T10:50:56Z</time>
      </trkpt>
      <trkpt lat="45.5218" lon="6.06207">
        <ele>1033.1</ele>
        <time>2012-10-30T10:51:00Z</time>
      </trkpt>
      <trkpt lat="45.5218" lon="6.06203">
        <ele>1035</ele>
        <time>2012-10-30T10:51:04Z</time>
      </trkpt>
      <trkpt lat="45.52179" lon="6.06196">
        <ele>1036.9</ele>
        <time>2012-10-30T10:51:08Z</time>
      </trkpt>
      <trkpt lat="45.52179" lon="6.06189">
        <ele>1036.9</ele>
        <time>2012-10-30T10:51:12Z</time>
      </trkpt>
      <trkpt lat="45.52179" lon="6.06181">
        <ele>1036.4</ele>
        <time>2012-10-30T10:51:16Z</time>
      </trkpt>
      <trkpt lat="45.5218" lon="6.06174">
        <ele>1036</ele>
        <time>2012-10-30T10:51:20Z</time>
      </trkpt>
      <trkpt lat="45.52181" lon="6.06168">
        <ele>1036</ele>
        <time>2012-10-30T10:51:24Z</time>
      </trkpt>
      <trkpt lat="45.52181" lon="6.06161">
        <ele>1035.5</ele>
        <time>2012-10-30T10:51:28Z</time>
      </trkpt>
      <trkpt lat="45.52182" lon="6.06155">
        <ele>1035.5</ele>
        <time>2012-10-30T10:51:32Z</time>
      </trkpt>
      <trkpt lat="45.52183" lon="6.06149">
        <ele>1035.5</ele>
        <time>2012-10-30T10:51:36Z</time>
      </trkpt>
      <trkpt lat="45.52184" lon="6.06143">
        <ele>1034.5</ele>
        <time>2012-10-30T10:51:40Z</time>
      </trkpt>
      <trkpt lat="45.52185" lon="6.0614">
        <ele>1034</ele>
        <time>2012-10-30T10:51:44Z</time>
      </trkpt>
      <trkpt lat="45.52186" lon="6.06135">
        <ele>1034</ele>
        <time>2012-10-30T10:51:48Z</time>
      </trkpt>
      <trkpt lat="45.52189" lon="6.06132">
        <ele>1033.6</ele>
        <time>2012-10-30T10:51:52Z</time>
      </trkpt>
      <trkpt lat="45.52193" lon="6.0613">
        <ele>1032.6</ele>
        <time>2012-10-30T10:51:56Z</time>
      </trkpt>
      <trkpt lat="45.52195" lon="6.06125">
        <ele>1031.2</ele>
        <time>2012-10-30T10:52:00Z</time>
      </trkpt>
      <trkpt lat="45.52195" lon="6.06119">
        <ele>1029.2</ele>
        <time>2012-10-30T10:52:04Z</time>
      </trkpt>
      <trkpt lat="45.52194" lon="6.06114">
        <ele>1027.3</ele>
        <time>2012-10-30T10:52:08Z</time>
      </trkpt>
      <trkpt lat="45.52194" lon="6.06113">
        <ele>1026.8</ele>
        <time>2012-10-30T10:52:12Z</time>
      </trkpt>
      <trkpt lat="45.52194" lon="6.06112">
        <ele>1026.3</ele>
        <time>2012-10-30T10:52:16Z</time>
      </trkpt>
      <trkpt lat="45.52193" lon="6.06111">
        <ele>1026.3</ele>
        <time>2012-10-30T10:52:20Z</time>
      </trkpt>
      <trkpt lat="45.52191" lon="6.06105">
        <ele>1025.9</ele>
        <time>2012-10-30T10:52:24Z</time>
      </trkpt>
      <trkpt lat="45.52189" lon="6.06097">
        <ele>1025.4</ele>
        <time>2012-10-30T10:52:28Z</time>
      </trkpt>
      <trkpt lat="45.52188" lon="6.0609">
        <ele>1024.4</ele>
        <time>2012-10-30T10:52:32Z</time>
      </trkpt>
      <trkpt lat="45.52183" lon="6.06086">
        <ele>1023.5</ele>
        <time>2012-10-30T10:52:36Z</time>
      </trkpt>
      <trkpt lat="45.52179" lon="6.06086">
        <ele>1022.5</ele>
        <time>2012-10-30T10:52:40Z</time>
      </trkpt>
      <trkpt lat="45.52175" lon="6.06087">
        <ele>1022.5</ele>
        <time>2012-10-30T10:52:44Z</time>
      </trkpt>
      <trkpt lat="45.52171" lon="6.06087">
        <ele>1022.5</ele>
        <time>2012-10-30T10:52:48Z</time>
      </trkpt>
      <trkpt lat="45.52167" lon="6.06087">
        <ele>1022.5</ele>
        <time>2012-10-30T10:52:52Z</time>
      </trkpt>
      <trkpt lat="45.52162" lon="6.06084">
        <ele>1022</ele>
        <time>2012-10-30T10:52:56Z</time>
      </trkpt>
      <trkpt lat="45.5216" lon="6.06077">
        <ele>1022</ele>
        <time>2012-10-30T10:53:00Z</time>
      </trkpt>
      <trkpt lat="45.52161" lon="6.06071">
        <ele>1022</ele>
        <time>2012-10-30T10:53:04Z</time>
      </trkpt>
      <trkpt lat="45.52163" lon="6.06066">
        <ele>1021.5</ele>
        <time>2012-10-30T10:53:08Z</time>
      </trkpt>
      <trkpt lat="45.52167" lon="6.06062">
        <ele>1022.5</ele>
        <time>2012-10-30T10:53:12Z</time>
      </trkpt>
      <trkpt lat="45.52166" lon="6.06061">
        <ele>1022.5</ele>
        <time>2012-10-30T10:53:16Z</time>
      </trkpt>
      <trkpt lat="45.52164" lon="6.06059">
        <ele>1022.5</ele>
        <time>2012-10-30T10:53:20Z</time>
      </trkpt>
      <trkpt lat="45.52161" lon="6.06058">
        <ele>1023</ele>
        <time>2012-10-30T10:53:24Z</time>
      </trkpt>
      <trkpt lat="45.52157" lon="6.06057">
        <ele>1023.5</ele>
        <time>2012-10-30T10:53:28Z</time>
      </trkpt>
      <trkpt lat="45.52154" lon="6.06057">
        <ele>1023.9</ele>
        <time>2012-10-30T10:53:32Z</time>
      </trkpt>
      <trkpt lat="45.52153" lon="6.06057">
        <ele>1024.4</ele>
        <time>2012-10-30T10:53:36Z</time>
      </trkpt>
      <trkpt lat="45.52151" lon="6.06056">
        <ele>1023.9</ele>
        <time>2012-10-30T10:53:40Z</time>
      </trkpt>
      <trkpt lat="45.52151" lon="6.06056">
        <ele>1023.9</ele>
        <time>2012-10-30T10:53:44Z</time>
      </trkpt>
      <trkpt lat="45.52151" lon="6.06056">
        <ele>1023.9</ele>
        <time>2012-10-30T10:53:48Z</time>
      </trkpt>
      <trkpt lat="45.52151" lon="6.06056">
        <ele>1023.9</ele>
        <time>2012-10-30T10:53:52Z</time>
      </trkpt>
      <trkpt lat="45.52152" lon="6.0606">
        <ele>1023.9</ele>
        <time>2012-10-30T10:53:56Z</time>
      </trkpt>
      <trkpt lat="45.52152" lon="6.06062">
        <ele>1023.9</ele>
        <time>2012-10-30T10:54:00Z</time>
      </trkpt>
      <trkpt lat="45.52152" lon="6.06062">
        <ele>1023.9</ele>
        <time>2012-10-30T10:54:04Z</time>
      </trkpt>
      <trkpt lat="45.52152" lon="6.06062">
        <ele>1023.9</ele>
        <time>2012-10-30T10:54:08Z</time>
      </trkpt>
      <trkpt lat="45.52152" lon="6.06062">
        <ele>1023.9</ele>
        <time>2012-10-30T10:54:12Z</time>
      </trkpt>
      <trkpt lat="45.52152" lon="6.06062">
        <ele>1023.9</ele>
        <time>2012-10-30T10:54:16Z</time>
      </trkpt>
      <trkpt lat="45.52153" lon="6.06059">
        <ele>1023.5</ele>
        <time>2012-10-30T10:54:20Z</time>
      </trkpt>
      <trkpt lat="45.52149" lon="6.06057">
        <ele>1023</ele>
        <time>2012-10-30T10:54:24Z</time>
      </trkpt>
      <trkpt lat="45.52146" lon="6.06057">
        <ele>1023.5</ele>
        <time>2012-10-30T10:54:28Z</time>
      </trkpt>
      <trkpt lat="45.52146" lon="6.06057">
        <ele>1023.5</ele>
        <time>2012-10-30T10:54:32Z</time>
      </trkpt>
      <trkpt lat="45.52146" lon="6.06057">
        <ele>1023.5</ele>
        <time>2012-10-30T10:54:36Z</time>
      </trkpt>
      <trkpt lat="45.52146" lon="6.06056">
        <ele>1023.5</ele>
        <time>2012-10-30T10:54:40Z</time>
      </trkpt>
      <trkpt lat="45.52146" lon="6.06056">
        <ele>1023.5</ele>
        <time>2012-10-30T10:54:44Z</time>
      </trkpt>
      <trkpt lat="45.52146" lon="6.06056">
        <ele>1023.5</ele>
        <time>2012-10-30T10:54:48Z</time>
      </trkpt>
      <trkpt lat="45.52146" lon="6.06056">
        <ele>1023.5</ele>
        <time>2012-10-30T10:54:52Z</time>
      </trkpt>
      <trkpt lat="45.52146" lon="6.06057">
        <ele>1023.5</ele>
        <time>2012-10-30T10:54:56Z</time>
      </trkpt>
      <trkpt lat="45.52146" lon="6.06058">
        <ele>1023.5</ele>
        <time>2012-10-30T10:55:00Z</time>
      </trkpt>
      <trkpt lat="45.52148" lon="6.06059">
        <ele>1023</ele>
        <time>2012-10-30T10:55:04Z</time>
      </trkpt>
      <trkpt lat="45.52148" lon="6.06059">
        <ele>1022.5</ele>
        <time>2012-10-30T10:55:08Z</time>
      </trkpt>
      <trkpt lat="45.52148" lon="6.06059">
        <ele>1022.5</ele>
        <time>2012-10-30T10:55:12Z</time>
      </trkpt>
      <trkpt lat="45.5215" lon="6.06058">
        <ele>1022</ele>
        <time>2012-10-30T10:55:16Z</time>
      </trkpt>
      <trkpt lat="45.52152" lon="6.06058">
        <ele>1022</ele>
        <time>2012-10-30T10:55:20Z</time>
      </trkpt>
      <trkpt lat="45.52152" lon="6.06058">
        <ele>1022</ele>
        <time>2012-10-30T10:55:24Z</time>
      </trkpt>
      <trkpt lat="45.52152" lon="6.06058">
        <ele>1022</ele>
        <time>2012-10-30T10:55:28Z</time>
      </trkpt>
      <trkpt lat="45.52152" lon="6.06058">
        <ele>1022</ele>
        <time>2012-10-30T10:55:32Z</time>
      </trkpt>
      <trkpt lat="45.52152" lon="6.06058">
        <ele>1022</ele>
        <time>2012-10-30T10:55:36Z</time>
      </trkpt>
      <trkpt lat="45.52152" lon="6.06058">
        <ele>1022</ele>
        <time>2012-10-30T10:55:40Z</time>
      </trkpt>
      <trkpt lat="45.52149" lon="6.06058">
        <ele>1021.5</ele>
        <time>2012-10-30T10:55:44Z</time>
      </trkpt>
      <trkpt lat="45.52149" lon="6.06058">
        <ele>1021.5</ele>
        <time>2012-10-30T10:55:48Z</time>
      </trkpt>
      <trkpt lat="45.52149" lon="6.06058">
        <ele>1021.5</ele>
        <time>2012-10-30T10:55:52Z</time>
      </trkpt>
      <trkpt lat="45.52149" lon="6.06058">
        <ele>1021.5</ele>
        <time>2012-10-30T10:55:56Z</time>
      </trkpt>
      <trkpt lat="45.52149" lon="6.06057">
        <ele>1021.5</ele>
        <time>2012-10-30T10:56:00Z</time>
      </trkpt>
      <trkpt lat="45.52149" lon="6.06057">
        <ele>1021.5</ele>
        <time>2012-10-30T10:56:04Z</time>
      </trkpt>
      <trkpt lat="45.52149" lon="6.06057">
        <ele>1021.5</ele>
        <time>2012-10-30T10:56:08Z</time>
      </trkpt>
      <trkpt lat="45.52149" lon="6.06057">
        <ele>1021.5</ele>
        <time>2012-10-30T10:56:12Z</time>
      </trkpt>
      <trkpt lat="45.52149" lon="6.06057">
        <ele>1021.5</ele>
        <time>2012-10-30T10:56:16Z</time>
      </trkpt>
      <trkpt lat="45.52149" lon="6.06057">
        <ele>1021.5</ele>
        <time>2012-10-30T10:56:20Z</time>
      </trkpt>
      <trkpt lat="45.52149" lon="6.06057">
        <ele>1021.5</ele>
        <time>2012-10-30T10:56:24Z</time>
      </trkpt>
      <trkpt lat="45.52149" lon="6.06057">
        <ele>1021.5</ele>
        <time>2012-10-30T10:56:28Z</time>
      </trkpt>
      <trkpt lat="45.52149" lon="6.06057">
        <ele>1021.5</ele>
        <time>2012-10-30T10:56:32Z</time>
      </trkpt>
      <trkpt lat="45.52149" lon="6.06057">
        <ele>1021.5</ele>
        <time>2012-10-30T10:56:36Z</time>
      </trkpt>
      <trkpt lat="45.52149" lon="6.06057">
        <ele>1022</ele>
        <time>2012-10-30T10:56:40Z</time>
      </trkpt>
      <trkpt lat="45.52152" lon="6.06056">
        <ele>1023</ele>
        <time>2012-10-30T10:56:44Z</time>
      </trkpt>
      <trkpt lat="45.52154" lon="6.06055">
        <ele>1023.5</ele>
        <time>2012-10-30T10:56:48Z</time>
      </trkpt>
      <trkpt lat="45.52157" lon="6.06054">
        <ele>1023.5</ele>
        <time>2012-10-30T10:56:52Z</time>
      </trkpt>
      <trkpt lat="45.52158" lon="6.06054">
        <ele>1023.5</ele>
        <time>2012-10-30T10:56:56Z</time>
      </trkpt>
      <trkpt lat="45.52158" lon="6.06054">
        <ele>1023.5</ele>
        <time>2012-10-30T10:57:00Z</time>
      </trkpt>
      <trkpt lat="45.52159" lon="6.06053">
        <ele>1023.5</ele>
        <time>2012-10-30T10:57:04Z</time>
      </trkpt>
      <trkpt lat="45.52161" lon="6.06054">
        <ele>1022</ele>
        <time>2012-10-30T10:57:08Z</time>
      </trkpt>
      <trkpt lat="45.52163" lon="6.06056">
        <ele>1021.5</ele>
        <time>2012-10-30T10:57:12Z</time>
      </trkpt>
      <trkpt lat="45.52163" lon="6.0606">
        <ele>1020.6</ele>
        <time>2012-10-30T10:57:16Z</time>
      </trkpt>
      <trkpt lat="45.52163" lon="6.06063">
        <ele>1020.6</ele>
        <time>2012-10-30T10:57:20Z</time>
      </trkpt>
      <trkpt lat="45.52163" lon="6.06063">
        <ele>1020.6</ele>
        <time>2012-10-30T10:57:24Z</time>
      </trkpt>
      <trkpt lat="45.52163" lon="6.06063">
        <ele>1020.6</ele>
        <time>2012-10-30T10:57:28Z</time>
      </trkpt>
      <trkpt lat="45.52163" lon="6.06063">
        <ele>1020.6</ele>
        <time>2012-10-30T10:57:32Z</time>
      </trkpt>
      <trkpt lat="45.52163" lon="6.06064">
        <ele>1020.6</ele>
        <time>2012-10-30T10:57:36Z</time>
      </trkpt>
      <trkpt lat="45.52163" lon="6.06067">
        <ele>1020.1</ele>
        <time>2012-10-30T10:57:40Z</time>
      </trkpt>
      <trkpt lat="45.52163" lon="6.06071">
        <ele>1020.1</ele>
        <time>2012-10-30T10:57:44Z</time>
      </trkpt>
      <trkpt lat="45.52162" lon="6.06077">
        <ele>1019.1</ele>
        <time>2012-10-30T10:57:48Z</time>
      </trkpt>
      <trkpt lat="45.52162" lon="6.06082">
        <ele>1018.7</ele>
        <time>2012-10-30T10:57:52Z</time>
      </trkpt>
      <trkpt lat="45.52164" lon="6.06086">
        <ele>1018.2</ele>
        <time>2012-10-30T10:57:56Z</time>
      </trkpt>
      <trkpt lat="45.52166" lon="6.06088">
        <ele>1017.7</ele>
        <time>2012-10-30T10:58:00Z</time>
      </trkpt>
      <trkpt lat="45.52169" lon="6.06088">
        <ele>1017.7</ele>
        <time>2012-10-30T10:58:04Z</time>
      </trkpt>
      <trkpt lat="45.52172" lon="6.06087">
        <ele>1018.2</ele>
        <time>2012-10-30T10:58:08Z</time>
      </trkpt>
      <trkpt lat="45.52175" lon="6.06085">
        <ele>1018.7</ele>
        <time>2012-10-30T10:58:12Z</time>
      </trkpt>
      <trkpt lat="45.52179" lon="6.06083">
        <ele>1019.1</ele>
        <time>2012-10-30T10:58:16Z</time>
      </trkpt>
      <trkpt lat="45.52181" lon="6.06083">
        <ele>1020.1</ele>
        <time>2012-10-30T10:58:20Z</time>
      </trkpt>
      <trkpt lat="45.52186" lon="6.06088">
        <ele>1021.1</ele>
        <time>2012-10-30T10:58:24Z</time>
      </trkpt>
      <trkpt lat="45.52188" lon="6.06095">
        <ele>1022</ele>
        <time>2012-10-30T10:58:28Z</time>
      </trkpt>
      <trkpt lat="45.5219" lon="6.061">
        <ele>1023</ele>
        <time>2012-10-30T10:58:32Z</time>
      </trkpt>
      <trkpt lat="45.52191" lon="6.06105">
        <ele>1023.5</ele>
        <time>2012-10-30T10:58:36Z</time>
      </trkpt>
      <trkpt lat="45.52193" lon="6.0611">
        <ele>1024.4</ele>
        <time>2012-10-30T10:58:40Z</time>
      </trkpt>
      <trkpt lat="45.52195" lon="6.06116">
        <ele>1024.9</ele>
        <time>2012-10-30T10:58:44Z</time>
      </trkpt>
      <trkpt lat="45.52195" lon="6.0612">
        <ele>1025.9</ele>
        <time>2012-10-30T10:58:48Z</time>
      </trkpt>
      <trkpt lat="45.52194" lon="6.06123">
        <ele>1026.3</ele>
        <time>2012-10-30T10:58:52Z</time>
      </trkpt>
      <trkpt lat="45.52192" lon="6.06127">
        <ele>1027.8</ele>
        <time>2012-10-30T10:58:56Z</time>
      </trkpt>
      <trkpt lat="45.52188" lon="6.06129">
        <ele>1029.7</ele>
        <time>2012-10-30T10:59:00Z</time>
      </trkpt>
      <trkpt lat="45.52185" lon="6.06133">
        <ele>1031.6</ele>
        <time>2012-10-30T10:59:04Z</time>
      </trkpt>
      <trkpt lat="45.52184" lon="6.06139">
        <ele>1033.1</ele>
        <time>2012-10-30T10:59:08Z</time>
      </trkpt>
      <trkpt lat="45.52182" lon="6.06144">
        <ele>1033.6</ele>
        <time>2012-10-30T10:59:12Z</time>
      </trkpt>
      <trkpt lat="45.5218" lon="6.0615">
        <ele>1034</ele>
        <time>2012-10-30T10:59:16Z</time>
      </trkpt>
      <trkpt lat="45.52178" lon="6.06157">
        <ele>1034.5</ele>
        <time>2012-10-30T10:59:20Z</time>
      </trkpt>
      <trkpt lat="45.52179" lon="6.06165">
        <ele>1034</ele>
        <time>2012-10-30T10:59:24Z</time>
      </trkpt>
      <trkpt lat="45.52178" lon="6.06172">
        <ele>1033.1</ele>
        <time>2012-10-30T10:59:28Z</time>
      </trkpt>
      <trkpt lat="45.52178" lon="6.0618">
        <ele>1032.6</ele>
        <time>2012-10-30T10:59:32Z</time>
      </trkpt>
      <trkpt lat="45.52177" lon="6.06187">
        <ele>1032.6</ele>
        <time>2012-10-30T10:59:36Z</time>
      </trkpt>
      <trkpt lat="45.52178" lon="6.06194">
        <ele>1033.6</ele>
        <time>2012-10-30T10:59:40Z</time>
      </trkpt>
      <trkpt lat="45.52178" lon="6.06199">
        <ele>1034</ele>
        <time>2012-10-30T10:59:44Z</time>
      </trkpt>
      <trkpt lat="45.52179" lon="6.06205">
        <ele>1034.5</ele>
        <time>2012-10-30T10:59:48Z</time>
      </trkpt>
      <trkpt lat="45.5218" lon="6.06212">
        <ele>1034</ele>
        <time>2012-10-30T10:59:52Z</time>
      </trkpt>
      <trkpt lat="45.52179" lon="6.06219">
        <ele>1033.6</ele>
        <time>2012-10-30T10:59:56Z</time>
      </trkpt>
      <trkpt lat="45.52179" lon="6.06225">
        <ele>1032.1</ele>
        <time>2012-10-30T11:00:00Z</time>
      </trkpt>
      <trkpt lat="45.5218" lon="6.0623">
        <ele>1030.7</ele>
        <time>2012-10-30T11:00:04Z</time>
      </trkpt>
      <trkpt lat="45.52182" lon="6.06237">
        <ele>1030.2</ele>
        <time>2012-10-30T11:00:08Z</time>
      </trkpt>
      <trkpt lat="45.52183" lon="6.06244">
        <ele>1029.7</ele>
        <time>2012-10-30T11:00:12Z</time>
      </trkpt>
      <trkpt lat="45.52185" lon="6.06253">
        <ele>1029.7</ele>
        <time>2012-10-30T11:00:16Z</time>
      </trkpt>
      <trkpt lat="45.52188" lon="6.06261">
        <ele>1028.3</ele>
        <time>2012-10-30T11:00:20Z</time>
      </trkpt>
      <trkpt lat="45.52193" lon="6.06267">
        <ele>1026.8</ele>
        <time>2012-10-30T11:00:24Z</time>
      </trkpt>
      <trkpt lat="45.52198" lon="6.06271">
        <ele>1025.4</ele>
        <time>2012-10-30T11:00:28Z</time>
      </trkpt>
      <trkpt lat="45.52202" lon="6.06273">
        <ele>1024.9</ele>
        <time>2012-10-30T11:00:32Z</time>
      </trkpt>
      <trkpt lat="45.52206" lon="6.06276">
        <ele>1024.9</ele>
        <time>2012-10-30T11:00:36Z</time>
      </trkpt>
      <trkpt lat="45.5221" lon="6.0628">
        <ele>1024.4</ele>
        <time>2012-10-30T11:00:40Z</time>
      </trkpt>
      <trkpt lat="45.52214" lon="6.06282">
        <ele>1024.9</ele>
        <time>2012-10-30T11:00:44Z</time>
      </trkpt>
      <trkpt lat="45.52217" lon="6.06284">
        <ele>1024.9</ele>
        <time>2012-10-30T11:00:48Z</time>
      </trkpt>
      <trkpt lat="45.5222" lon="6.06287">
        <ele>1025.9</ele>
        <time>2012-10-30T11:00:52Z</time>
      </trkpt>
      <trkpt lat="45.52222" lon="6.06291">
        <ele>1026.8</ele>
        <time>2012-10-30T11:00:56Z</time>
      </trkpt>
      <trkpt lat="45.52225" lon="6.06296">
        <ele>1027.8</ele>
        <time>2012-10-30T11:01:00Z</time>
      </trkpt>
      <trkpt lat="45.52227" lon="6.06301">
        <ele>1029.2</ele>
        <time>2012-10-30T11:01:04Z</time>
      </trkpt>
      <trkpt lat="45.5223" lon="6.06306">
        <ele>1029.7</ele>
        <time>2012-10-30T11:01:08Z</time>
      </trkpt>
      <trkpt lat="45.52232" lon="6.06312">
        <ele>1030.2</ele>
        <time>2012-10-30T11:01:12Z</time>
      </trkpt>
      <trkpt lat="45.52234" lon="6.06319">
        <ele>1030.7</ele>
        <time>2012-10-30T11:01:16Z</time>
      </trkpt>
      <trkpt lat="45.52236" lon="6.06327">
        <ele>1031.2</ele>
        <time>2012-10-30T11:01:20Z</time>
      </trkpt>
      <trkpt lat="45.5224" lon="6.06333">
        <ele>1031.6</ele>
        <time>2012-10-30T11:01:24Z</time>
      </trkpt>
      <trkpt lat="45.52244" lon="6.06338">
        <ele>1032.6</ele>
        <time>2012-10-30T11:01:28Z</time>
      </trkpt>
      <trkpt lat="45.52248" lon="6.06344">
        <ele>1033.1</ele>
        <time>2012-10-30T11:01:32Z</time>
      </trkpt>
      <trkpt lat="45.52251" lon="6.0635">
        <ele>1034</ele>
        <time>2012-10-30T11:01:36Z</time>
      </trkpt>
      <trkpt lat="45.52253" lon="6.06356">
        <ele>1034</ele>
        <time>2012-10-30T11:01:40Z</time>
      </trkpt>
      <trkpt lat="45.52255" lon="6.06363">
        <ele>1034.5</ele>
        <time>2012-10-30T11:01:44Z</time>
      </trkpt>
      <trkpt lat="45.52256" lon="6.06371">
        <ele>1035.5</ele>
        <time>2012-10-30T11:01:48Z</time>
      </trkpt>
      <trkpt lat="45.52257" lon="6.06378">
        <ele>1036</ele>
        <time>2012-10-30T11:01:52Z</time>
      </trkpt>
      <trkpt lat="45.52259" lon="6.06387">
        <ele>1037.9</ele>
        <time>2012-10-30T11:01:56Z</time>
      </trkpt>
      <trkpt lat="45.52261" lon="6.06393">
        <ele>1039.3</ele>
        <time>2012-10-30T11:02:00Z</time>
      </trkpt>
      <trkpt lat="45.52264" lon="6.06399">
        <ele>1040.8</ele>
        <time>2012-10-30T11:02:04Z</time>
      </trkpt>
      <trkpt lat="45.52268" lon="6.06403">
        <ele>1043.2</ele>
        <time>2012-10-30T11:02:08Z</time>
      </trkpt>
      <trkpt lat="45.52272" lon="6.06407">
        <ele>1044.1</ele>
        <time>2012-10-30T11:02:12Z</time>
      </trkpt>
      <trkpt lat="45.52277" lon="6.06411">
        <ele>1043.6</ele>
        <time>2012-10-30T11:02:16Z</time>
      </trkpt>
      <trkpt lat="45.52282" lon="6.06416">
        <ele>1043.2</ele>
        <time>2012-10-30T11:02:20Z</time>
      </trkpt>
      <trkpt lat="45.52287" lon="6.0642">
        <ele>1041.7</ele>
        <time>2012-10-30T11:02:24Z</time>
      </trkpt>
      <trkpt lat="45.52292" lon="6.06424">
        <ele>1040.3</ele>
        <time>2012-10-30T11:02:28Z</time>
      </trkpt>
      <trkpt lat="45.52296" lon="6.06427">
        <ele>1039.3</ele>
        <time>2012-10-30T11:02:32Z</time>
      </trkpt>
      <trkpt lat="45.523" lon="6.06431">
        <ele>1038.8</ele>
        <time>2012-10-30T11:02:36Z</time>
      </trkpt>
      <trkpt lat="45.52305" lon="6.06435">
        <ele>1037.9</ele>
        <time>2012-10-30T11:02:40Z</time>
      </trkpt>
      <trkpt lat="45.5231" lon="6.06438">
        <ele>1036.9</ele>
        <time>2012-10-30T11:02:44Z</time>
      </trkpt>
      <trkpt lat="45.52315" lon="6.06442">
        <ele>1036.9</ele>
        <time>2012-10-30T11:02:48Z</time>
      </trkpt>
      <trkpt lat="45.52318" lon="6.06445">
        <ele>1036</ele>
        <time>2012-10-30T11:02:52Z</time>
      </trkpt>
      <trkpt lat="45.52322" lon="6.06448">
        <ele>1035.5</ele>
        <time>2012-10-30T11:02:56Z</time>
      </trkpt>
      <trkpt lat="45.52324" lon="6.06452">
        <ele>1034.5</ele>
        <time>2012-10-30T11:03:00Z</time>
      </trkpt>
      <trkpt lat="45.52327" lon="6.06454">
        <ele>1032.6</ele>
        <time>2012-10-30T11:03:04Z</time>
      </trkpt>
      <trkpt lat="45.5233" lon="6.0646">
        <ele>1031.6</ele>
        <time>2012-10-30T11:03:08Z</time>
      </trkpt>
      <trkpt lat="45.52333" lon="6.06468">
        <ele>1030.7</ele>
        <time>2012-10-30T11:03:12Z</time>
      </trkpt>
      <trkpt lat="45.52335" lon="6.06475">
        <ele>1030.2</ele>
        <time>2012-10-30T11:03:16Z</time>
      </trkpt>
      <trkpt lat="45.52336" lon="6.06482">
        <ele>1030.7</ele>
        <time>2012-10-30T11:03:20Z</time>
      </trkpt>
      <trkpt lat="45.52336" lon="6.06489">
        <ele>1031.6</ele>
        <time>2012-10-30T11:03:24Z</time>
      </trkpt>
      <trkpt lat="45.52336" lon="6.06497">
        <ele>1033.1</ele>
        <time>2012-10-30T11:03:28Z</time>
      </trkpt>
      <trkpt lat="45.52337" lon="6.06503">
        <ele>1034</ele>
        <time>2012-10-30T11:03:32Z</time>
      </trkpt>
      <trkpt lat="45.52335" lon="6.0651">
        <ele>1035</ele>
        <time>2012-10-30T11:03:36Z</time>
      </trkpt>
      <trkpt lat="45.52332" lon="6.06518">
        <ele>1034</ele>
        <time>2012-10-30T11:03:40Z</time>
      </trkpt>
      <trkpt lat="45.52327" lon="6.06523">
        <ele>1033.6</ele>
        <time>2012-10-30T11:03:44Z</time>
      </trkpt>
      <trkpt lat="45.52325" lon="6.0653">
        <ele>1033.1</ele>
        <time>2012-10-30T11:03:48Z</time>
      </trkpt>
      <trkpt lat="45.52321" lon="6.06534">
        <ele>1032.1</ele>
        <time>2012-10-30T11:03:52Z</time>
      </trkpt>
      <trkpt lat="45.52317" lon="6.06539">
        <ele>1030.7</ele>
        <time>2012-10-30T11:03:56Z</time>
      </trkpt>
      <trkpt lat="45.52316" lon="6.06546">
        <ele>1029.2</ele>
        <time>2012-10-30T11:04:00Z</time>
      </trkpt>
      <trkpt lat="45.52314" lon="6.06552">
        <ele>1028.7</ele>
        <time>2012-10-30T11:04:04Z</time>
      </trkpt>
      <trkpt lat="45.52313" lon="6.06559">
        <ele>1029.2</ele>
        <time>2012-10-30T11:04:08Z</time>
      </trkpt>
      <trkpt lat="45.52312" lon="6.06566">
        <ele>1029.7</ele>
        <time>2012-10-30T11:04:12Z</time>
      </trkpt>
      <trkpt lat="45.52311" lon="6.06572">
        <ele>1030.2</ele>
        <time>2012-10-30T11:04:16Z</time>
      </trkpt>
      <trkpt lat="45.5231" lon="6.06577">
        <ele>1029.7</ele>
        <time>2012-10-30T11:04:20Z</time>
      </trkpt>
      <trkpt lat="45.52309" lon="6.06581">
        <ele>1028.7</ele>
        <time>2012-10-30T11:04:24Z</time>
      </trkpt>
      <trkpt lat="45.52309" lon="6.06583">
        <ele>1028.7</ele>
        <time>2012-10-30T11:04:28Z</time>
      </trkpt>
      <trkpt lat="45.5231" lon="6.06586">
        <ele>1028.3</ele>
        <time>2012-10-30T11:04:32Z</time>
      </trkpt>
      <trkpt lat="45.52313" lon="6.06587">
        <ele>1028.3</ele>
        <time>2012-10-30T11:04:36Z</time>
      </trkpt>
      <trkpt lat="45.52316" lon="6.06584">
        <ele>1028.7</ele>
        <time>2012-10-30T11:04:40Z</time>
      </trkpt>
      <trkpt lat="45.52318" lon="6.06581">
        <ele>1029.7</ele>
        <time>2012-10-30T11:04:44Z</time>
      </trkpt>
      <trkpt lat="45.5232" lon="6.0658">
        <ele>1030.7</ele>
        <time>2012-10-30T11:04:48Z</time>
      </trkpt>
      <trkpt lat="45.52319" lon="6.0658">
        <ele>1030.7</ele>
        <time>2012-10-30T11:04:52Z</time>
      </trkpt>
      <trkpt lat="45.52319" lon="6.06582">
        <ele>1030.2</ele>
        <time>2012-10-30T11:04:56Z</time>
      </trkpt>
      <trkpt lat="45.5232" lon="6.06582">
        <ele>1029.2</ele>
        <time>2012-10-30T11:05:00Z</time>
      </trkpt>
      <trkpt lat="45.5232" lon="6.06583">
        <ele>1028.7</ele>
        <time>2012-10-30T11:05:04Z</time>
      </trkpt>
      <trkpt lat="45.5232" lon="6.06584">
        <ele>1028.3</ele>
        <time>2012-10-30T11:05:08Z</time>
      </trkpt>
      <trkpt lat="45.5232" lon="6.06584">
        <ele>1028.3</ele>
        <time>2012-10-30T11:05:12Z</time>
      </trkpt>
      <trkpt lat="45.5232" lon="6.06584">
        <ele>1028.3</ele>
        <time>2012-10-30T11:05:16Z</time>
      </trkpt>
      <trkpt lat="45.5232" lon="6.06584">
        <ele>1028.3</ele>
        <time>2012-10-30T11:05:20Z</time>
      </trkpt>
      <trkpt lat="45.5232" lon="6.06584">
        <ele>1028.3</ele>
        <time>2012-10-30T11:05:24Z</time>
      </trkpt>
      <trkpt lat="45.52321" lon="6.06585">
        <ele>1027.8</ele>
        <time>2012-10-30T11:05:28Z</time>
      </trkpt>
      <trkpt lat="45.52321" lon="6.06585">
        <ele>1027.8</ele>
        <time>2012-10-30T11:05:32Z</time>
      </trkpt>
      <trkpt lat="45.52321" lon="6.06585">
        <ele>1027.8</ele>
        <time>2012-10-30T11:05:36Z</time>
      </trkpt>
      <trkpt lat="45.52321" lon="6.06585">
        <ele>1027.8</ele>
        <time>2012-10-30T11:05:40Z</time>
      </trkpt>
      <trkpt lat="45.52321" lon="6.06585">
        <ele>1027.8</ele>
        <time>2012-10-30T11:05:44Z</time>
      </trkpt>
      <trkpt lat="45.52321" lon="6.06585">
        <ele>1027.8</ele>
        <time>2012-10-30T11:05:48Z</time>
      </trkpt>
      <trkpt lat="45.52321" lon="6.06585">
        <ele>1027.8</ele>
        <time>2012-10-30T11:05:52Z</time>
      </trkpt>
      <trkpt lat="45.52321" lon="6.06585">
        <ele>1027.8</ele>
        <time>2012-10-30T11:05:56Z</time>
      </trkpt>
      <trkpt lat="45.52321" lon="6.06585">
        <ele>1027.8</ele>
        <time>2012-10-30T11:06:00Z</time>
      </trkpt>
      <trkpt lat="45.52321" lon="6.06585">
        <ele>1027.8</ele>
        <time>2012-10-30T11:06:04Z</time>
      </trkpt>
      <trkpt lat="45.52321" lon="6.06585">
        <ele>1027.8</ele>
        <time>2012-10-30T11:06:08Z</time>
      </trkpt>
      <trkpt lat="45.52321" lon="6.06585">
        <ele>1027.3</ele>
        <time>2012-10-30T11:06:12Z</time>
      </trkpt>
      <trkpt lat="45.52326" lon="6.06585">
        <ele>1026.8</ele>
        <time>2012-10-30T11:06:16Z</time>
      </trkpt>
      <trkpt lat="45.52324" lon="6.06586">
        <ele>1027.3</ele>
        <time>2012-10-30T11:06:20Z</time>
      </trkpt>
      <trkpt lat="45.52321" lon="6.06584">
        <ele>1026.8</ele>
        <time>2012-10-30T11:06:24Z</time>
      </trkpt>
      <trkpt lat="45.52321" lon="6.06584">
        <ele>1026.8</ele>
        <time>2012-10-30T11:06:28Z</time>
      </trkpt>
      <trkpt lat="45.52321" lon="6.06584">
        <ele>1026.8</ele>
        <time>2012-10-30T11:06:32Z</time>
      </trkpt>
      <trkpt lat="45.52321" lon="6.06584">
        <ele>1026.8</ele>
        <time>2012-10-30T11:06:36Z</time>
      </trkpt>
      <trkpt lat="45.52322" lon="6.06585">
        <ele>1027.3</ele>
        <time>2012-10-30T11:06:40Z</time>
      </trkpt>
      <trkpt lat="45.5232" lon="6.06585">
        <ele>1027.3</ele>
        <time>2012-10-30T11:06:44Z</time>
      </trkpt>
      <trkpt lat="45.5232" lon="6.06585">
        <ele>1027.3</ele>
        <time>2012-10-30T11:06:48Z</time>
      </trkpt>
      <trkpt lat="45.5232" lon="6.06585">
        <ele>1027.3</ele>
        <time>2012-10-30T11:06:52Z</time>
      </trkpt>
      <trkpt lat="45.5232" lon="6.06585">
        <ele>1027.3</ele>
        <time>2012-10-30T11:06:56Z</time>
      </trkpt>
      <trkpt lat="45.5232" lon="6.06585">
        <ele>1027.3</ele>
        <time>2012-10-30T11:07:00Z</time>
      </trkpt>
      <trkpt lat="45.5232" lon="6.06585">
        <ele>1027.3</ele>
        <time>2012-10-30T11:07:04Z</time>
      </trkpt>
      <trkpt lat="45.5232" lon="6.06585">
        <ele>1027.3</ele>
        <time>2012-10-30T11:07:08Z</time>
      </trkpt>
      <trkpt lat="45.5232" lon="6.06585">
        <ele>1027.3</ele>
        <time>2012-10-30T11:07:12Z</time>
      </trkpt>
      <trkpt lat="45.5232" lon="6.06585">
        <ele>1027.3</ele>
        <time>2012-10-30T11:07:16Z</time>
      </trkpt>
      <trkpt lat="45.5232" lon="6.06585">
        <ele>1027.3</ele>
        <time>2012-10-30T11:07:20Z</time>
      </trkpt>
      <trkpt lat="45.5232" lon="6.06585">
        <ele>1027.3</ele>
        <time>2012-10-30T11:07:24Z</time>
      </trkpt>
      <trkpt lat="45.5232" lon="6.06585">
        <ele>1027.3</ele>
        <time>2012-10-30T11:07:28Z</time>
      </trkpt>
      <trkpt lat="45.5232" lon="6.06585">
        <ele>1027.3</ele>
        <time>2012-10-30T11:07:32Z</time>
      </trkpt>
      <trkpt lat="45.5232" lon="6.06585">
        <ele>1027.3</ele>
        <time>2012-10-30T11:07:36Z</time>
      </trkpt>
      <trkpt lat="45.5232" lon="6.06585">
        <ele>1027.3</ele>
        <time>2012-10-30T11:07:40Z</time>
      </trkpt>
      <trkpt lat="45.5232" lon="6.06585">
        <ele>1027.3</ele>
        <time>2012-10-30T11:07:44Z</time>
      </trkpt>
      <trkpt lat="45.5232" lon="6.06585">
        <ele>1027.3</ele>
        <time>2012-10-30T11:07:48Z</time>
      </trkpt>
      <trkpt lat="45.5232" lon="6.06585">
        <ele>1027.3</ele>
        <time>2012-10-30T11:07:52Z</time>
      </trkpt>
      <trkpt lat="45.5232" lon="6.06585">
        <ele>1027.3</ele>
        <time>2012-10-30T11:07:56Z</time>
      </trkpt>
      <trkpt lat="45.5232" lon="6.06585">
        <ele>1027.3</ele>
        <time>2012-10-30T11:08:00Z</time>
      </trkpt>
      <trkpt lat="45.5232" lon="6.06585">
        <ele>1027.3</ele>
        <time>2012-10-30T11:08:04Z</time>
      </trkpt>
      <trkpt lat="45.5232" lon="6.06585">
        <ele>1027.3</ele>
        <time>2012-10-30T11:08:08Z</time>
      </trkpt>
      <trkpt lat="45.5232" lon="6.06585">
        <ele>1027.3</ele>
        <time>2012-10-30T11:08:12Z</time>
      </trkpt>
      <trkpt lat="45.5232" lon="6.06585">
        <ele>1027.3</ele>
        <time>2012-10-30T11:08:16Z</time>
      </trkpt>
      <trkpt lat="45.5232" lon="6.06585">
        <ele>1027.3</ele>
        <time>2012-10-30T11:08:20Z</time>
      </trkpt>
      <trkpt lat="45.5232" lon="6.06585">
        <ele>1027.3</ele>
        <time>2012-10-30T11:08:24Z</time>
      </trkpt>
      <trkpt lat="45.5232" lon="6.06585">
        <ele>1027.3</ele>
        <time>2012-10-30T11:08:28Z</time>
      </trkpt>
      <trkpt lat="45.5232" lon="6.06585">
        <ele>1027.3</ele>
        <time>2012-10-30T11:08:32Z</time>
      </trkpt>
      <trkpt lat="45.5232" lon="6.06585">
        <ele>1027.3</ele>
        <time>2012-10-30T11:08:36Z</time>
      </trkpt>
      <trkpt lat="45.5232" lon="6.06585">
        <ele>1027.3</ele>
        <time>2012-10-30T11:08:40Z</time>
      </trkpt>
      <trkpt lat="45.5232" lon="6.06585">
        <ele>1027.3</ele>
        <time>2012-10-30T11:08:44Z</time>
      </trkpt>
      <trkpt lat="45.5232" lon="6.06585">
        <ele>1027.3</ele>
        <time>2012-10-30T11:08:48Z</time>
      </trkpt>
      <trkpt lat="45.5232" lon="6.06585">
        <ele>1027.3</ele>
        <time>2012-10-30T11:08:52Z</time>
      </trkpt>
      <trkpt lat="45.5232" lon="6.06585">
        <ele>1027.3</ele>
        <time>2012-10-30T11:08:56Z</time>
      </trkpt>
      <trkpt lat="45.5232" lon="6.06585">
        <ele>1027.3</ele>
        <time>2012-10-30T11:09:00Z</time>
      </trkpt>
      <trkpt lat="45.5232" lon="6.06585">
        <ele>1027.3</ele>
        <time>2012-10-30T11:09:04Z</time>
      </trkpt>
      <trkpt lat="45.5232" lon="6.06585">
        <ele>1027.3</ele>
        <time>2012-10-30T11:09:08Z</time>
      </trkpt>
      <trkpt lat="45.5232" lon="6.06585">
        <ele>1027.3</ele>
        <time>2012-10-30T11:09:12Z</time>
      </trkpt>
      <trkpt lat="45.5232" lon="6.06585">
        <ele>1027.3</ele>
        <time>2012-10-30T11:09:16Z</time>
      </trkpt>
      <trkpt lat="45.5232" lon="6.06585">
        <ele>1027.3</ele>
        <time>2012-10-30T11:09:20Z</time>
      </trkpt>
      <trkpt lat="45.5232" lon="6.06585">
        <ele>1027.3</ele>
        <time>2012-10-30T11:09:24Z</time>
      </trkpt>
      <trkpt lat="45.5232" lon="6.06585">
        <ele>1027.3</ele>
        <time>2012-10-30T11:09:28Z</time>
      </trkpt>
      <trkpt lat="45.5232" lon="6.06585">
        <ele>1027.8</ele>
        <time>2012-10-30T11:09:32Z</time>
      </trkpt>
      <trkpt lat="45.52319" lon="6.06585">
        <ele>1028.3</ele>
        <time>2012-10-30T11:09:36Z</time>
      </trkpt>
      <trkpt lat="45.52319" lon="6.06584">
        <ele>1028.7</ele>
        <time>2012-10-30T11:09:40Z</time>
      </trkpt>
      <trkpt lat="45.52318" lon="6.06584">
        <ele>1028.7</ele>
        <time>2012-10-30T11:09:44Z</time>
      </trkpt>
      <trkpt lat="45.52318" lon="6.06584">
        <ele>1028.7</ele>
        <time>2012-10-30T11:09:48Z</time>
      </trkpt>
      <trkpt lat="45.52318" lon="6.06584">
        <ele>1028.7</ele>
        <time>2012-10-30T11:09:52Z</time>
      </trkpt>
      <trkpt lat="45.52318" lon="6.06584">
        <ele>1028.7</ele>
        <time>2012-10-30T11:09:56Z</time>
      </trkpt>
      <trkpt lat="45.52318" lon="6.06584">
        <ele>1028.7</ele>
        <time>2012-10-30T11:10:00Z</time>
      </trkpt>
      <trkpt lat="45.52318" lon="6.06584">
        <ele>1028.7</ele>
        <time>2012-10-30T11:10:04Z</time>
      </trkpt>
      <trkpt lat="45.52318" lon="6.06584">
        <ele>1028.7</ele>
        <time>2012-10-30T11:10:08Z</time>
      </trkpt>
      <trkpt lat="45.52318" lon="6.06584">
        <ele>1028.7</ele>
        <time>2012-10-30T11:10:12Z</time>
      </trkpt>
      <trkpt lat="45.52318" lon="6.06584">
        <ele>1028.7</ele>
        <time>2012-10-30T11:10:16Z</time>
      </trkpt>
      <trkpt lat="45.52318" lon="6.06584">
        <ele>1028.7</ele>
        <time>2012-10-30T11:10:20Z</time>
      </trkpt>
      <trkpt lat="45.52318" lon="6.06584">
        <ele>1029.2</ele>
        <time>2012-10-30T11:10:24Z</time>
      </trkpt>
      <trkpt lat="45.52318" lon="6.06584">
        <ele>1029.2</ele>
        <time>2012-10-30T11:10:28Z</time>
      </trkpt>
      <trkpt lat="45.52318" lon="6.06584">
        <ele>1029.2</ele>
        <time>2012-10-30T11:10:32Z</time>
      </trkpt>
      <trkpt lat="45.52318" lon="6.06584">
        <ele>1029.2</ele>
        <time>2012-10-30T11:10:36Z</time>
      </trkpt>
      <trkpt lat="45.52318" lon="6.06584">
        <ele>1029.2</ele>
        <time>2012-10-30T11:10:40Z</time>
      </trkpt>
      <trkpt lat="45.52318" lon="6.06584">
        <ele>1029.2</ele>
        <time>2012-10-30T11:10:44Z</time>
      </trkpt>
      <trkpt lat="45.52318" lon="6.06584">
        <ele>1029.2</ele>
        <time>2012-10-30T11:10:48Z</time>
      </trkpt>
      <trkpt lat="45.52318" lon="6.06584">
        <ele>1029.2</ele>
        <time>2012-10-30T11:10:52Z</time>
      </trkpt>
      <trkpt lat="45.52318" lon="6.06584">
        <ele>1029.2</ele>
        <time>2012-10-30T11:10:56Z</time>
      </trkpt>
      <trkpt lat="45.52318" lon="6.06584">
        <ele>1029.2</ele>
        <time>2012-10-30T11:11:00Z</time>
      </trkpt>
      <trkpt lat="45.52317" lon="6.06584">
        <ele>1029.7</ele>
        <time>2012-10-30T11:11:04Z</time>
      </trkpt>
      <trkpt lat="45.52317" lon="6.06584">
        <ele>1029.7</ele>
        <time>2012-10-30T11:11:08Z</time>
      </trkpt>
      <trkpt lat="45.52317" lon="6.06584">
        <ele>1029.7</ele>
        <time>2012-10-30T11:11:12Z</time>
      </trkpt>
      <trkpt lat="45.52317" lon="6.06584">
        <ele>1029.7</ele>
        <time>2012-10-30T11:11:16Z</time>
      </trkpt>
      <trkpt lat="45.52317" lon="6.06584">
        <ele>1029.7</ele>
        <time>2012-10-30T11:11:20Z</time>
      </trkpt>
      <trkpt lat="45.52317" lon="6.06584">
        <ele>1029.7</ele>
        <time>2012-10-30T11:11:24Z</time>
      </trkpt>
      <trkpt lat="45.52317" lon="6.06584">
        <ele>1029.7</ele>
        <time>2012-10-30T11:11:28Z</time>
      </trkpt>
      <trkpt lat="45.52317" lon="6.06584">
        <ele>1029.7</ele>
        <time>2012-10-30T11:11:32Z</time>
      </trkpt>
      <trkpt lat="45.52317" lon="6.06584">
        <ele>1029.7</ele>
        <time>2012-10-30T11:11:36Z</time>
      </trkpt>
      <trkpt lat="45.52317" lon="6.06584">
        <ele>1029.7</ele>
        <time>2012-10-30T11:11:40Z</time>
      </trkpt>
      <trkpt lat="45.52317" lon="6.06584">
        <ele>1029.7</ele>
        <time>2012-10-30T11:11:44Z</time>
      </trkpt>
      <trkpt lat="45.52317" lon="6.06584">
        <ele>1029.7</ele>
        <time>2012-10-30T11:11:48Z</time>
      </trkpt>
      <trkpt lat="45.52317" lon="6.06584">
        <ele>1029.7</ele>
        <time>2012-10-30T11:11:52Z</time>
      </trkpt>
      <trkpt lat="45.52317" lon="6.06584">
        <ele>1029.7</ele>
        <time>2012-10-30T11:11:56Z</time>
      </trkpt>
      <trkpt lat="45.52317" lon="6.06584">
        <ele>1029.7</ele>
        <time>2012-10-30T11:12:00Z</time>
      </trkpt>
      <trkpt lat="45.52317" lon="6.06584">
        <ele>1029.7</ele>
        <time>2012-10-30T11:12:04Z</time>
      </trkpt>
      <trkpt lat="45.52317" lon="6.06584">
        <ele>1029.7</ele>
        <time>2012-10-30T11:12:08Z</time>
      </trkpt>
      <trkpt lat="45.52317" lon="6.06584">
        <ele>1029.7</ele>
        <time>2012-10-30T11:12:12Z</time>
      </trkpt>
      <trkpt lat="45.52317" lon="6.06584">
        <ele>1029.7</ele>
        <time>2012-10-30T11:12:16Z</time>
      </trkpt>
      <trkpt lat="45.52317" lon="6.06584">
        <ele>1029.7</ele>
        <time>2012-10-30T11:12:20Z</time>
      </trkpt>
      <trkpt lat="45.52316" lon="6.06584">
        <ele>1029.7</ele>
        <time>2012-10-30T11:12:24Z</time>
      </trkpt>
      <trkpt lat="45.52316" lon="6.06584">
        <ele>1029.7</ele>
        <time>2012-10-30T11:12:28Z</time>
      </trkpt>
      <trkpt lat="45.52316" lon="6.06584">
        <ele>1029.7</ele>
        <time>2012-10-30T11:12:32Z</time>
      </trkpt>
      <trkpt lat="45.52316" lon="6.06584">
        <ele>1029.7</ele>
        <time>2012-10-30T11:12:36Z</time>
      </trkpt>
      <trkpt lat="45.52316" lon="6.06584">
        <ele>1029.7</ele>
        <time>2012-10-30T11:12:40Z</time>
      </trkpt>
      <trkpt lat="45.52316" lon="6.06584">
        <ele>1029.7</ele>
        <time>2012-10-30T11:12:44Z</time>
      </trkpt>
      <trkpt lat="45.52316" lon="6.06584">
        <ele>1029.7</ele>
        <time>2012-10-30T11:12:48Z</time>
      </trkpt>
      <trkpt lat="45.52316" lon="6.06584">
        <ele>1029.7</ele>
        <time>2012-10-30T11:12:52Z</time>
      </trkpt>
      <trkpt lat="45.52316" lon="6.06584">
        <ele>1029.7</ele>
        <time>2012-10-30T11:12:56Z</time>
      </trkpt>
      <trkpt lat="45.52316" lon="6.06584">
        <ele>1029.7</ele>
        <time>2012-10-30T11:13:00Z</time>
      </trkpt>
      <trkpt lat="45.52316" lon="6.06584">
        <ele>1029.7</ele>
        <time>2012-10-30T11:13:04Z</time>
      </trkpt>
      <trkpt lat="45.52316" lon="6.06584">
        <ele>1029.7</ele>
        <time>2012-10-30T11:13:08Z</time>
      </trkpt>
      <trkpt lat="45.52316" lon="6.06584">
        <ele>1029.7</ele>
        <time>2012-10-30T11:13:12Z</time>
      </trkpt>
      <trkpt lat="45.52316" lon="6.06584">
        <ele>1029.7</ele>
        <time>2012-10-30T11:13:16Z</time>
      </trkpt>
      <trkpt lat="45.52316" lon="6.06584">
        <ele>1029.7</ele>
        <time>2012-10-30T11:13:20Z</time>
      </trkpt>
      <trkpt lat="45.52316" lon="6.06584">
        <ele>1029.7</ele>
        <time>2012-10-30T11:13:24Z</time>
      </trkpt>
      <trkpt lat="45.52316" lon="6.06584">
        <ele>1029.7</ele>
        <time>2012-10-30T11:13:28Z</time>
      </trkpt>
      <trkpt lat="45.52316" lon="6.06584">
        <ele>1029.7</ele>
        <time>2012-10-30T11:13:32Z</time>
      </trkpt>
      <trkpt lat="45.52316" lon="6.06584">
        <ele>1029.7</ele>
        <time>2012-10-30T11:13:36Z</time>
      </trkpt>
      <trkpt lat="45.52316" lon="6.06584">
        <ele>1029.7</ele>
        <time>2012-10-30T11:13:40Z</time>
      </trkpt>
      <trkpt lat="45.52316" lon="6.06583">
        <ele>1029.7</ele>
        <time>2012-10-30T11:13:44Z</time>
      </trkpt>
      <trkpt lat="45.52316" lon="6.06583">
        <ele>1029.7</ele>
        <time>2012-10-30T11:13:48Z</time>
      </trkpt>
      <trkpt lat="45.52316" lon="6.06583">
        <ele>1029.7</ele>
        <time>2012-10-30T11:13:52Z</time>
      </trkpt>
      <trkpt lat="45.52316" lon="6.06583">
        <ele>1029.7</ele>
        <time>2012-10-30T11:13:56Z</time>
      </trkpt>
      <trkpt lat="45.52316" lon="6.06583">
        <ele>1029.7</ele>
        <time>2012-10-30T11:14:00Z</time>
      </trkpt>
      <trkpt lat="45.52316" lon="6.06583">
        <ele>1029.7</ele>
        <time>2012-10-30T11:14:04Z</time>
      </trkpt>
      <trkpt lat="45.52316" lon="6.06583">
        <ele>1029.7</ele>
        <time>2012-10-30T11:14:08Z</time>
      </trkpt>
      <trkpt lat="45.52316" lon="6.06583">
        <ele>1029.7</ele>
        <time>2012-10-30T11:14:12Z</time>
      </trkpt>
      <trkpt lat="45.52316" lon="6.06583">
        <ele>1029.7</ele>
        <time>2012-10-30T11:14:16Z</time>
      </trkpt>
      <trkpt lat="45.52316" lon="6.06583">
        <ele>1029.7</ele>
        <time>2012-10-30T11:14:20Z</time>
      </trkpt>
      <trkpt lat="45.52316" lon="6.06583">
        <ele>1029.7</ele>
        <time>2012-10-30T11:14:24Z</time>
      </trkpt>
      <trkpt lat="45.52316" lon="6.06583">
        <ele>1029.7</ele>
        <time>2012-10-30T11:14:28Z</time>
      </trkpt>
      <trkpt lat="45.52316" lon="6.06583">
        <ele>1029.7</ele>
        <time>2012-10-30T11:14:32Z</time>
      </trkpt>
      <trkpt lat="45.52316" lon="6.06583">
        <ele>1029.7</ele>
        <time>2012-10-30T11:14:36Z</time>
      </trkpt>
      <trkpt lat="45.52316" lon="6.06583">
        <ele>1029.7</ele>
        <time>2012-10-30T11:14:40Z</time>
      </trkpt>
      <trkpt lat="45.52316" lon="6.06583">
        <ele>1029.7</ele>
        <time>2012-10-30T11:14:44Z</time>
      </trkpt>
      <trkpt lat="45.52316" lon="6.06583">
        <ele>1029.7</ele>
        <time>2012-10-30T11:14:48Z</time>
      </trkpt>
      <trkpt lat="45.52316" lon="6.06583">
        <ele>1029.7</ele>
        <time>2012-10-30T11:14:52Z</time>
      </trkpt>
      <trkpt lat="45.52316" lon="6.06583">
        <ele>1029.7</ele>
        <time>2012-10-30T11:14:56Z</time>
      </trkpt>
      <trkpt lat="45.52316" lon="6.06583">
        <ele>1029.7</ele>
        <time>2012-10-30T11:15:00Z</time>
      </trkpt>
      <trkpt lat="45.52316" lon="6.06583">
        <ele>1029.7</ele>
        <time>2012-10-30T11:15:04Z</time>
      </trkpt>
      <trkpt lat="45.52316" lon="6.06583">
        <ele>1029.7</ele>
        <time>2012-10-30T11:15:08Z</time>
      </trkpt>
      <trkpt lat="45.52316" lon="6.06583">
        <ele>1029.7</ele>
        <time>2012-10-30T11:15:12Z</time>
      </trkpt>
      <trkpt lat="45.52316" lon="6.06583">
        <ele>1029.7</ele>
        <time>2012-10-30T11:15:16Z</time>
      </trkpt>
      <trkpt lat="45.52316" lon="6.06583">
        <ele>1029.7</ele>
        <time>2012-10-30T11:15:20Z</time>
      </trkpt>
      <trkpt lat="45.52316" lon="6.06583">
        <ele>1029.7</ele>
        <time>2012-10-30T11:15:24Z</time>
      </trkpt>
      <trkpt lat="45.52316" lon="6.06583">
        <ele>1029.7</ele>
        <time>2012-10-30T11:15:28Z</time>
      </trkpt>
      <trkpt lat="45.52316" lon="6.06583">
        <ele>1029.7</ele>
        <time>2012-10-30T11:15:32Z</time>
      </trkpt>
      <trkpt lat="45.52316" lon="6.06583">
        <ele>1029.7</ele>
        <time>2012-10-30T11:15:36Z</time>
      </trkpt>
      <trkpt lat="45.52316" lon="6.06583">
        <ele>1029.7</ele>
        <time>2012-10-30T11:15:40Z</time>
      </trkpt>
      <trkpt lat="45.52316" lon="6.06583">
        <ele>1030.2</ele>
        <time>2012-10-30T11:15:44Z</time>
      </trkpt>
      <trkpt lat="45.52316" lon="6.06583">
        <ele>1030.2</ele>
        <time>2012-10-30T11:15:48Z</time>
      </trkpt>
      <trkpt lat="45.52316" lon="6.06583">
        <ele>1030.2</ele>
        <time>2012-10-30T11:15:52Z</time>
      </trkpt>
      <trkpt lat="45.52316" lon="6.06583">
        <ele>1030.2</ele>
        <time>2012-10-30T11:15:56Z</time>
      </trkpt>
      <trkpt lat="45.52316" lon="6.06583">
        <ele>1030.2</ele>
        <time>2012-10-30T11:16:00Z</time>
      </trkpt>
      <trkpt lat="45.52316" lon="6.06583">
        <ele>1030.2</ele>
        <time>2012-10-30T11:16:04Z</time>
      </trkpt>
      <trkpt lat="45.52316" lon="6.06583">
        <ele>1030.2</ele>
        <time>2012-10-30T11:16:08Z</time>
      </trkpt>
      <trkpt lat="45.52316" lon="6.06583">
        <ele>1030.2</ele>
        <time>2012-10-30T11:16:12Z</time>
      </trkpt>
      <trkpt lat="45.52316" lon="6.06583">
        <ele>1030.2</ele>
        <time>2012-10-30T11:16:16Z</time>
      </trkpt>
      <trkpt lat="45.52316" lon="6.06583">
        <ele>1030.2</ele>
        <time>2012-10-30T11:16:20Z</time>
      </trkpt>
      <trkpt lat="45.52315" lon="6.06583">
        <ele>1030.2</ele>
        <time>2012-10-30T11:16:24Z</time>
      </trkpt>
      <trkpt lat="45.52315" lon="6.06583">
        <ele>1030.2</ele>
        <time>2012-10-30T11:16:28Z</time>
      </trkpt>
      <trkpt lat="45.52315" lon="6.06583">
        <ele>1030.2</ele>
        <time>2012-10-30T11:16:32Z</time>
      </trkpt>
      <trkpt lat="45.52315" lon="6.06583">
        <ele>1030.2</ele>
        <time>2012-10-30T11:16:36Z</time>
      </trkpt>
      <trkpt lat="45.52315" lon="6.06583">
        <ele>1030.2</ele>
        <time>2012-10-30T11:16:40Z</time>
      </trkpt>
      <trkpt lat="45.52315" lon="6.06583">
        <ele>1030.2</ele>
        <time>2012-10-30T11:16:44Z</time>
      </trkpt>
      <trkpt lat="45.52315" lon="6.06583">
        <ele>1030.2</ele>
        <time>2012-10-30T11:16:48Z</time>
      </trkpt>
      <trkpt lat="45.52315" lon="6.06583">
        <ele>1030.2</ele>
        <time>2012-10-30T11:16:52Z</time>
      </trkpt>
      <trkpt lat="45.52315" lon="6.06583">
        <ele>1030.2</ele>
        <time>2012-10-30T11:16:56Z</time>
      </trkpt>
      <trkpt lat="45.52315" lon="6.06583">
        <ele>1030.2</ele>
        <time>2012-10-30T11:17:00Z</time>
      </trkpt>
      <trkpt lat="45.52315" lon="6.06583">
        <ele>1030.2</ele>
        <time>2012-10-30T11:17:04Z</time>
      </trkpt>
      <trkpt lat="45.52315" lon="6.06583">
        <ele>1030.2</ele>
        <time>2012-10-30T11:17:08Z</time>
      </trkpt>
      <trkpt lat="45.52315" lon="6.06583">
        <ele>1030.2</ele>
        <time>2012-10-30T11:17:12Z</time>
      </trkpt>
      <trkpt lat="45.52315" lon="6.06583">
        <ele>1030.2</ele>
        <time>2012-10-30T11:17:16Z</time>
      </trkpt>
      <trkpt lat="45.52315" lon="6.06583">
        <ele>1030.2</ele>
        <time>2012-10-30T11:17:20Z</time>
      </trkpt>
      <trkpt lat="45.52315" lon="6.06583">
        <ele>1030.2</ele>
        <time>2012-10-30T11:17:24Z</time>
      </trkpt>
      <trkpt lat="45.52315" lon="6.06583">
        <ele>1030.2</ele>
        <time>2012-10-30T11:17:28Z</time>
      </trkpt>
      <trkpt lat="45.52315" lon="6.06583">
        <ele>1030.7</ele>
        <time>2012-10-30T11:17:32Z</time>
      </trkpt>
      <trkpt lat="45.52316" lon="6.06582">
        <ele>1032.6</ele>
        <time>2012-10-30T11:17:36Z</time>
      </trkpt>
      <trkpt lat="45.52316" lon="6.06584">
        <ele>1033.6</ele>
        <time>2012-10-30T11:17:40Z</time>
      </trkpt>
      <trkpt lat="45.52316" lon="6.06584">
        <ele>1033.6</ele>
        <time>2012-10-30T11:17:44Z</time>
      </trkpt>
      <trkpt lat="45.52316" lon="6.06584">
        <ele>1033.6</ele>
        <time>2012-10-30T11:17:48Z</time>
      </trkpt>
      <trkpt lat="45.52316" lon="6.06584">
        <ele>1033.6</ele>
        <time>2012-10-30T11:17:52Z</time>
      </trkpt>
      <trkpt lat="45.52316" lon="6.06584">
        <ele>1033.6</ele>
        <time>2012-10-30T11:17:56Z</time>
      </trkpt>
      <trkpt lat="45.52316" lon="6.06584">
        <ele>1033.6</ele>
        <time>2012-10-30T11:18:00Z</time>
      </trkpt>
      <trkpt lat="45.52316" lon="6.06584">
        <ele>1033.6</ele>
        <time>2012-10-30T11:18:04Z</time>
      </trkpt>
      <trkpt lat="45.52316" lon="6.06584">
        <ele>1033.6</ele>
        <time>2012-10-30T11:18:08Z</time>
      </trkpt>
      <trkpt lat="45.52316" lon="6.06584">
        <ele>1033.6</ele>
        <time>2012-10-30T11:18:12Z</time>
      </trkpt>
      <trkpt lat="45.52316" lon="6.06584">
        <ele>1033.6</ele>
        <time>2012-10-30T11:18:16Z</time>
      </trkpt>
      <trkpt lat="45.52316" lon="6.06584">
        <ele>1033.6</ele>
        <time>2012-10-30T11:18:20Z</time>
      </trkpt>
      <trkpt lat="45.52316" lon="6.06584">
        <ele>1033.6</ele>
        <time>2012-10-30T11:18:24Z</time>
      </trkpt>
      <trkpt lat="45.52316" lon="6.06584">
        <ele>1033.6</ele>
        <time>2012-10-30T11:18:28Z</time>
      </trkpt>
      <trkpt lat="45.52316" lon="6.06584">
        <ele>1033.6</ele>
        <time>2012-10-30T11:18:32Z</time>
      </trkpt>
      <trkpt lat="45.52315" lon="6.06585">
        <ele>1033.6</ele>
        <time>2012-10-30T11:18:36Z</time>
      </trkpt>
      <trkpt lat="45.52314" lon="6.06585">
        <ele>1033.1</ele>
        <time>2012-10-30T11:18:40Z</time>
      </trkpt>
      <trkpt lat="45.52314" lon="6.06585">
        <ele>1033.1</ele>
        <time>2012-10-30T11:18:44Z</time>
      </trkpt>
      <trkpt lat="45.52314" lon="6.06585">
        <ele>1033.1</ele>
        <time>2012-10-30T11:18:48Z</time>
      </trkpt>
      <trkpt lat="45.52314" lon="6.06585">
        <ele>1033.1</ele>
        <time>2012-10-30T11:18:52Z</time>
      </trkpt>
      <trkpt lat="45.52314" lon="6.06585">
        <ele>1033.1</ele>
        <time>2012-10-30T11:18:56Z</time>
      </trkpt>
      <trkpt lat="45.52313" lon="6.06586">
        <ele>1033.1</ele>
        <time>2012-10-30T11:19:00Z</time>
      </trkpt>
      <trkpt lat="45.52313" lon="6.06588">
        <ele>1032.6</ele>
        <time>2012-10-30T11:19:04Z</time>
      </trkpt>
      <trkpt lat="45.52305" lon="6.0659">
        <ele>1031.2</ele>
        <time>2012-10-30T11:19:08Z</time>
      </trkpt>
      <trkpt lat="45.52283" lon="6.06606">
        <ele>1026.3</ele>
        <time>2012-10-30T11:19:12Z</time>
      </trkpt>
      <trkpt lat="45.52256" lon="6.06627">
        <ele>1021.1</ele>
        <time>2012-10-30T11:19:16Z</time>
      </trkpt>
      <trkpt lat="45.52226" lon="6.06615">
        <ele>1017.2</ele>
        <time>2012-10-30T11:19:20Z</time>
      </trkpt>
      <trkpt lat="45.52196" lon="6.06585">
        <ele>1013.8</ele>
        <time>2012-10-30T11:19:24Z</time>
      </trkpt>
      <trkpt lat="45.52171" lon="6.06561">
        <ele>1009.5</ele>
        <time>2012-10-30T11:19:28Z</time>
      </trkpt>
      <trkpt lat="45.5214" lon="6.06532">
        <ele>999.4</ele>
        <time>2012-10-30T11:19:32Z</time>
      </trkpt>
      <trkpt lat="45.52114" lon="6.06498">
        <ele>991.7</ele>
        <time>2012-10-30T11:19:36Z</time>
      </trkpt>
      <trkpt lat="45.52086" lon="6.06464">
        <ele>985</ele>
        <time>2012-10-30T11:19:40Z</time>
      </trkpt>
      <trkpt lat="45.52055" lon="6.06432">
        <ele>978.3</ele>
        <time>2012-10-30T11:19:44Z</time>
      </trkpt>
      <trkpt lat="45.52022" lon="6.06401">
        <ele>971.5</ele>
        <time>2012-10-30T11:19:48Z</time>
      </trkpt>
      <trkpt lat="45.5199" lon="6.06373">
        <ele>963.4</ele>
        <time>2012-10-30T11:19:52Z</time>
      </trkpt>
      <trkpt lat="45.51959" lon="6.06341">
        <ele>955.2</ele>
        <time>2012-10-30T11:19:56Z</time>
      </trkpt>
      <trkpt lat="45.5193" lon="6.06306">
        <ele>948</ele>
        <time>2012-10-30T11:20:00Z</time>
      </trkpt>
      <trkpt lat="45.51901" lon="6.06277">
        <ele>943.7</ele>
        <time>2012-10-30T11:20:04Z</time>
      </trkpt>
      <trkpt lat="45.51871" lon="6.06258">
        <ele>940.3</ele>
        <time>2012-10-30T11:20:08Z</time>
      </trkpt>
      <trkpt lat="45.51843" lon="6.06227">
        <ele>936.5</ele>
        <time>2012-10-30T11:20:12Z</time>
      </trkpt>
      <trkpt lat="45.51819" lon="6.06184">
        <ele>932.6</ele>
        <time>2012-10-30T11:20:16Z</time>
      </trkpt>
      <trkpt lat="45.518" lon="6.0614">
        <ele>928.8</ele>
        <time>2012-10-30T11:20:20Z</time>
      </trkpt>
      <trkpt lat="45.51782" lon="6.06094">
        <ele>924.9</ele>
        <time>2012-10-30T11:20:24Z</time>
      </trkpt>
      <trkpt lat="45.51761" lon="6.06055">
        <ele>920.6</ele>
        <time>2012-10-30T11:20:28Z</time>
      </trkpt>
      <trkpt lat="45.51741" lon="6.06011">
        <ele>916.8</ele>
        <time>2012-10-30T11:20:32Z</time>
      </trkpt>
      <trkpt lat="45.5172" lon="6.05971">
        <ele>911.9</ele>
        <time>2012-10-30T11:20:36Z</time>
      </trkpt>
      <trkpt lat="45.517" lon="6.05933">
        <ele>907.1</ele>
        <time>2012-10-30T11:20:40Z</time>
      </trkpt>
      <trkpt lat="45.51677" lon="6.05893">
        <ele>901.4</ele>
        <time>2012-10-30T11:20:44Z</time>
      </trkpt>
      <trkpt lat="45.51654" lon="6.05854">
        <ele>895.6</ele>
        <time>2012-10-30T11:20:48Z</time>
      </trkpt>
      <trkpt lat="45.51628" lon="6.0582">
        <ele>889.4</ele>
        <time>2012-10-30T11:20:52Z</time>
      </trkpt>
      <trkpt lat="45.51608" lon="6.05784">
        <ele>883.1</ele>
        <time>2012-10-30T11:20:56Z</time>
      </trkpt>
      <trkpt lat="45.5159" lon="6.05748">
        <ele>876.9</ele>
        <time>2012-10-30T11:21:00Z</time>
      </trkpt>
      <trkpt lat="45.51569" lon="6.05714">
        <ele>870.6</ele>
        <time>2012-10-30T11:21:04Z</time>
      </trkpt>
      <trkpt lat="45.51539" lon="6.0569">
        <ele>863.9</ele>
        <time>2012-10-30T11:21:08Z</time>
      </trkpt>
      <trkpt lat="45.51506" lon="6.05672">
        <ele>857.6</ele>
        <time>2012-10-30T11:21:12Z</time>
      </trkpt>
      <trkpt lat="45.51473" lon="6.05649">
        <ele>850.9</ele>
        <time>2012-10-30T11:21:16Z</time>
      </trkpt>
      <trkpt lat="45.51443" lon="6.0562">
        <ele>844.7</ele>
        <time>2012-10-30T11:21:20Z</time>
      </trkpt>
      <trkpt lat="45.51415" lon="6.05592">
        <ele>837.9</ele>
        <time>2012-10-30T11:21:24Z</time>
      </trkpt>
      <trkpt lat="45.51382" lon="6.0556">
        <ele>831.2</ele>
        <time>2012-10-30T11:21:28Z</time>
      </trkpt>
      <trkpt lat="45.51351" lon="6.05534">
        <ele>824.9</ele>
        <time>2012-10-30T11:21:32Z</time>
      </trkpt>
      <trkpt lat="45.51321" lon="6.05516">
        <ele>818.2</ele>
        <time>2012-10-30T11:21:36Z</time>
      </trkpt>
      <trkpt lat="45.5129" lon="6.05517">
        <ele>808.1</ele>
        <time>2012-10-30T11:21:40Z</time>
      </trkpt>
      <trkpt lat="45.51261" lon="6.05547">
        <ele>800</ele>
        <time>2012-10-30T11:21:44Z</time>
      </trkpt>
      <trkpt lat="45.51239" lon="6.05593">
        <ele>790.3</ele>
        <time>2012-10-30T11:21:48Z</time>
      </trkpt>
      <trkpt lat="45.51217" lon="6.05636">
        <ele>782.2</ele>
        <time>2012-10-30T11:21:52Z</time>
      </trkpt>
      <trkpt lat="45.51194" lon="6.05678">
        <ele>774</ele>
        <time>2012-10-30T11:21:56Z</time>
      </trkpt>
      <trkpt lat="45.5117" lon="6.0572">
        <ele>767.3</ele>
        <time>2012-10-30T11:22:00Z</time>
      </trkpt>
      <trkpt lat="45.51153" lon="6.05767">
        <ele>762</ele>
        <time>2012-10-30T11:22:04Z</time>
      </trkpt>
      <trkpt lat="45.51137" lon="6.05817">
        <ele>757.7</ele>
        <time>2012-10-30T11:22:08Z</time>
      </trkpt>
      <trkpt lat="45.51122" lon="6.05864">
        <ele>751.4</ele>
        <time>2012-10-30T11:22:12Z</time>
      </trkpt>
      <trkpt lat="45.51107" lon="6.05911">
        <ele>743.7</ele>
        <time>2012-10-30T11:22:16Z</time>
      </trkpt>
      <trkpt lat="45.51089" lon="6.05955">
        <ele>735.1</ele>
        <time>2012-10-30T11:22:20Z</time>
      </trkpt>
      <trkpt lat="45.5107" lon="6.05996">
        <ele>728.3</ele>
        <time>2012-10-30T11:22:24Z</time>
      </trkpt>
      <trkpt lat="45.51057" lon="6.06043">
        <ele>721.6</ele>
        <time>2012-10-30T11:22:28Z</time>
      </trkpt>
      <trkpt lat="45.51046" lon="6.06091">
        <ele>714.9</ele>
        <time>2012-10-30T11:22:32Z</time>
      </trkpt>
      <trkpt lat="45.51036" lon="6.06141">
        <ele>707.7</ele>
        <time>2012-10-30T11:22:36Z</time>
      </trkpt>
      <trkpt lat="45.51023" lon="6.06191">
        <ele>700.9</ele>
        <time>2012-10-30T11:22:40Z</time>
      </trkpt>
      <trkpt lat="45.51012" lon="6.06243">
        <ele>693.7</ele>
        <time>2012-10-30T11:22:44Z</time>
      </trkpt>
      <trkpt lat="45.51004" lon="6.06294">
        <ele>686.5</ele>
        <time>2012-10-30T11:22:48Z</time>
      </trkpt>
      <trkpt lat="45.50996" lon="6.06345">
        <ele>679.3</ele>
        <time>2012-10-30T11:22:52Z</time>
      </trkpt>
      <trkpt lat="45.50985" lon="6.06397">
        <ele>672.6</ele>
        <time>2012-10-30T11:22:56Z</time>
      </trkpt>
      <trkpt lat="45.50981" lon="6.06446">
        <ele>665.9</ele>
        <time>2012-10-30T11:23:00Z</time>
      </trkpt>
      <trkpt lat="45.50983" lon="6.06494">
        <ele>659.1</ele>
        <time>2012-10-30T11:23:04Z</time>
      </trkpt>
      <trkpt lat="45.50986" lon="6.06542">
        <ele>652.9</ele>
        <time>2012-10-30T11:23:08Z</time>
      </trkpt>
      <trkpt lat="45.50989" lon="6.0659">
        <ele>645.7</ele>
        <time>2012-10-30T11:23:12Z</time>
      </trkpt>
      <trkpt lat="45.50996" lon="6.06637">
        <ele>638.9</ele>
        <time>2012-10-30T11:23:16Z</time>
      </trkpt>
      <trkpt lat="45.51001" lon="6.06685">
        <ele>633.2</ele>
        <time>2012-10-30T11:23:20Z</time>
      </trkpt>
      <trkpt lat="45.51005" lon="6.06736">
        <ele>627.4</ele>
        <time>2012-10-30T11:23:24Z</time>
      </trkpt>
      <trkpt lat="45.51008" lon="6.06787">
        <ele>622.1</ele>
        <time>2012-10-30T11:23:28Z</time>
      </trkpt>
      <trkpt lat="45.51015" lon="6.06836">
        <ele>616.8</ele>
        <time>2012-10-30T11:23:32Z</time>
      </trkpt>
      <trkpt lat="45.51019" lon="6.06891">
        <ele>611.5</ele>
        <time>2012-10-30T11:23:36Z</time>
      </trkpt>
      <trkpt lat="45.51017" lon="6.06942">
        <ele>605.8</ele>
        <time>2012-10-30T11:23:40Z</time>
      </trkpt>
      <trkpt lat="45.51018" lon="6.06996">
        <ele>601</ele>
        <time>2012-10-30T11:23:44Z</time>
      </trkpt>
      <trkpt lat="45.51004" lon="6.07041">
        <ele>596.2</ele>
        <time>2012-10-30T11:23:48Z</time>
      </trkpt>
      <trkpt lat="45.50978" lon="6.07081">
        <ele>590.4</ele>
        <time>2012-10-30T11:23:52Z</time>
      </trkpt>
      <trkpt lat="45.50948" lon="6.07116">
        <ele>584.1</ele>
        <time>2012-10-30T11:23:56Z</time>
      </trkpt>
      <trkpt lat="45.50919" lon="6.07145">
        <ele>578.4</ele>
        <time>2012-10-30T11:24:00Z</time>
      </trkpt>
      <trkpt lat="45.50891" lon="6.07177">
        <ele>572.6</ele>
        <time>2012-10-30T11:24:04Z</time>
      </trkpt>
      <trkpt lat="45.50864" lon="6.07207">
        <ele>566.4</ele>
        <time>2012-10-30T11:24:08Z</time>
      </trkpt>
      <trkpt lat="45.50837" lon="6.07232">
        <ele>559.6</ele>
        <time>2012-10-30T11:24:12Z</time>
      </trkpt>
      <trkpt lat="45.50807" lon="6.07254">
        <ele>551</ele>
        <time>2012-10-30T11:24:16Z</time>
      </trkpt>
      <trkpt lat="45.50782" lon="6.07281">
        <ele>542.8</ele>
        <time>2012-10-30T11:24:20Z</time>
      </trkpt>
      <trkpt lat="45.50757" lon="6.07306">
        <ele>534.6</ele>
        <time>2012-10-30T11:24:24Z</time>
      </trkpt>
      <trkpt lat="45.50731" lon="6.07333">
        <ele>526</ele>
        <time>2012-10-30T11:24:28Z</time>
      </trkpt>
      <trkpt lat="45.50708" lon="6.07363">
        <ele>518.3</ele>
        <time>2012-10-30T11:24:32Z</time>
      </trkpt>
      <trkpt lat="45.5068" lon="6.07368">
        <ele>510.6</ele>
        <time>2012-10-30T11:24:36Z</time>
      </trkpt>
      <trkpt lat="45.50653" lon="6.07352">
        <ele>502.9</ele>
        <time>2012-10-30T11:24:40Z</time>
      </trkpt>
      <trkpt lat="45.50629" lon="6.07324">
        <ele>495.2</ele>
        <time>2012-10-30T11:24:44Z</time>
      </trkpt>
      <trkpt lat="45.5061" lon="6.07293">
        <ele>488</ele>
        <time>2012-10-30T11:24:48Z</time>
      </trkpt>
      <trkpt lat="45.50586" lon="6.07269">
        <ele>480.8</ele>
        <time>2012-10-30T11:24:52Z</time>
      </trkpt>
      <trkpt lat="45.5056" lon="6.07247">
        <ele>474.1</ele>
        <time>2012-10-30T11:24:56Z</time>
      </trkpt>
      <trkpt lat="45.50545" lon="6.0721">
        <ele>467.3</ele>
        <time>2012-10-30T11:25:00Z</time>
      </trkpt>
      <trkpt lat="45.50543" lon="6.07167">
        <ele>461.6</ele>
        <time>2012-10-30T11:25:04Z</time>
      </trkpt>
      <trkpt lat="45.50548" lon="6.07128">
        <ele>455.3</ele>
        <time>2012-10-30T11:25:08Z</time>
      </trkpt>
      <trkpt lat="45.50539" lon="6.07091">
        <ele>448.1</ele>
        <time>2012-10-30T11:25:12Z</time>
      </trkpt>
      <trkpt lat="45.50512" lon="6.07073">
        <ele>440.4</ele>
        <time>2012-10-30T11:25:16Z</time>
      </trkpt>
      <trkpt lat="45.5048" lon="6.07086">
        <ele>430.8</ele>
        <time>2012-10-30T11:25:20Z</time>
      </trkpt>
      <trkpt lat="45.50458" lon="6.07116">
        <ele>424.6</ele>
        <time>2012-10-30T11:25:24Z</time>
      </trkpt>
      <trkpt lat="45.50443" lon="6.07156">
        <ele>419.8</ele>
        <time>2012-10-30T11:25:28Z</time>
      </trkpt>
      <trkpt lat="45.50435" lon="6.07204">
        <ele>414.9</ele>
        <time>2012-10-30T11:25:32Z</time>
      </trkpt>
      <trkpt lat="45.50438" lon="6.07252">
        <ele>410.1</ele>
        <time>2012-10-30T11:25:36Z</time>
      </trkpt>
      <trkpt lat="45.5045" lon="6.07301">
        <ele>403.9</ele>
        <time>2012-10-30T11:25:40Z</time>
      </trkpt>
      <trkpt lat="45.50471" lon="6.07343">
        <ele>396.2</ele>
        <time>2012-10-30T11:25:44Z</time>
      </trkpt>
      <trkpt lat="45.50495" lon="6.07386">
        <ele>388</ele>
        <time>2012-10-30T11:25:48Z</time>
      </trkpt>
      <trkpt lat="45.50521" lon="6.07428">
        <ele>378.4</ele>
        <time>2012-10-30T11:25:52Z</time>
      </trkpt>
      <trkpt lat="45.50556" lon="6.07456">
        <ele>369.3</ele>
        <time>2012-10-30T11:25:56Z</time>
      </trkpt>
      <trkpt lat="45.50592" lon="6.07454">
        <ele>360.6</ele>
        <time>2012-10-30T11:26:00Z</time>
      </trkpt>
      <trkpt lat="45.50625" lon="6.07428">
        <ele>352.5</ele>
        <time>2012-10-30T11:26:04Z</time>
      </trkpt>
      <trkpt lat="45.50649" lon="6.07388">
        <ele>344.8</ele>
        <time>2012-10-30T11:26:08Z</time>
      </trkpt>
      <trkpt lat="45.50678" lon="6.07359">
        <ele>337.1</ele>
        <time>2012-10-30T11:26:12Z</time>
      </trkpt>
      <trkpt lat="45.50692" lon="6.07319">
        <ele>328.4</ele>
        <time>2012-10-30T11:26:16Z</time>
      </trkpt>
      <trkpt lat="45.50671" lon="6.07327">
        <ele>319.8</ele>
        <time>2012-10-30T11:26:20Z</time>
      </trkpt>
      <trkpt lat="45.50641" lon="6.07344">
        <ele>311.1</ele>
        <time>2012-10-30T11:26:24Z</time>
      </trkpt>
      <trkpt lat="45.50618" lon="6.0736">
        <ele>308.7</ele>
        <time>2012-10-30T11:26:28Z</time>
      </trkpt>
      <trkpt lat="45.5059" lon="6.07344">
        <ele>302</ele>
        <time>2012-10-30T11:26:32Z</time>
      </trkpt>
      <trkpt lat="45.50599" lon="6.07299">
        <ele>295.3</ele>
        <time>2012-10-30T11:26:36Z</time>
      </trkpt>
      <trkpt lat="45.50601" lon="6.07263">
        <ele>287.6</ele>
        <time>2012-10-30T11:26:40Z</time>
      </trkpt>
      <trkpt lat="45.50573" lon="6.07245">
        <ele>279.4</ele>
        <time>2012-10-30T11:26:44Z</time>
      </trkpt>
      <trkpt lat="45.5055" lon="6.07219">
        <ele>272.7</ele>
        <time>2012-10-30T11:26:48Z</time>
      </trkpt>
      <trkpt lat="45.5054" lon="6.07198">
        <ele>266.9</ele>
        <time>2012-10-30T11:26:52Z</time>
      </trkpt>
      <trkpt lat="45.50538" lon="6.07189">
        <ele>263.5</ele>
        <time>2012-10-30T11:26:56Z</time>
      </trkpt>
      <trkpt lat="45.50537" lon="6.07185">
        <ele>260.7</ele>
        <time>2012-10-30T11:27:00Z</time>
      </trkpt>
      <trkpt lat="45.50538" lon="6.07184">
        <ele>258.3</ele>
        <time>2012-10-30T11:27:04Z</time>
      </trkpt>
      <trkpt lat="45.50538" lon="6.07184">
        <ele>256.3</ele>
        <time>2012-10-30T11:27:08Z</time>
      </trkpt>
      <trkpt lat="45.50538" lon="6.07185">
        <ele>254.9</ele>
        <time>2012-10-30T11:27:12Z</time>
      </trkpt>
      <trkpt lat="45.50538" lon="6.07185">
        <ele>254.4</ele>
        <time>2012-10-30T11:27:16Z</time>
      </trkpt>
      <trkpt lat="45.50538" lon="6.07185">
        <ele>254.4</ele>
        <time>2012-10-30T11:27:20Z</time>
      </trkpt>
      <trkpt lat="45.50538" lon="6.07185">
        <ele>254.4</ele>
        <time>2012-10-30T11:27:24Z</time>
      </trkpt>
      <trkpt lat="45.50538" lon="6.07185">
        <ele>254.4</ele>
        <time>2012-10-30T11:27:28Z</time>
      </trkpt>
      <trkpt lat="45.50538" lon="6.07185">
        <ele>254.4</ele>
        <time>2012-10-30T11:27:32Z</time>
      </trkpt>
      <trkpt lat="45.50538" lon="6.07185">
        <ele>254.4</ele>
        <time>2012-10-30T11:27:36Z</time>
      </trkpt>
      <trkpt lat="45.50539" lon="6.07185">
        <ele>254.4</ele>
        <time>2012-10-30T11:27:40Z</time>
      </trkpt>
      <trkpt lat="45.50539" lon="6.07185">
        <ele>254.4</ele>
        <time>2012-10-30T11:27:44Z</time>
      </trkpt>
      <trkpt lat="45.50541" lon="6.07184">
        <ele>253.9</ele>
        <time>2012-10-30T11:27:48Z</time>
      </trkpt>
      <trkpt lat="45.50542" lon="6.07184">
        <ele>253.9</ele>
        <time>2012-10-30T11:27:52Z</time>
      </trkpt>
      <trkpt lat="45.50542" lon="6.07188">
        <ele>253.9</ele>
        <time>2012-10-30T11:27:56Z</time>
      </trkpt>
      <trkpt lat="45.50543" lon="6.07194">
        <ele>254.4</ele>
        <time>2012-10-30T11:28:00Z</time>
      </trkpt>
      <trkpt lat="45.50543" lon="6.07199">
        <ele>254.9</ele>
        <time>2012-10-30T11:28:04Z</time>
      </trkpt>
      <trkpt lat="45.50546" lon="6.07204">
        <ele>255.8</ele>
        <time>2012-10-30T11:28:08Z</time>
      </trkpt>
      <trkpt lat="45.50549" lon="6.07208">
        <ele>256.8</ele>
        <time>2012-10-30T11:28:12Z</time>
      </trkpt>
      <trkpt lat="45.50553" lon="6.07213">
        <ele>257.3</ele>
        <time>2012-10-30T11:28:16Z</time>
      </trkpt>
      <trkpt lat="45.50556" lon="6.07215">
        <ele>258.3</ele>
        <time>2012-10-30T11:28:20Z</time>
      </trkpt>
      <trkpt lat="45.50557" lon="6.07216">
        <ele>258.7</ele>
        <time>2012-10-30T11:28:24Z</time>
      </trkpt>
      <trkpt lat="45.50555" lon="6.0722">
        <ele>259.7</ele>
        <time>2012-10-30T11:28:28Z</time>
      </trkpt>
      <trkpt lat="45.50555" lon="6.07221">
        <ele>260.2</ele>
        <time>2012-10-30T11:28:32Z</time>
      </trkpt>
      <trkpt lat="45.50555" lon="6.07221">
        <ele>260.2</ele>
        <time>2012-10-30T11:28:36Z</time>
      </trkpt>
      <trkpt lat="45.50555" lon="6.07221">
        <ele>260.2</ele>
        <time>2012-10-30T11:28:40Z</time>
      </trkpt>
      <trkpt lat="45.50555" lon="6.07221">
        <ele>260.2</ele>
        <time>2012-10-30T11:28:44Z</time>
      </trkpt>
      <trkpt lat="45.50555" lon="6.07221">
        <ele>260.2</ele>
        <time>2012-10-30T11:28:48Z</time>
      </trkpt>
      <trkpt lat="45.50555" lon="6.07221">
        <ele>260.2</ele>
        <time>2012-10-30T11:28:52Z</time>
      </trkpt>
      <trkpt lat="45.50555" lon="6.07221">
        <ele>260.2</ele>
        <time>2012-10-30T11:28:56Z</time>
      </trkpt>
      <trkpt lat="45.50555" lon="6.07221">
        <ele>260.2</ele>
        <time>2012-10-30T11:29:00Z</time>
      </trkpt>
      <trkpt lat="45.50555" lon="6.07221">
        <ele>260.2</ele>
        <time>2012-10-30T11:29:04Z</time>
      </trkpt>
      <trkpt lat="45.50555" lon="6.07221">
        <ele>260.2</ele>
        <time>2012-10-30T11:29:08Z</time>
      </trkpt>
      <trkpt lat="45.50555" lon="6.0722">
        <ele>260.2</ele>
        <time>2012-10-30T11:29:12Z</time>
      </trkpt>
      <trkpt lat="45.50556" lon="6.07221">
        <ele>260.7</ele>
        <time>2012-10-30T11:29:16Z</time>
      </trkpt>
      <trkpt lat="45.50556" lon="6.07221">
        <ele>261.6</ele>
        <time>2012-10-30T11:29:20Z</time>
      </trkpt>
      <trkpt lat="45.50555" lon="6.0722">
        <ele>262.1</ele>
        <time>2012-10-30T11:29:24Z</time>
      </trkpt>
      <trkpt lat="45.50555" lon="6.0722">
        <ele>262.1</ele>
        <time>2012-10-30T11:29:28Z</time>
      </trkpt>
      <trkpt lat="45.50555" lon="6.0722">
        <ele>262.1</ele>
        <time>2012-10-30T11:29:32Z</time>
      </trkpt>
      <trkpt lat="45.50555" lon="6.0722">
        <ele>262.1</ele>
        <time>2012-10-30T11:29:36Z</time>
      </trkpt>
      <trkpt lat="45.50555" lon="6.0722">
        <ele>262.1</ele>
        <time>2012-10-30T11:29:40Z</time>
      </trkpt>
      <trkpt lat="45.50555" lon="6.0722">
        <ele>262.1</ele>
        <time>2012-10-30T11:29:44Z</time>
      </trkpt>
      <trkpt lat="45.50555" lon="6.0722">
        <ele>262.1</ele>
        <time>2012-10-30T11:29:48Z</time>
      </trkpt>
      <trkpt lat="45.50555" lon="6.0722">
        <ele>262.1</ele>
        <time>2012-10-30T11:29:52Z</time>
      </trkpt>
      <trkpt lat="45.50555" lon="6.07221">
        <ele>262.6</ele>
        <time>2012-10-30T11:29:56Z</time>
      </trkpt>
      <trkpt lat="45.50555" lon="6.07221">
        <ele>262.6</ele>
        <time>2012-10-30T11:30:00Z</time>
      </trkpt>
      <trkpt lat="45.50555" lon="6.07221">
        <ele>262.6</ele>
        <time>2012-10-30T11:30:04Z</time>
      </trkpt>
      <trkpt lat="45.50552" lon="6.07217">
        <ele>265.5</ele>
        <time>2012-10-30T11:30:08Z</time>
      </trkpt>
      <trkpt lat="45.50552" lon="6.07217">
        <ele>265.5</ele>
        <time>2012-10-30T11:30:10Z</time>
      </trkpt>
      <trkpt lat="45.50545" lon="6.07258">
        <ele>277</ele>
        <time>2012-10-30T11:43:28Z</time>
      </trkpt>
      <trkpt lat="45.50553" lon="6.07232">
        <ele>273.6</ele>
        <time>2012-10-30T11:43:32Z</time>
      </trkpt>
      <trkpt lat="45.50554" lon="6.07225">
        <ele>269.3</ele>
        <time>2012-10-30T11:43:36Z</time>
      </trkpt>
      <trkpt lat="45.50555" lon="6.07225">
        <ele>270.7</ele>
        <time>2012-10-30T11:43:40Z</time>
      </trkpt>
      <trkpt lat="45.50554" lon="6.07225">
        <ele>270.7</ele>
        <time>2012-10-30T11:43:44Z</time>
      </trkpt>
      <trkpt lat="45.50554" lon="6.07224">
        <ele>270.7</ele>
        <time>2012-10-30T11:43:48Z</time>
      </trkpt>
      <trkpt lat="45.50554" lon="6.07224">
        <ele>267.9</ele>
        <time>2012-10-30T11:43:52Z</time>
      </trkpt>
      <trkpt lat="45.50553" lon="6.07223">
        <ele>266.4</ele>
        <time>2012-10-30T11:43:56Z</time>
      </trkpt>
      <trkpt lat="45.50554" lon="6.07224">
        <ele>266.9</ele>
        <time>2012-10-30T11:44:00Z</time>
      </trkpt>
      <trkpt lat="45.50555" lon="6.07229">
        <ele>267.4</ele>
        <time>2012-10-30T11:44:04Z</time>
      </trkpt>
      <trkpt lat="45.50556" lon="6.07236">
        <ele>268.3</ele>
        <time>2012-10-30T11:44:08Z</time>
      </trkpt>
      <trkpt lat="45.50559" lon="6.07241">
        <ele>268.3</ele>
        <time>2012-10-30T11:44:12Z</time>
      </trkpt>
      <trkpt lat="45.50561" lon="6.07246">
        <ele>268.3</ele>
        <time>2012-10-30T11:44:16Z</time>
      </trkpt>
      <trkpt lat="45.50563" lon="6.07252">
        <ele>268.3</ele>
        <time>2012-10-30T11:44:20Z</time>
      </trkpt>
      <trkpt lat="45.50562" lon="6.07259">
        <ele>268.8</ele>
        <time>2012-10-30T11:44:24Z</time>
      </trkpt>
      <trkpt lat="45.50563" lon="6.07265">
        <ele>267.9</ele>
        <time>2012-10-30T11:44:28Z</time>
      </trkpt>
      <trkpt lat="45.50563" lon="6.07271">
        <ele>266.4</ele>
        <time>2012-10-30T11:44:32Z</time>
      </trkpt>
      <trkpt lat="45.5056" lon="6.07274">
        <ele>266.9</ele>
        <time>2012-10-30T11:44:36Z</time>
      </trkpt>
      <trkpt lat="45.50559" lon="6.0728">
        <ele>266.9</ele>
        <time>2012-10-30T11:44:40Z</time>
      </trkpt>
      <trkpt lat="45.50563" lon="6.07286">
        <ele>267.9</ele>
        <time>2012-10-30T11:44:44Z</time>
      </trkpt>
      <trkpt lat="45.50566" lon="6.07292">
        <ele>268.3</ele>
        <time>2012-10-30T11:44:48Z</time>
      </trkpt>
      <trkpt lat="45.50569" lon="6.073">
        <ele>267.9</ele>
        <time>2012-10-30T11:44:52Z</time>
      </trkpt>
      <trkpt lat="45.50572" lon="6.07306">
        <ele>267.9</ele>
        <time>2012-10-30T11:44:56Z</time>
      </trkpt>
      <trkpt lat="45.50576" lon="6.07313">
        <ele>267.4</ele>
        <time>2012-10-30T11:45:00Z</time>
      </trkpt>
      <trkpt lat="45.50579" lon="6.0732">
        <ele>268.3</ele>
        <time>2012-10-30T11:45:04Z</time>
      </trkpt>
      <trkpt lat="45.50582" lon="6.07328">
        <ele>268.8</ele>
        <time>2012-10-30T11:45:08Z</time>
      </trkpt>
      <trkpt lat="45.50585" lon="6.07336">
        <ele>268.8</ele>
        <time>2012-10-30T11:45:12Z</time>
      </trkpt>
      <trkpt lat="45.50589" lon="6.07343">
        <ele>267.9</ele>
        <time>2012-10-30T11:45:16Z</time>
      </trkpt>
      <trkpt lat="45.50593" lon="6.07348">
        <ele>267.4</ele>
        <time>2012-10-30T11:45:20Z</time>
      </trkpt>
      <trkpt lat="45.50596" lon="6.07354">
        <ele>267.4</ele>
        <time>2012-10-30T11:45:24Z</time>
      </trkpt>
      <trkpt lat="45.506" lon="6.07362">
        <ele>267.4</ele>
        <time>2012-10-30T11:45:28Z</time>
      </trkpt>
      <trkpt lat="45.50604" lon="6.07369">
        <ele>266.9</ele>
        <time>2012-10-30T11:45:32Z</time>
      </trkpt>
      <trkpt lat="45.50607" lon="6.07375">
        <ele>267.4</ele>
        <time>2012-10-30T11:45:36Z</time>
      </trkpt>
      <trkpt lat="45.5061" lon="6.07383">
        <ele>267.4</ele>
        <time>2012-10-30T11:45:40Z</time>
      </trkpt>
      <trkpt lat="45.50613" lon="6.07389">
        <ele>266.4</ele>
        <time>2012-10-30T11:45:44Z</time>
      </trkpt>
      <trkpt lat="45.50618" lon="6.07393">
        <ele>266.9</ele>
        <time>2012-10-30T11:45:48Z</time>
      </trkpt>
      <trkpt lat="45.50623" lon="6.0739">
        <ele>267.4</ele>
        <time>2012-10-30T11:45:52Z</time>
      </trkpt>
      <trkpt lat="45.50628" lon="6.07386">
        <ele>268.3</ele>
        <time>2012-10-30T11:45:56Z</time>
      </trkpt>
      <trkpt lat="45.50634" lon="6.07383">
        <ele>269.3</ele>
        <time>2012-10-30T11:46:00Z</time>
      </trkpt>
      <trkpt lat="45.50639" lon="6.0738">
        <ele>269.8</ele>
        <time>2012-10-30T11:46:04Z</time>
      </trkpt>
      <trkpt lat="45.50644" lon="6.07375">
        <ele>270.7</ele>
        <time>2012-10-30T11:46:08Z</time>
      </trkpt>
      <trkpt lat="45.5065" lon="6.07371">
        <ele>269.8</ele>
        <time>2012-10-30T11:46:12Z</time>
      </trkpt>
      <trkpt lat="45.50655" lon="6.07367">
        <ele>270.3</ele>
        <time>2012-10-30T11:46:16Z</time>
      </trkpt>
      <trkpt lat="45.5066" lon="6.07364">
        <ele>271.2</ele>
        <time>2012-10-30T11:46:20Z</time>
      </trkpt>
      <trkpt lat="45.50667" lon="6.0736">
        <ele>269.8</ele>
        <time>2012-10-30T11:46:24Z</time>
      </trkpt>
      <trkpt lat="45.50673" lon="6.07359">
        <ele>268.3</ele>
        <time>2012-10-30T11:46:28Z</time>
      </trkpt>
      <trkpt lat="45.50678" lon="6.07355">
        <ele>269.8</ele>
        <time>2012-10-30T11:46:32Z</time>
      </trkpt>
      <trkpt lat="45.50683" lon="6.0735">
        <ele>270.7</ele>
        <time>2012-10-30T11:46:36Z</time>
      </trkpt>
      <trkpt lat="45.50688" lon="6.07343">
        <ele>269.3</ele>
        <time>2012-10-30T11:46:40Z</time>
      </trkpt>
      <trkpt lat="45.50693" lon="6.07339">
        <ele>269.3</ele>
        <time>2012-10-30T11:46:44Z</time>
      </trkpt>
      <trkpt lat="45.50699" lon="6.07336">
        <ele>269.8</ele>
        <time>2012-10-30T11:46:48Z</time>
      </trkpt>
      <trkpt lat="45.50704" lon="6.07333">
        <ele>269.8</ele>
        <time>2012-10-30T11:46:52Z</time>
      </trkpt>
      <trkpt lat="45.5071" lon="6.0733">
        <ele>269.3</ele>
        <time>2012-10-30T11:46:56Z</time>
      </trkpt>
      <trkpt lat="45.50716" lon="6.07327">
        <ele>269.8</ele>
        <time>2012-10-30T11:47:00Z</time>
      </trkpt>
      <trkpt lat="45.50722" lon="6.07324">
        <ele>271.2</ele>
        <time>2012-10-30T11:47:04Z</time>
      </trkpt>
      <trkpt lat="45.50727" lon="6.07319">
        <ele>272.2</ele>
        <time>2012-10-30T11:47:08Z</time>
      </trkpt>
      <trkpt lat="45.50732" lon="6.07314">
        <ele>271.7</ele>
        <time>2012-10-30T11:47:12Z</time>
      </trkpt>
      <trkpt lat="45.50738" lon="6.0731">
        <ele>270.7</ele>
        <time>2012-10-30T11:47:16Z</time>
      </trkpt>
      <trkpt lat="45.50743" lon="6.07306">
        <ele>271.7</ele>
        <time>2012-10-30T11:47:20Z</time>
      </trkpt>
      <trkpt lat="45.50749" lon="6.07302">
        <ele>272.2</ele>
        <time>2012-10-30T11:47:24Z</time>
      </trkpt>
      <trkpt lat="45.50755" lon="6.07297">
        <ele>272.2</ele>
        <time>2012-10-30T11:47:28Z</time>
      </trkpt>
      <trkpt lat="45.50761" lon="6.07294">
        <ele>271.7</ele>
        <time>2012-10-30T11:47:32Z</time>
      </trkpt>
      <trkpt lat="45.50766" lon="6.07291">
        <ele>270.7</ele>
        <time>2012-10-30T11:47:36Z</time>
      </trkpt>
      <trkpt lat="45.50772" lon="6.07287">
        <ele>271.7</ele>
        <time>2012-10-30T11:47:40Z</time>
      </trkpt>
      <trkpt lat="45.50777" lon="6.07282">
        <ele>272.2</ele>
        <time>2012-10-30T11:47:44Z</time>
      </trkpt>
      <trkpt lat="45.50782" lon="6.07277">
        <ele>270.7</ele>
        <time>2012-10-30T11:47:48Z</time>
      </trkpt>
      <trkpt lat="45.50788" lon="6.07273">
        <ele>269.8</ele>
        <time>2012-10-30T11:47:52Z</time>
      </trkpt>
      <trkpt lat="45.50793" lon="6.07269">
        <ele>270.7</ele>
        <time>2012-10-30T11:47:56Z</time>
      </trkpt>
      <trkpt lat="45.50799" lon="6.07265">
        <ele>271.2</ele>
        <time>2012-10-30T11:48:00Z</time>
      </trkpt>
      <trkpt lat="45.50805" lon="6.07262">
        <ele>271.2</ele>
        <time>2012-10-30T11:48:04Z</time>
      </trkpt>
      <trkpt lat="45.50811" lon="6.0726">
        <ele>271.7</ele>
        <time>2012-10-30T11:48:08Z</time>
      </trkpt>
      <trkpt lat="45.50817" lon="6.07256">
        <ele>271.7</ele>
        <time>2012-10-30T11:48:12Z</time>
      </trkpt>
      <trkpt lat="45.50822" lon="6.07253">
        <ele>271.7</ele>
        <time>2012-10-30T11:48:16Z</time>
      </trkpt>
      <trkpt lat="45.50827" lon="6.07249">
        <ele>271.7</ele>
        <time>2012-10-30T11:48:20Z</time>
      </trkpt>
      <trkpt lat="45.50832" lon="6.07245">
        <ele>272.2</ele>
        <time>2012-10-30T11:48:24Z</time>
      </trkpt>
      <trkpt lat="45.50838" lon="6.07242">
        <ele>273.2</ele>
        <time>2012-10-30T11:48:28Z</time>
      </trkpt>
      <trkpt lat="45.50844" lon="6.07239">
        <ele>274.1</ele>
        <time>2012-10-30T11:48:32Z</time>
      </trkpt>
      <trkpt lat="45.5085" lon="6.07235">
        <ele>273.2</ele>
        <time>2012-10-30T11:48:36Z</time>
      </trkpt>
      <trkpt lat="45.50856" lon="6.0723">
        <ele>271.2</ele>
        <time>2012-10-30T11:48:40Z</time>
      </trkpt>
      <trkpt lat="45.5086" lon="6.07227">
        <ele>269.8</ele>
        <time>2012-10-30T11:48:44Z</time>
      </trkpt>
      <trkpt lat="45.50864" lon="6.07223">
        <ele>268.3</ele>
        <time>2012-10-30T11:48:48Z</time>
      </trkpt>
      <trkpt lat="45.50871" lon="6.07218">
        <ele>267.4</ele>
        <time>2012-10-30T11:48:52Z</time>
      </trkpt>
      <trkpt lat="45.50877" lon="6.07213">
        <ele>267.4</ele>
        <time>2012-10-30T11:48:56Z</time>
      </trkpt>
      <trkpt lat="45.50883" lon="6.07211">
        <ele>268.3</ele>
        <time>2012-10-30T11:49:00Z</time>
      </trkpt>
      <trkpt lat="45.50889" lon="6.07211">
        <ele>269.8</ele>
        <time>2012-10-30T11:49:04Z</time>
      </trkpt>
      <trkpt lat="45.50893" lon="6.07211">
        <ele>271.2</ele>
        <time>2012-10-30T11:49:08Z</time>
      </trkpt>
      <trkpt lat="45.50898" lon="6.07209">
        <ele>272.2</ele>
        <time>2012-10-30T11:49:12Z</time>
      </trkpt>
      <trkpt lat="45.50905" lon="6.07207">
        <ele>273.2</ele>
        <time>2012-10-30T11:49:16Z</time>
      </trkpt>
      <trkpt lat="45.50912" lon="6.07205">
        <ele>273.6</ele>
        <time>2012-10-30T11:49:20Z</time>
      </trkpt>
      <trkpt lat="45.50918" lon="6.07204">
        <ele>275.1</ele>
        <time>2012-10-30T11:49:24Z</time>
      </trkpt>
      <trkpt lat="45.50924" lon="6.07206">
        <ele>276.5</ele>
        <time>2012-10-30T11:49:28Z</time>
      </trkpt>
      <trkpt lat="45.50926" lon="6.07206">
        <ele>277</ele>
        <time>2012-10-30T11:49:32Z</time>
      </trkpt>
      <trkpt lat="45.5093" lon="6.0721">
        <ele>278</ele>
        <time>2012-10-30T11:49:36Z</time>
      </trkpt>
      <trkpt lat="45.50934" lon="6.07215">
        <ele>278.4</ele>
        <time>2012-10-30T11:49:40Z</time>
      </trkpt>
      <trkpt lat="45.50939" lon="6.07219">
        <ele>277.5</ele>
        <time>2012-10-30T11:49:44Z</time>
      </trkpt>
      <trkpt lat="45.50944" lon="6.07223">
        <ele>276</ele>
        <time>2012-10-30T11:49:48Z</time>
      </trkpt>
      <trkpt lat="45.5095" lon="6.07225">
        <ele>276</ele>
        <time>2012-10-30T11:49:52Z</time>
      </trkpt>
      <trkpt lat="45.50956" lon="6.07228">
        <ele>275.1</ele>
        <time>2012-10-30T11:49:56Z</time>
      </trkpt>
      <trkpt lat="45.50962" lon="6.07233">
        <ele>274.1</ele>
        <time>2012-10-30T11:50:00Z</time>
      </trkpt>
      <trkpt lat="45.50966" lon="6.0724">
        <ele>273.2</ele>
        <time>2012-10-30T11:50:04Z</time>
      </trkpt>
      <trkpt lat="45.50971" lon="6.07245">
        <ele>272.2</ele>
        <time>2012-10-30T11:50:08Z</time>
      </trkpt>
      <trkpt lat="45.50977" lon="6.07249">
        <ele>272.2</ele>
        <time>2012-10-30T11:50:12Z</time>
      </trkpt>
      <trkpt lat="45.50982" lon="6.07251">
        <ele>273.2</ele>
        <time>2012-10-30T11:50:16Z</time>
      </trkpt>
      <trkpt lat="45.50989" lon="6.07249">
        <ele>273.6</ele>
        <time>2012-10-30T11:50:20Z</time>
      </trkpt>
      <trkpt lat="45.50995" lon="6.07247">
        <ele>273.6</ele>
        <time>2012-10-30T11:50:24Z</time>
      </trkpt>
      <trkpt lat="45.51002" lon="6.07244">
        <ele>273.2</ele>
        <time>2012-10-30T11:50:28Z</time>
      </trkpt>
      <trkpt lat="45.51007" lon="6.0724">
        <ele>274.1</ele>
        <time>2012-10-30T11:50:32Z</time>
      </trkpt>
      <trkpt lat="45.51012" lon="6.07237">
        <ele>276.5</ele>
        <time>2012-10-30T11:50:36Z</time>
      </trkpt>
      <trkpt lat="45.51018" lon="6.07233">
        <ele>278.4</ele>
        <time>2012-10-30T11:50:40Z</time>
      </trkpt>
      <trkpt lat="45.51025" lon="6.0723">
        <ele>280.4</ele>
        <time>2012-10-30T11:50:44Z</time>
      </trkpt>
      <trkpt lat="45.51031" lon="6.07226">
        <ele>280.8</ele>
        <time>2012-10-30T11:50:48Z</time>
      </trkpt>
      <trkpt lat="45.51036" lon="6.07223">
        <ele>281.3</ele>
        <time>2012-10-30T11:50:52Z</time>
      </trkpt>
      <trkpt lat="45.51041" lon="6.07219">
        <ele>282.8</ele>
        <time>2012-10-30T11:50:56Z</time>
      </trkpt>
      <trkpt lat="45.51046" lon="6.07213">
        <ele>283.2</ele>
        <time>2012-10-30T11:51:00Z</time>
      </trkpt>
      <trkpt lat="45.51051" lon="6.07208">
        <ele>283.7</ele>
        <time>2012-10-30T11:51:04Z</time>
      </trkpt>
      <trkpt lat="45.51054" lon="6.07201">
        <ele>284.7</ele>
        <time>2012-10-30T11:51:08Z</time>
      </trkpt>
      <trkpt lat="45.51056" lon="6.07192">
        <ele>285.6</ele>
        <time>2012-10-30T11:51:12Z</time>
      </trkpt>
      <trkpt lat="45.51056" lon="6.07183">
        <ele>285.2</ele>
        <time>2012-10-30T11:51:16Z</time>
      </trkpt>
      <trkpt lat="45.51055" lon="6.07176">
        <ele>285.6</ele>
        <time>2012-10-30T11:51:20Z</time>
      </trkpt>
      <trkpt lat="45.51053" lon="6.07168">
        <ele>286.1</ele>
        <time>2012-10-30T11:51:24Z</time>
      </trkpt>
      <trkpt lat="45.51051" lon="6.0716">
        <ele>285.6</ele>
        <time>2012-10-30T11:51:28Z</time>
      </trkpt>
      <trkpt lat="45.51049" lon="6.07151">
        <ele>286.6</ele>
        <time>2012-10-30T11:51:32Z</time>
      </trkpt>
      <trkpt lat="45.51047" lon="6.07142">
        <ele>287.1</ele>
        <time>2012-10-30T11:51:36Z</time>
      </trkpt>
      <trkpt lat="45.51046" lon="6.07134">
        <ele>286.6</ele>
        <time>2012-10-30T11:51:40Z</time>
      </trkpt>
      <trkpt lat="45.51046" lon="6.07127">
        <ele>286.6</ele>
        <time>2012-10-30T11:51:44Z</time>
      </trkpt>
      <trkpt lat="45.51044" lon="6.07118">
        <ele>287.1</ele>
        <time>2012-10-30T11:51:48Z</time>
      </trkpt>
      <trkpt lat="45.51043" lon="6.07109">
        <ele>286.6</ele>
        <time>2012-10-30T11:51:52Z</time>
      </trkpt>
      <trkpt lat="45.51041" lon="6.07101">
        <ele>286.6</ele>
        <time>2012-10-30T11:51:56Z</time>
      </trkpt>
      <trkpt lat="45.5104" lon="6.07093">
        <ele>287.1</ele>
        <time>2012-10-30T11:52:00Z</time>
      </trkpt>
      <trkpt lat="45.51039" lon="6.07084">
        <ele>287.6</ele>
        <time>2012-10-30T11:52:04Z</time>
      </trkpt>
      <trkpt lat="45.51038" lon="6.07074">
        <ele>288.1</ele>
        <time>2012-10-30T11:52:08Z</time>
      </trkpt>
      <trkpt lat="45.51036" lon="6.07065">
        <ele>287.6</ele>
        <time>2012-10-30T11:52:12Z</time>
      </trkpt>
      <trkpt lat="45.51034" lon="6.07057">
        <ele>287.1</ele>
        <time>2012-10-30T11:52:16Z</time>
      </trkpt>
      <trkpt lat="45.51032" lon="6.07049">
        <ele>287.6</ele>
        <time>2012-10-30T11:52:20Z</time>
      </trkpt>
      <trkpt lat="45.5103" lon="6.07041">
        <ele>289</ele>
        <time>2012-10-30T11:52:24Z</time>
      </trkpt>
      <trkpt lat="45.51027" lon="6.07034">
        <ele>290</ele>
        <time>2012-10-30T11:52:28Z</time>
      </trkpt>
      <trkpt lat="45.51027" lon="6.07026">
        <ele>290.5</ele>
        <time>2012-10-30T11:52:32Z</time>
      </trkpt>
      <trkpt lat="45.51029" lon="6.0702">
        <ele>290.9</ele>
        <time>2012-10-30T11:52:36Z</time>
      </trkpt>
      <trkpt lat="45.51033" lon="6.07019">
        <ele>290.5</ele>
        <time>2012-10-30T11:52:40Z</time>
      </trkpt>
      <trkpt lat="45.51039" lon="6.07021">
        <ele>290.9</ele>
        <time>2012-10-30T11:52:44Z</time>
      </trkpt>
      <trkpt lat="45.51044" lon="6.07024">
        <ele>291.4</ele>
        <time>2012-10-30T11:52:48Z</time>
      </trkpt>
      <trkpt lat="45.51048" lon="6.07026">
        <ele>291.9</ele>
        <time>2012-10-30T11:52:52Z</time>
      </trkpt>
      <trkpt lat="45.51053" lon="6.07029">
        <ele>292.9</ele>
        <time>2012-10-30T11:52:56Z</time>
      </trkpt>
      <trkpt lat="45.51057" lon="6.07032">
        <ele>293.8</ele>
        <time>2012-10-30T11:53:00Z</time>
      </trkpt>
      <trkpt lat="45.51062" lon="6.07035">
        <ele>294.3</ele>
        <time>2012-10-30T11:53:04Z</time>
      </trkpt>
      <trkpt lat="45.51066" lon="6.07038">
        <ele>294.8</ele>
        <time>2012-10-30T11:53:08Z</time>
      </trkpt>
      <trkpt lat="45.5107" lon="6.0704">
        <ele>295.3</ele>
        <time>2012-10-30T11:53:12Z</time>
      </trkpt>
      <trkpt lat="45.51076" lon="6.07043">
        <ele>296.2</ele>
        <time>2012-10-30T11:53:16Z</time>
      </trkpt>
      <trkpt lat="45.5108" lon="6.07047">
        <ele>296.2</ele>
        <time>2012-10-30T11:53:20Z</time>
      </trkpt>
      <trkpt lat="45.51085" lon="6.07049">
        <ele>296.7</ele>
        <time>2012-10-30T11:53:24Z</time>
      </trkpt>
      <trkpt lat="45.5109" lon="6.07051">
        <ele>297.7</ele>
        <time>2012-10-30T11:53:28Z</time>
      </trkpt>
      <trkpt lat="45.51095" lon="6.07053">
        <ele>298.6</ele>
        <time>2012-10-30T11:53:32Z</time>
      </trkpt>
      <trkpt lat="45.51099" lon="6.07056">
        <ele>299.1</ele>
        <time>2012-10-30T11:53:36Z</time>
      </trkpt>
      <trkpt lat="45.51105" lon="6.07058">
        <ele>299.1</ele>
        <time>2012-10-30T11:53:40Z</time>
      </trkpt>
      <trkpt lat="45.5111" lon="6.07061">
        <ele>300.1</ele>
        <time>2012-10-30T11:53:44Z</time>
      </trkpt>
      <trkpt lat="45.51114" lon="6.07063">
        <ele>301</ele>
        <time>2012-10-30T11:53:48Z</time>
      </trkpt>
      <trkpt lat="45.51119" lon="6.07067">
        <ele>301.5</ele>
        <time>2012-10-30T11:53:52Z</time>
      </trkpt>
      <trkpt lat="45.51123" lon="6.0707">
        <ele>302</ele>
        <time>2012-10-30T11:53:56Z</time>
      </trkpt>
      <trkpt lat="45.51127" lon="6.07075">
        <ele>303</ele>
        <time>2012-10-30T11:54:00Z</time>
      </trkpt>
      <trkpt lat="45.51131" lon="6.07078">
        <ele>303.9</ele>
        <time>2012-10-30T11:54:04Z</time>
      </trkpt>
      <trkpt lat="45.51135" lon="6.0708">
        <ele>304.9</ele>
        <time>2012-10-30T11:54:08Z</time>
      </trkpt>
      <trkpt lat="45.51139" lon="6.07082">
        <ele>305.4</ele>
        <time>2012-10-30T11:54:12Z</time>
      </trkpt>
      <trkpt lat="45.5114" lon="6.07082">
        <ele>305.8</ele>
        <time>2012-10-30T11:54:16Z</time>
      </trkpt>
      <trkpt lat="45.5114" lon="6.07075">
        <ele>304.9</ele>
        <time>2012-10-30T11:54:20Z</time>
      </trkpt>
      <trkpt lat="45.5114" lon="6.07068">
        <ele>304.9</ele>
        <time>2012-10-30T11:54:24Z</time>
      </trkpt>
      <trkpt lat="45.51138" lon="6.0706">
        <ele>305.8</ele>
        <time>2012-10-30T11:54:28Z</time>
      </trkpt>
      <trkpt lat="45.51136" lon="6.07052">
        <ele>305.4</ele>
        <time>2012-10-30T11:54:32Z</time>
      </trkpt>
      <trkpt lat="45.51135" lon="6.07044">
        <ele>305.8</ele>
        <time>2012-10-30T11:54:36Z</time>
      </trkpt>
      <trkpt lat="45.51135" lon="6.07036">
        <ele>305.8</ele>
        <time>2012-10-30T11:54:40Z</time>
      </trkpt>
      <trkpt lat="45.51133" lon="6.07029">
        <ele>305.8</ele>
        <time>2012-10-30T11:54:44Z</time>
      </trkpt>
      <trkpt lat="45.51132" lon="6.07023">
        <ele>306.3</ele>
        <time>2012-10-30T11:54:48Z</time>
      </trkpt>
      <trkpt lat="45.51131" lon="6.07015">
        <ele>306.8</ele>
        <time>2012-10-30T11:54:52Z</time>
      </trkpt>
      <trkpt lat="45.5113" lon="6.07011">
        <ele>307.3</ele>
        <time>2012-10-30T11:54:56Z</time>
      </trkpt>
      <trkpt lat="45.51132" lon="6.07016">
        <ele>306.8</ele>
        <time>2012-10-30T11:55:00Z</time>
      </trkpt>
      <trkpt lat="45.51134" lon="6.07024">
        <ele>306.3</ele>
        <time>2012-10-30T11:55:04Z</time>
      </trkpt>
      <trkpt lat="45.51135" lon="6.07032">
        <ele>306.3</ele>
        <time>2012-10-30T11:55:08Z</time>
      </trkpt>
      <trkpt lat="45.51136" lon="6.0704">
        <ele>306.3</ele>
        <time>2012-10-30T11:55:12Z</time>
      </trkpt>
      <trkpt lat="45.51137" lon="6.07048">
        <ele>306.3</ele>
        <time>2012-10-30T11:55:16Z</time>
      </trkpt>
      <trkpt lat="45.51139" lon="6.07056">
        <ele>305.4</ele>
        <time>2012-10-30T11:55:20Z</time>
      </trkpt>
      <trkpt lat="45.51141" lon="6.07064">
        <ele>305.4</ele>
        <time>2012-10-30T11:55:24Z</time>
      </trkpt>
      <trkpt lat="45.5114" lon="6.07072">
        <ele>305.4</ele>
        <time>2012-10-30T11:55:28Z</time>
      </trkpt>
      <trkpt lat="45.51142" lon="6.0708">
        <ele>304.9</ele>
        <time>2012-10-30T11:55:32Z</time>
      </trkpt>
      <trkpt lat="45.51145" lon="6.07087">
        <ele>304.4</ele>
        <time>2012-10-30T11:55:36Z</time>
      </trkpt>
      <trkpt lat="45.51148" lon="6.07095">
        <ele>303.9</ele>
        <time>2012-10-30T11:55:40Z</time>
      </trkpt>
      <trkpt lat="45.5115" lon="6.07102">
        <ele>304.4</ele>
        <time>2012-10-30T11:55:44Z</time>
      </trkpt>
      <trkpt lat="45.51155" lon="6.07108">
        <ele>304.4</ele>
        <time>2012-10-30T11:55:48Z</time>
      </trkpt>
      <trkpt lat="45.5116" lon="6.07112">
        <ele>304.4</ele>
        <time>2012-10-30T11:55:52Z</time>
      </trkpt>
      <trkpt lat="45.51165" lon="6.07113">
        <ele>305.8</ele>
        <time>2012-10-30T11:55:56Z</time>
      </trkpt>
      <trkpt lat="45.51169" lon="6.07116">
        <ele>307.8</ele>
        <time>2012-10-30T11:56:00Z</time>
      </trkpt>
      <trkpt lat="45.51173" lon="6.07118">
        <ele>308.7</ele>
        <time>2012-10-30T11:56:04Z</time>
      </trkpt>
      <trkpt lat="45.51178" lon="6.07121">
        <ele>309.7</ele>
        <time>2012-10-30T11:56:08Z</time>
      </trkpt>
      <trkpt lat="45.51181" lon="6.07125">
        <ele>310.2</ele>
        <time>2012-10-30T11:56:12Z</time>
      </trkpt>
      <trkpt lat="45.51186" lon="6.07128">
        <ele>311.1</ele>
        <time>2012-10-30T11:56:16Z</time>
      </trkpt>
      <trkpt lat="45.5119" lon="6.07135">
        <ele>312.1</ele>
        <time>2012-10-30T11:56:20Z</time>
      </trkpt>
      <trkpt lat="45.51195" lon="6.07139">
        <ele>312.6</ele>
        <time>2012-10-30T11:56:24Z</time>
      </trkpt>
      <trkpt lat="45.512" lon="6.07141">
        <ele>313.5</ele>
        <time>2012-10-30T11:56:28Z</time>
      </trkpt>
      <trkpt lat="45.51205" lon="6.07142">
        <ele>314.5</ele>
        <time>2012-10-30T11:56:32Z</time>
      </trkpt>
      <trkpt lat="45.5121" lon="6.07145">
        <ele>315</ele>
        <time>2012-10-30T11:56:36Z</time>
      </trkpt>
      <trkpt lat="45.51215" lon="6.07143">
        <ele>315</ele>
        <time>2012-10-30T11:56:40Z</time>
      </trkpt>
      <trkpt lat="45.51217" lon="6.07138">
        <ele>315</ele>
        <time>2012-10-30T11:56:44Z</time>
      </trkpt>
      <trkpt lat="45.51214" lon="6.0713">
        <ele>315.9</ele>
        <time>2012-10-30T11:56:48Z</time>
      </trkpt>
      <trkpt lat="45.51211" lon="6.07124">
        <ele>315.4</ele>
        <time>2012-10-30T11:56:52Z</time>
      </trkpt>
      <trkpt lat="45.51208" lon="6.07117">
        <ele>315.4</ele>
        <time>2012-10-30T11:56:56Z</time>
      </trkpt>
      <trkpt lat="45.51204" lon="6.0711">
        <ele>315</ele>
        <time>2012-10-30T11:57:00Z</time>
      </trkpt>
      <trkpt lat="45.51202" lon="6.07103">
        <ele>315.9</ele>
        <time>2012-10-30T11:57:04Z</time>
      </trkpt>
      <trkpt lat="45.512" lon="6.07095">
        <ele>315.9</ele>
        <time>2012-10-30T11:57:08Z</time>
      </trkpt>
      <trkpt lat="45.51198" lon="6.07088">
        <ele>316.4</ele>
        <time>2012-10-30T11:57:12Z</time>
      </trkpt>
      <trkpt lat="45.51194" lon="6.0708">
        <ele>316.4</ele>
        <time>2012-10-30T11:57:16Z</time>
      </trkpt>
      <trkpt lat="45.51192" lon="6.07073">
        <ele>316.4</ele>
        <time>2012-10-30T11:57:20Z</time>
      </trkpt>
      <trkpt lat="45.5119" lon="6.07065">
        <ele>316.9</ele>
        <time>2012-10-30T11:57:24Z</time>
      </trkpt>
      <trkpt lat="45.51189" lon="6.07057">
        <ele>315.9</ele>
        <time>2012-10-30T11:57:28Z</time>
      </trkpt>
      <trkpt lat="45.51187" lon="6.0705">
        <ele>316.4</ele>
        <time>2012-10-30T11:57:32Z</time>
      </trkpt>
      <trkpt lat="45.51183" lon="6.07042">
        <ele>315.9</ele>
        <time>2012-10-30T11:57:36Z</time>
      </trkpt>
      <trkpt lat="45.5118" lon="6.07035">
        <ele>315.4</ele>
        <time>2012-10-30T11:57:40Z</time>
      </trkpt>
      <trkpt lat="45.51178" lon="6.07028">
        <ele>314.5</ele>
        <time>2012-10-30T11:57:44Z</time>
      </trkpt>
      <trkpt lat="45.51176" lon="6.0702">
        <ele>314.5</ele>
        <time>2012-10-30T11:57:48Z</time>
      </trkpt>
      <trkpt lat="45.51173" lon="6.07012">
        <ele>315</ele>
        <time>2012-10-30T11:57:52Z</time>
      </trkpt>
      <trkpt lat="45.5117" lon="6.07004">
        <ele>315.4</ele>
        <time>2012-10-30T11:57:56Z</time>
      </trkpt>
      <trkpt lat="45.51167" lon="6.06997">
        <ele>316.9</ele>
        <time>2012-10-30T11:58:00Z</time>
      </trkpt>
      <trkpt lat="45.51166" lon="6.06988">
        <ele>316.4</ele>
        <time>2012-10-30T11:58:04Z</time>
      </trkpt>
      <trkpt lat="45.51164" lon="6.06981">
        <ele>316.9</ele>
        <time>2012-10-30T11:58:08Z</time>
      </trkpt>
      <trkpt lat="45.5116" lon="6.06974">
        <ele>317.4</ele>
        <time>2012-10-30T11:58:12Z</time>
      </trkpt>
      <trkpt lat="45.51155" lon="6.06967">
        <ele>315.9</ele>
        <time>2012-10-30T11:58:16Z</time>
      </trkpt>
      <trkpt lat="45.51153" lon="6.0696">
        <ele>315.9</ele>
        <time>2012-10-30T11:58:20Z</time>
      </trkpt>
      <trkpt lat="45.5115" lon="6.06953">
        <ele>317.4</ele>
        <time>2012-10-30T11:58:24Z</time>
      </trkpt>
      <trkpt lat="45.51147" lon="6.06945">
        <ele>316.9</ele>
        <time>2012-10-30T11:58:28Z</time>
      </trkpt>
      <trkpt lat="45.51144" lon="6.06938">
        <ele>316.4</ele>
        <time>2012-10-30T11:58:32Z</time>
      </trkpt>
      <trkpt lat="45.51141" lon="6.06931">
        <ele>316.9</ele>
        <time>2012-10-30T11:58:36Z</time>
      </trkpt>
      <trkpt lat="45.51138" lon="6.06924">
        <ele>316.4</ele>
        <time>2012-10-30T11:58:40Z</time>
      </trkpt>
      <trkpt lat="45.51135" lon="6.06917">
        <ele>316.4</ele>
        <time>2012-10-30T11:58:44Z</time>
      </trkpt>
      <trkpt lat="45.51132" lon="6.0691">
        <ele>316.4</ele>
        <time>2012-10-30T11:58:48Z</time>
      </trkpt>
      <trkpt lat="45.51129" lon="6.06903">
        <ele>317.4</ele>
        <time>2012-10-30T11:58:52Z</time>
      </trkpt>
      <trkpt lat="45.51126" lon="6.06895">
        <ele>317.9</ele>
        <time>2012-10-30T11:58:56Z</time>
      </trkpt>
      <trkpt lat="45.51123" lon="6.06888">
        <ele>318.3</ele>
        <time>2012-10-30T11:59:00Z</time>
      </trkpt>
      <trkpt lat="45.5112" lon="6.06881">
        <ele>318.8</ele>
        <time>2012-10-30T11:59:04Z</time>
      </trkpt>
      <trkpt lat="45.51118" lon="6.06874">
        <ele>318.8</ele>
        <time>2012-10-30T11:59:08Z</time>
      </trkpt>
      <trkpt lat="45.51115" lon="6.06866">
        <ele>319.3</ele>
        <time>2012-10-30T11:59:12Z</time>
      </trkpt>
      <trkpt lat="45.51112" lon="6.0686">
        <ele>318.8</ele>
        <time>2012-10-30T11:59:16Z</time>
      </trkpt>
      <trkpt lat="45.51108" lon="6.06853">
        <ele>316.9</ele>
        <time>2012-10-30T11:59:20Z</time>
      </trkpt>
      <trkpt lat="45.51105" lon="6.06846">
        <ele>316.9</ele>
        <time>2012-10-30T11:59:24Z</time>
      </trkpt>
      <trkpt lat="45.51102" lon="6.06838">
        <ele>317.4</ele>
        <time>2012-10-30T11:59:28Z</time>
      </trkpt>
      <trkpt lat="45.51101" lon="6.0683">
        <ele>316.4</ele>
        <time>2012-10-30T11:59:32Z</time>
      </trkpt>
      <trkpt lat="45.511" lon="6.06823">
        <ele>314.5</ele>
        <time>2012-10-30T11:59:36Z</time>
      </trkpt>
      <trkpt lat="45.51098" lon="6.06815">
        <ele>314.5</ele>
        <time>2012-10-30T11:59:40Z</time>
      </trkpt>
      <trkpt lat="45.51096" lon="6.06807">
        <ele>314</ele>
        <time>2012-10-30T11:59:44Z</time>
      </trkpt>
      <trkpt lat="45.51094" lon="6.06799">
        <ele>314</ele>
        <time>2012-10-30T11:59:48Z</time>
      </trkpt>
      <trkpt lat="45.51095" lon="6.06791">
        <ele>314.5</ele>
        <time>2012-10-30T11:59:52Z</time>
      </trkpt>
      <trkpt lat="45.51098" lon="6.06784">
        <ele>314.5</ele>
        <time>2012-10-30T11:59:56Z</time>
      </trkpt>
      <trkpt lat="45.51099" lon="6.06776">
        <ele>315</ele>
        <time>2012-10-30T12:00:00Z</time>
      </trkpt>
      <trkpt lat="45.51096" lon="6.0677">
        <ele>315.4</ele>
        <time>2012-10-30T12:00:04Z</time>
      </trkpt>
      <trkpt lat="45.51091" lon="6.06765">
        <ele>315.4</ele>
        <time>2012-10-30T12:00:08Z</time>
      </trkpt>
      <trkpt lat="45.51086" lon="6.06759">
        <ele>315.9</ele>
        <time>2012-10-30T12:00:12Z</time>
      </trkpt>
      <trkpt lat="45.5108" lon="6.06756">
        <ele>315.4</ele>
        <time>2012-10-30T12:00:16Z</time>
      </trkpt>
      <trkpt lat="45.51075" lon="6.06753">
        <ele>315.9</ele>
        <time>2012-10-30T12:00:20Z</time>
      </trkpt>
      <trkpt lat="45.5107" lon="6.06749">
        <ele>315</ele>
        <time>2012-10-30T12:00:24Z</time>
      </trkpt>
      <trkpt lat="45.51066" lon="6.06743">
        <ele>315.4</ele>
        <time>2012-10-30T12:00:28Z</time>
      </trkpt>
      <trkpt lat="45.51062" lon="6.06737">
        <ele>315.4</ele>
        <time>2012-10-30T12:00:32Z</time>
      </trkpt>
      <trkpt lat="45.51059" lon="6.06731">
        <ele>315.9</ele>
        <time>2012-10-30T12:00:36Z</time>
      </trkpt>
      <trkpt lat="45.51053" lon="6.06727">
        <ele>317.4</ele>
        <time>2012-10-30T12:00:40Z</time>
      </trkpt>
      <trkpt lat="45.51048" lon="6.06723">
        <ele>317.9</ele>
        <time>2012-10-30T12:00:44Z</time>
      </trkpt>
      <trkpt lat="45.51044" lon="6.06717">
        <ele>317.4</ele>
        <time>2012-10-30T12:00:48Z</time>
      </trkpt>
      <trkpt lat="45.5104" lon="6.0671">
        <ele>315.9</ele>
        <time>2012-10-30T12:00:52Z</time>
      </trkpt>
      <trkpt lat="45.51036" lon="6.06705">
        <ele>315.4</ele>
        <time>2012-10-30T12:00:56Z</time>
      </trkpt>
      <trkpt lat="45.51031" lon="6.067">
        <ele>315.9</ele>
        <time>2012-10-30T12:01:00Z</time>
      </trkpt>
      <trkpt lat="45.51027" lon="6.06694">
        <ele>316.9</ele>
        <time>2012-10-30T12:01:04Z</time>
      </trkpt>
      <trkpt lat="45.51022" lon="6.06689">
        <ele>316.9</ele>
        <time>2012-10-30T12:01:08Z</time>
      </trkpt>
      <trkpt lat="45.51016" lon="6.06684">
        <ele>314</ele>
        <time>2012-10-30T12:01:12Z</time>
      </trkpt>
      <trkpt lat="45.51012" lon="6.06677">
        <ele>313</ele>
        <time>2012-10-30T12:01:16Z</time>
      </trkpt>
      <trkpt lat="45.51009" lon="6.0667">
        <ele>313.5</ele>
        <time>2012-10-30T12:01:20Z</time>
      </trkpt>
      <trkpt lat="45.51007" lon="6.06662">
        <ele>312.6</ele>
        <time>2012-10-30T12:01:24Z</time>
      </trkpt>
      <trkpt lat="45.51005" lon="6.06654">
        <ele>312.1</ele>
        <time>2012-10-30T12:01:28Z</time>
      </trkpt>
      <trkpt lat="45.51001" lon="6.06647">
        <ele>311.6</ele>
        <time>2012-10-30T12:01:32Z</time>
      </trkpt>
      <trkpt lat="45.50999" lon="6.06641">
        <ele>312.1</ele>
        <time>2012-10-30T12:01:36Z</time>
      </trkpt>
      <trkpt lat="45.50997" lon="6.06636">
        <ele>312.6</ele>
        <time>2012-10-30T12:01:40Z</time>
      </trkpt>
      <trkpt lat="45.50995" lon="6.0663">
        <ele>312.6</ele>
        <time>2012-10-30T12:01:44Z</time>
      </trkpt>
      <trkpt lat="45.50991" lon="6.06624">
        <ele>313</ele>
        <time>2012-10-30T12:01:48Z</time>
      </trkpt>
      <trkpt lat="45.50986" lon="6.06619">
        <ele>313</ele>
        <time>2012-10-30T12:01:52Z</time>
      </trkpt>
      <trkpt lat="45.5098" lon="6.06613">
        <ele>312.1</ele>
        <time>2012-10-30T12:01:56Z</time>
      </trkpt>
      <trkpt lat="45.50975" lon="6.06612">
        <ele>311.6</ele>
        <time>2012-10-30T12:02:00Z</time>
      </trkpt>
      <trkpt lat="45.50969" lon="6.0661">
        <ele>311.1</ele>
        <time>2012-10-30T12:02:04Z</time>
      </trkpt>
      <trkpt lat="45.50963" lon="6.06606">
        <ele>308.7</ele>
        <time>2012-10-30T12:02:08Z</time>
      </trkpt>
      <trkpt lat="45.50956" lon="6.06605">
        <ele>307.3</ele>
        <time>2012-10-30T12:02:12Z</time>
      </trkpt>
      <trkpt lat="45.5095" lon="6.06602">
        <ele>306.3</ele>
        <time>2012-10-30T12:02:16Z</time>
      </trkpt>
      <trkpt lat="45.50945" lon="6.06597">
        <ele>306.3</ele>
        <time>2012-10-30T12:02:20Z</time>
      </trkpt>
      <trkpt lat="45.50941" lon="6.06591">
        <ele>306.3</ele>
        <time>2012-10-30T12:02:24Z</time>
      </trkpt>
      <trkpt lat="45.50938" lon="6.06584">
        <ele>306.8</ele>
        <time>2012-10-30T12:02:28Z</time>
      </trkpt>
      <trkpt lat="45.50934" lon="6.06579">
        <ele>306.8</ele>
        <time>2012-10-30T12:02:32Z</time>
      </trkpt>
      <trkpt lat="45.50929" lon="6.06574">
        <ele>307.3</ele>
        <time>2012-10-30T12:02:36Z</time>
      </trkpt>
      <trkpt lat="45.50923" lon="6.0657">
        <ele>306.3</ele>
        <time>2012-10-30T12:02:40Z</time>
      </trkpt>
      <trkpt lat="45.50919" lon="6.06565">
        <ele>305.8</ele>
        <time>2012-10-30T12:02:44Z</time>
      </trkpt>
      <trkpt lat="45.50915" lon="6.06559">
        <ele>305.8</ele>
        <time>2012-10-30T12:02:48Z</time>
      </trkpt>
      <trkpt lat="45.5091" lon="6.06553">
        <ele>305.4</ele>
        <time>2012-10-30T12:02:52Z</time>
      </trkpt>
      <trkpt lat="45.50906" lon="6.06548">
        <ele>306.3</ele>
        <time>2012-10-30T12:02:56Z</time>
      </trkpt>
      <trkpt lat="45.50901" lon="6.06543">
        <ele>306.8</ele>
        <time>2012-10-30T12:03:00Z</time>
      </trkpt>
      <trkpt lat="45.50896" lon="6.06537">
        <ele>306.8</ele>
        <time>2012-10-30T12:03:04Z</time>
      </trkpt>
      <trkpt lat="45.50892" lon="6.06531">
        <ele>307.3</ele>
        <time>2012-10-30T12:03:08Z</time>
      </trkpt>
      <trkpt lat="45.5089" lon="6.06526">
        <ele>307.8</ele>
        <time>2012-10-30T12:03:12Z</time>
      </trkpt>
      <trkpt lat="45.50887" lon="6.06519">
        <ele>308.2</ele>
        <time>2012-10-30T12:03:16Z</time>
      </trkpt>
      <trkpt lat="45.50883" lon="6.06513">
        <ele>309.2</ele>
        <time>2012-10-30T12:03:20Z</time>
      </trkpt>
      <trkpt lat="45.50878" lon="6.06508">
        <ele>310.2</ele>
        <time>2012-10-30T12:03:24Z</time>
      </trkpt>
      <trkpt lat="45.50874" lon="6.06501">
        <ele>310.6</ele>
        <time>2012-10-30T12:03:28Z</time>
      </trkpt>
      <trkpt lat="45.5087" lon="6.06493">
        <ele>311.6</ele>
        <time>2012-10-30T12:03:32Z</time>
      </trkpt>
      <trkpt lat="45.50866" lon="6.06487">
        <ele>309.7</ele>
        <time>2012-10-30T12:03:36Z</time>
      </trkpt>
      <trkpt lat="45.50862" lon="6.06483">
        <ele>309.7</ele>
        <time>2012-10-30T12:03:40Z</time>
      </trkpt>
      <trkpt lat="45.50857" lon="6.06477">
        <ele>308.7</ele>
        <time>2012-10-30T12:03:44Z</time>
      </trkpt>
      <trkpt lat="45.50853" lon="6.06471">
        <ele>307.8</ele>
        <time>2012-10-30T12:03:48Z</time>
      </trkpt>
      <trkpt lat="45.50849" lon="6.06465">
        <ele>307.8</ele>
        <time>2012-10-30T12:03:52Z</time>
      </trkpt>
      <trkpt lat="45.50844" lon="6.06459">
        <ele>308.2</ele>
        <time>2012-10-30T12:03:56Z</time>
      </trkpt>
      <trkpt lat="45.50841" lon="6.06454">
        <ele>308.2</ele>
        <time>2012-10-30T12:04:00Z</time>
      </trkpt>
      <trkpt lat="45.50835" lon="6.0645">
        <ele>309.2</ele>
        <time>2012-10-30T12:04:04Z</time>
      </trkpt>
      <trkpt lat="45.50828" lon="6.06449">
        <ele>309.7</ele>
        <time>2012-10-30T12:04:08Z</time>
      </trkpt>
      <trkpt lat="45.50823" lon="6.06447">
        <ele>310.2</ele>
        <time>2012-10-30T12:04:12Z</time>
      </trkpt>
      <trkpt lat="45.50817" lon="6.06445">
        <ele>310.2</ele>
        <time>2012-10-30T12:04:16Z</time>
      </trkpt>
      <trkpt lat="45.50812" lon="6.06443">
        <ele>309.7</ele>
        <time>2012-10-30T12:04:20Z</time>
      </trkpt>
      <trkpt lat="45.50808" lon="6.06439">
        <ele>308.7</ele>
        <time>2012-10-30T12:04:24Z</time>
      </trkpt>
      <trkpt lat="45.50804" lon="6.06437">
        <ele>307.8</ele>
        <time>2012-10-30T12:04:28Z</time>
      </trkpt>
      <trkpt lat="45.50798" lon="6.06438">
        <ele>307.3</ele>
        <time>2012-10-30T12:04:32Z</time>
      </trkpt>
      <trkpt lat="45.50792" lon="6.06441">
        <ele>306.3</ele>
        <time>2012-10-30T12:04:36Z</time>
      </trkpt>
      <trkpt lat="45.50787" lon="6.0644">
        <ele>304.9</ele>
        <time>2012-10-30T12:04:40Z</time>
      </trkpt>
      <trkpt lat="45.50783" lon="6.06435">
        <ele>304.9</ele>
        <time>2012-10-30T12:04:44Z</time>
      </trkpt>
      <trkpt lat="45.5078" lon="6.0643">
        <ele>304.9</ele>
        <time>2012-10-30T12:04:48Z</time>
      </trkpt>
      <trkpt lat="45.50777" lon="6.06425">
        <ele>305.8</ele>
        <time>2012-10-30T12:04:52Z</time>
      </trkpt>
      <trkpt lat="45.50772" lon="6.06419">
        <ele>305.8</ele>
        <time>2012-10-30T12:04:56Z</time>
      </trkpt>
      <trkpt lat="45.50768" lon="6.06413">
        <ele>303.9</ele>
        <time>2012-10-30T12:05:00Z</time>
      </trkpt>
      <trkpt lat="45.50764" lon="6.06406">
        <ele>303.4</ele>
        <time>2012-10-30T12:05:04Z</time>
      </trkpt>
      <trkpt lat="45.50762" lon="6.06398">
        <ele>301.5</ele>
        <time>2012-10-30T12:05:08Z</time>
      </trkpt>
      <trkpt lat="45.50759" lon="6.06391">
        <ele>302.5</ele>
        <time>2012-10-30T12:05:12Z</time>
      </trkpt>
      <trkpt lat="45.50754" lon="6.06386">
        <ele>302.5</ele>
        <time>2012-10-30T12:05:16Z</time>
      </trkpt>
      <trkpt lat="45.50749" lon="6.06382">
        <ele>300.5</ele>
        <time>2012-10-30T12:05:20Z</time>
      </trkpt>
      <trkpt lat="45.50744" lon="6.06378">
        <ele>299.6</ele>
        <time>2012-10-30T12:05:24Z</time>
      </trkpt>
      <trkpt lat="45.50741" lon="6.0637">
        <ele>298.1</ele>
        <time>2012-10-30T12:05:28Z</time>
      </trkpt>
      <trkpt lat="45.50738" lon="6.06362">
        <ele>296.7</ele>
        <time>2012-10-30T12:05:32Z</time>
      </trkpt>
      <trkpt lat="45.50737" lon="6.06353">
        <ele>294.8</ele>
        <time>2012-10-30T12:05:36Z</time>
      </trkpt>
      <trkpt lat="45.50736" lon="6.06345">
        <ele>293.8</ele>
        <time>2012-10-30T12:05:40Z</time>
      </trkpt>
      <trkpt lat="45.50735" lon="6.06338">
        <ele>293.8</ele>
        <time>2012-10-30T12:05:44Z</time>
      </trkpt>
      <trkpt lat="45.50732" lon="6.06331">
        <ele>291.9</ele>
        <time>2012-10-30T12:05:48Z</time>
      </trkpt>
      <trkpt lat="45.50729" lon="6.06324">
        <ele>292.9</ele>
        <time>2012-10-30T12:05:52Z</time>
      </trkpt>
      <trkpt lat="45.50728" lon="6.06318">
        <ele>290.5</ele>
        <time>2012-10-30T12:05:56Z</time>
      </trkpt>
      <trkpt lat="45.50727" lon="6.06318">
        <ele>290</ele>
        <time>2012-10-30T12:06:00Z</time>
      </trkpt>
      <trkpt lat="45.50727" lon="6.06319">
        <ele>288.5</ele>
        <time>2012-10-30T12:06:04Z</time>
      </trkpt>
      <trkpt lat="45.50724" lon="6.06318">
        <ele>286.1</ele>
        <time>2012-10-30T12:06:08Z</time>
      </trkpt>
      <trkpt lat="45.50724" lon="6.06319">
        <ele>284.7</ele>
        <time>2012-10-30T12:06:12Z</time>
      </trkpt>
      <trkpt lat="45.50724" lon="6.06319">
        <ele>283.7</ele>
        <time>2012-10-30T12:06:16Z</time>
      </trkpt>
      <trkpt lat="45.50724" lon="6.06319">
        <ele>283.7</ele>
        <time>2012-10-30T12:06:20Z</time>
      </trkpt>
      <trkpt lat="45.50724" lon="6.06319">
        <ele>283.7</ele>
        <time>2012-10-30T12:06:24Z</time>
      </trkpt>
      <trkpt lat="45.50724" lon="6.06319">
        <ele>283.7</ele>
        <time>2012-10-30T12:06:28Z</time>
      </trkpt>
      <trkpt lat="45.50724" lon="6.06319">
        <ele>283.7</ele>
        <time>2012-10-30T12:06:32Z</time>
      </trkpt>
    </trkseg>
  </trk>
</gpx>